[[{"header":{"parameterUnit":"m.s-1","parameterCategory":1,"la1":30.6,"la2":28.766,"lo1":-90.7593,"lo2":-88.6598,"dy":0.0162,"dx":0.0183,"nx":116,"ny":114,"refTime":"2023-06-30T12:00:00:Z","depth":0,"parameterNumber":2,"parameterNumberName":"U-component_of_WINDS"},"data":[0.0,0.0,0.0,0.0,0.0,0.0,0.0,0.0,0.0,0.0,0.0,0.0,0.0,0.0,0.0,0.0,0.0,0.0,0.0,0.0,0.0,0.0,0.0,0.0,0.0,0.0,0.0,0.0,0.0,0.0,0.0,0.0,0.0,0.0,0.0,0.0,0.0,0.0,0.0,0.0,0.0,0.0,0.0,0.0,0.0,0.0,0.0,0.0,0.0,0.0,0.0,0.0,0.0,0.0,0.0,0.0,0.0,0.0,0.0,0.0,0.0,0.0,0.0,0.0,0.0,0.0,0.0,0.0,0.0,0.0,0.0,0.0,0.0,0.0,0.0,0.0,0.0,0.0,0.0,0.0,0.0,0.0,0.0,0.0,0.0,0.0,0.0,0.0,0.0,0.0,0.0,0.0,0.0,0.0,0.0,0.0,0.0,0.0,0.0,0.0,0.0,0.0,0.0,0.0,0.0,0.0,0.0,0.0,0.0,0.0,0.0,0.0,0.0,0.0,0.0,0.0,0.0,0.0,0.0,0.0,0.0,0.0,0.0,0.0,0.0,0.0,0.0,0.0,0.0,0.0,0.0,0.0,0.0,0.0,0.0,0.0,0.0,0.0,0.0,0.0,0.0,0.0,0.0,0.0,0.0,0.0,0.0,0.0,0.0,0.0,0.0,0.0,0.0,0.0,0.0,0.0,0.0,0.0,0.0,0.0,0.0,0.0,0.0,0.0,0.0,0.0,0.0,0.0,0.0,0.0,0.0,0.0,0.0,0.0,0.0,0.0,0.0,0.0,0.0,0.0,0.0,0.0,0.0,0.0,0.0,0.0,0.0,0.0,0.0,0.0,0.0,0.0,0.0,0.0,0.0,0.0,0.0,0.0,0.0,0.0,0.0,0.0,0.0,0.0,0.0,0.0,0.0,0.0,0.0,0.0,0.0,0.0,0.0,0.0,0.0,0.0,0.0,0.0,0.0,0.0,0.0,0.0,0.0,0.0,0.0,0.0,0.0,0.0,0.0,0.0,0.0,0.0,0.0,0.0,0.0,0.0,0.0,0.0,0.0,0.0,0.0,0.0,0.0,0.0,0.0,0.0,0.0,0.0,0.0,0.0,0.0,0.0,0.0,0.0,0.0,0.0,0.0,0.0,0.0,0.0,0.0,0.0,0.0,0.0,0.0,0.0,0.0,0.0,0.0,0.0,0.0,0.0,0.0,0.0,0.0,0.0,0.0,0.0,0.0,0.0,0.0,0.0,0.0,0.0,0.0,0.0,0.0,0.0,0.0,0.0,0.0,0.0,0.0,0.0,0.0,0.0,0.0,0.0,0.0,0.0,0.0,0.0,0.0,0.0,0.0,0.0,0.0,0.0,0.0,0.0,0.0,0.0,0.0,0.0,0.0,0.0,0.0,0.0,0.0,0.0,0.0,0.0,0.0,0.0,0.0,0.0,0.0,0.0,0.0,0.0,0.0,0.0,0.0,0.0,0.0,0.0,0.0,0.0,0.0,0.0,0.0,0.0,0.0,0.0,0.0,0.0,0.0,0.0,0.0,0.0,0.0,0.0,0.0,0.0,0.0,0.0,0.0,0.0,0.0,0.0,0.0,0.0,0.0,0.0,0.0,0.0,0.0,0.0,0.0,0.0,0.0,0.0,0.0,0.0,0.0,0.0,0.0,0.0,0.0,0.0,0.0,0.0,0.0,0.0,0.0,0.0,0.0,0.0,0.0,0.0,0.0,0.0,0.0,0.0,0.0,0.0,0.0,0.0,0.0,0.0,0.0,0.0,0.0,0.0,0.0,0.0,0.0,0.0,0.0,0.0,0.0,0.0,0.0,0.0,0.0,0.0,0.0,0.0,0.0,0.0,0.0,0.0,0.0,0.0,0.0,0.0,0.0,0.0,0.0,0.0,0.0,0.0,0.0,0.0,0.0,0.0,0.0,0.0,0.0,0.0,0.0,0.0,0.0,0.0,0.0,0.0,0.0,0.0,0.0,0.0,0.0,0.0,0.0,0.0,0.0,0.0,0.0,0.0,0.0,0.0,0.0,0.0,0.0,0.0,0.0,0.0,0.0,0.0,0.0,0.0,0.0,0.0,0.0,0.0,0.0,0.0,0.0,0.0,0.0,0.0,0.0,0.0,0.0,0.0,0.0,0.0,0.0,0.0,0.0,0.0,0.0,0.0,0.0,0.0,0.0,0.0,0.0,0.0,0.0,0.0,0.0,0.0,0.0,0.0,0.0,0.0,0.0,0.0,0.0,0.0,0.0,0.0,0.0,0.0,0.0,0.0,0.0,0.0,0.0,0.0,0.0,0.0,0.0,0.0,0.0,0.0,0.0,0.0,0.0,0.0,0.0,0.0,0.0,0.0,0.0,0.0,0.0,0.0,0.0,0.0,0.0,0.0,0.0,0.0,0.0,0.0,0.0,0.0,0.0,0.0,0.0,0.0,0.0,0.0,0.0,0.0,0.0,0.0,0.0,0.0,0.0,0.0,0.0,0.0,0.0,0.0,0.0,0.0,0.0,0.0,0.0,0.0,0.0,0.0,0.0,0.0,0.0,0.0,0.0,0.0,0.0,0.0,0.0,0.0,0.0,0.0,0.0,0.0,0.0,0.0,0.0,0.0,0.0,0.0,0.0,0.0,0.0,0.0,0.0,0.0,0.0,0.0,0.0,0.0,0.0,0.0,0.0,0.0,0.0,0.0,0.0,0.0,0.0,0.0,0.0,0.0,0.0,0.0,0.0,0.0,0.0,0.0,0.0,0.0,0.0,0.0,0.0,0.0,0.0,0.0,0.0,0.0,0.0,0.0,0.0,0.0,0.0,0.0,0.0,0.0,0.0,0.0,0.0,0.0,0.0,0.0,0.0,0.0,0.0,0.0,0.0,0.0,0.0,0.0,0.0,0.0,0.0,0.0,0.0,0.0,0.0,0.0,0.0,0.0,0.0,0.0,0.0,0.0,0.0,0.0,0.0,0.0,0.0,0.0,0.0,0.0,0.0,0.0,0.0,0.0,0.0,0.0,0.0,0.0,0.0,0.0,0.0,0.0,0.0,0.0,0.0,0.0,0.0,0.0,0.0,0.0,0.0,0.0,0.0,0.0,0.0,0.0,0.0,0.0,0.0,0.0,0.0,0.0,0.0,0.0,0.0,0.0,0.0,0.0,0.0,0.0,0.0,0.0,0.0,0.0,0.0,0.0,0.0,0.0,0.0,0.0,0.0,0.0,0.0,0.0,0.0,0.0,0.0,0.0,0.0,0.0,0.0,0.0,0.0,0.0,0.0,0.0,0.0,0.0,0.0,0.0,0.0,0.0,0.0,0.0,0.0,0.0,0.0,0.0,0.0,0.0,0.0,0.0,0.0,0.0,0.0,0.0,0.0,0.0,0.0,0.0,0.0,0.0,0.0,0.0,0.0,0.0,0.0,0.0,0.0,0.0,0.0,0.0,0.0,0.0,0.0,0.0,0.0,0.0,0.0,0.0,0.0,0.0,0.0,0.0,0.0,0.0,0.0,0.0,0.0,0.0,0.0,0.0,0.0,0.0,0.0,0.0,0.0,0.0,0.0,0.0,0.0,0.0,0.0,0.0,0.0,0.0,0.0,0.0,0.0,0.0,0.0,0.0,0.0,0.0,0.0,0.0,0.0,0.0,0.0,0.0,0.0,0.0,0.0,0.0,0.0,0.0,0.0,0.0,0.0,0.0,0.0,0.0,0.0,0.0,0.0,0.0,0.0,0.0,0.0,0.0,0.0,0.0,0.0,0.0,0.0,0.0,0.0,0.0,0.0,0.0,0.0,0.0,0.0,0.0,0.0,0.0,0.0,0.0,0.0,0.0,0.0,0.0,0.0,0.0,0.0,0.0,0.0,0.0,0.0,0.0,0.0,0.0,0.0,0.0,0.0,0.0,0.0,0.0,0.0,0.0,0.0,0.0,0.0,0.0,0.0,0.0,0.0,0.0,0.0,0.0,0.0,0.0,0.0,0.0,0.0,0.0,0.0,0.0,0.0,0.0,0.0,0.0,0.0,0.0,0.0,0.0,0.0,0.0,0.0,0.0,0.0,0.0,0.0,0.0,0.0,0.0,0.0,0.0,0.0,0.0,0.0,0.0,0.0,0.0,0.0,0.0,0.0,0.0,0.0,0.0,0.0,0.0,0.0,0.0,0.0,0.0,0.0,0.0,0.0,0.0,0.0,0.0,0.0,0.0,0.0,0.0,0.0,0.0,0.0,0.0,0.0,0.0,0.0,0.0,0.0,0.0,0.0,0.0,0.0,0.0,0.0,0.0,0.0,0.0,0.0,0.0,0.0,0.0,0.0,0.0,0.0,0.0,0.0,0.0,0.0,0.0,0.0,0.0,0.0,0.0,0.0,0.0,0.0,0.0,0.0,0.0,0.0,0.0,0.0,0.0,0.0,0.0,0.0,0.0,0.0,0.0,0.0,0.0,0.0,0.0,0.0,0.0,0.0,0.0,0.0,0.0,0.0,0.0,0.0,0.0,0.0,0.0,0.0,0.0,0.0,0.0,0.0,0.0,0.0,0.0,0.0,0.0,0.0,0.0,0.0,0.0,0.0,0.0,0.0,0.0,0.0,0.0,0.0,0.0,0.0,0.0,0.0,0.0,0.0,0.0,0.0,0.0,0.0,0.0,0.0,0.0,0.0,0.0,0.0,0.0,0.0,0.0,0.0,0.0,0.0,0.0,0.0,0.0,0.0,0.0,0.0,0.0,0.0,0.0,0.0,0.0,0.0,0.0,0.0,0.0,0.0,0.0,0.0,0.0,0.0,0.0,0.0,0.0,0.0,0.0,0.0,0.0,0.0,0.0,0.0,0.0,0.0,0.0,0.0,0.0,0.0,0.0,0.0,0.0,0.0,0.0,0.0,0.0,0.0,0.0,0.0,0.0,0.0,0.0,0.0,0.0,0.0,0.0,0.0,0.0,0.0,0.0,0.0,0.0,0.0,0.0,0.0,0.0,0.0,0.0,0.0,0.0,0.0,0.0,0.0,0.0,0.0,0.0,0.0,0.0,0.0,0.0,0.0,0.0,0.0,0.0,0.0,0.0,0.0,0.0,0.0,0.0,0.0,0.0,0.0,0.0,0.0,0.0,0.0,0.0,0.0,0.0,0.0,0.0,0.0,0.0,0.0,0.0,0.0,0.0,0.0,0.0,0.0,0.0,0.0,0.0,0.0,0.0,0.0,0.0,0.0,0.0,0.0,0.0,0.0,0.0,0.0,0.0,0.0,0.0,0.0,0.0,0.0,0.0,0.0,0.0,0.0,0.0,0.0,0.0,0.0,0.0,0.0,0.0,0.0,0.0,0.0,0.0,0.0,0.0,0.0,0.0,0.0,0.0,0.0,0.0,0.0,0.0,0.0,0.0,0.0,0.0,0.0,0.0,0.0,0.0,0.0,0.0,0.0,0.0,0.0,0.0,0.0,0.0,0.0,0.0,0.0,0.0,0.0,0.0,0.0,0.0,0.0,0.0,0.0,0.0,0.0,0.0,0.0,0.0,0.0,0.0,0.0,0.0,0.0,0.0,0.0,0.0,0.0,0.0,0.0,0.0,0.0,0.0,0.0,0.0,0.0,0.0,0.0,0.0,0.0,0.0,0.0,0.0,0.0,0.0,0.0,0.0,0.0,0.0,0.0,0.0,0.0,0.0,0.0,0.0,0.0,0.0,0.0,0.0,0.0,0.0,0.0,0.0,0.0,0.0,0.0,0.0,0.0,0.0,0.0,0.0,0.0,0.0,0.0,0.0,0.0,0.0,0.0,0.0,0.0,0.0,0.0,0.0,0.0,0.0,0.0,0.0,0.0,0.0,0.0,0.0,0.0,0.0,0.0,0.0,0.0,0.0,0.0,0.0,0.0,0.0,0.0,0.0,0.0,0.0,0.0,0.0,0.0,0.0,0.0,0.0,0.0,0.0,0.0,0.0,0.0,0.0,0.0,0.0,0.0,0.0,0.0,0.0,0.0,0.0,0.0,0.0,0.0,0.0,0.0,0.0,0.0,0.0,0.0,0.0,0.0,0.0,0.0,0.0,0.0,0.0,0.0,0.0,0.0,0.0,0.0,0.0,0.0,0.0,0.0,0.0,0.0,0.0,-4.9868,0.0,0.0,0.0,0.0,0.0,0.0,0.0,0.0,0.0,0.0,0.0,0.0,0.0,0.0,0.0,0.0,0.0,0.0,0.0,0.0,0.0,0.0,0.0,0.0,0.0,0.0,0.0,0.0,0.0,0.0,0.0,0.0,0.0,0.0,0.0,0.0,0.0,0.0,0.0,-3.3289,-3.4536,-3.6351,-3.7541,-3.7038,-3.5115,0.0,0.0,0.0,0.0,0.0,0.0,0.0,0.0,0.0,0.0,0.0,0.0,0.0,0.0,0.0,0.0,0.0,0.0,0.0,0.0,0.0,0.0,0.0,0.0,0.0,0.0,0.0,0.0,0.0,0.0,0.0,0.0,0.0,0.0,0.0,0.0,0.0,0.0,0.0,0.0,0.0,0.0,0.0,0.0,0.0,0.0,0.0,0.0,0.0,0.0,0.0,0.0,0.0,0.0,0.0,0.0,0.0,0.0,0.0,0.0,0.0,0.0,0.0,0.0,0.0,0.0,0.0,0.0,0.0,0.0,0.0,-5.0491,0.0,0.0,0.0,0.0,0.0,0.0,0.0,0.0,0.0,0.0,0.0,0.0,0.0,0.0,0.0,0.0,0.0,0.0,0.0,0.0,0.0,0.0,0.0,0.0,0.0,0.0,0.0,0.0,0.0,0.0,0.0,0.0,0.0,0.0,0.0,-3.1582,-3.2173,-3.3472,-3.5275,-3.753,-4.0141,-4.0542,-3.8738,-3.5168,-3.5249,0.0,0.0,0.0,0.0,0.0,0.0,0.0,0.0,0.0,0.0,0.0,0.0,0.0,0.0,0.0,0.0,0.0,0.0,0.0,0.0,0.0,0.0,0.0,0.0,0.0,0.0,0.0,0.0,0.0,0.0,0.0,0.0,0.0,0.0,0.0,0.0,0.0,0.0,0.0,0.0,0.0,0.0,0.0,0.0,0.0,0.0,0.0,0.0,0.0,0.0,0.0,0.0,0.0,0.0,0.0,0.0,0.0,0.0,0.0,0.0,0.0,0.0,0.0,-5.7631,-5.8569,-5.9703,-5.8173,-5.7835,-5.8358,-5.6714,-5.5547,-5.4598,0.0,0.0,0.0,0.0,0.0,0.0,0.0,0.0,0.0,0.0,0.0,0.0,0.0,0.0,0.0,0.0,0.0,0.0,0.0,0.0,0.0,0.0,0.0,-2.956,-2.9875,-2.9788,0.0,0.0,0.0,0.0,0.0,0.0,0.0,-3.0855,-3.0838,-3.2077,-3.4576,-3.8481,-4.0857,-4.1778,-4.1968,-4.1661,-4.0981,-4.0602,-3.9854,-3.8771,0.0,0.0,0.0,0.0,0.0,0.0,0.0,0.0,0.0,0.0,0.0,0.0,0.0,0.0,0.0,0.0,0.0,0.0,0.0,0.0,0.0,0.0,0.0,0.0,0.0,0.0,0.0,0.0,0.0,0.0,0.0,0.0,0.0,0.0,0.0,0.0,0.0,0.0,0.0,0.0,0.0,-4.9002,-5.0562,0.0,0.0,0.0,0.0,0.0,0.0,0.0,0.0,0.0,0.0,0.0,0.0,0.0,-5.6,-5.6,-6.0077,-6.2204,-6.2339,-6.5308,-6.6442,-6.5897,-6.4974,-6.4584,-6.4494,-6.2205,0.0,-5.5595,-5.5113,0.0,0.0,0.0,0.0,0.0,0.0,0.0,0.0,0.0,0.0,0.0,0.0,0.0,0.0,0.0,0.0,0.0,0.0,0.0,0.0,0.0,0.0,-3.1506,-3.1801,-3.2947,-3.3174,0.0,0.0,0.0,0.0,0.0,-3.0231,-3.0472,-3.1191,-3.3642,-3.7962,-4.1629,-4.4182,-4.565,-4.5784,-4.5926,-4.6074,-4.5761,-4.3633,-4.0255,-4.0168,0.0,0.0,0.0,0.0,0.0,0.0,0.0,0.0,0.0,0.0,0.0,0.0,0.0,0.0,0.0,0.0,0.0,0.0,0.0,0.0,0.0,0.0,0.0,0.0,0.0,0.0,0.0,0.0,0.0,0.0,0.0,0.0,0.0,0.0,0.0,0.0,0.0,0.0,0.0,-4.6824,-4.9539,-4.9387,-4.8812,-4.725,0.0,0.0,0.0,0.0,0.0,0.0,0.0,0.0,0.0,-5.611,-5.8795,-6.054,-6.125,-6.5013,-6.7128,-6.7609,-6.959,-7.0341,-6.9937,-6.909,-6.8442,-6.7877,-6.5846,-6.3649,-6.1277,-5.783,-5.5354,-5.3409,0.0,0.0,0.0,0.0,0.0,-4.8091,0.0,0.0,0.0,0.0,0.0,0.0,0.0,0.0,0.0,0.0,0.0,0.0,-3.0092,-3.2022,-3.3498,-3.3957,-3.5531,-3.5647,-3.3616,0.0,0.0,0.0,-2.9879,-2.9941,-3.0118,-3.242,-3.6074,-4.1121,-4.4497,-4.7033,-4.8744,-4.9061,-4.9275,-4.9323,-4.9326,-4.6842,-4.2682,-4.2696,-4.1144,-3.8542,0.0,0.0,0.0,0.0,0.0,0.0,0.0,0.0,0.0,0.0,0.0,0.0,0.0,0.0,0.0,0.0,0.0,0.0,0.0,0.0,0.0,0.0,0.0,0.0,0.0,0.0,0.0,0.0,0.0,0.0,0.0,0.0,0.0,0.0,0.0,0.0,0.0,-4.8492,-5.0912,-4.9565,-5.08,-5.0094,0.0,0.0,0.0,0.0,0.0,0.0,-5.5344,-5.6794,-5.8379,-6.0102,-6.2799,-6.4753,-6.5886,-6.8747,-7.0498,-7.1094,-7.2082,-7.2418,-7.2168,-7.1302,-7.0456,-6.961,-6.7885,-6.6563,-6.5259,-6.033,-5.7706,-5.6521,-5.3398,-5.1592,-5.0794,-5.1535,-5.1415,-5.1272,0.0,0.0,0.0,0.0,0.0,0.0,0.0,0.0,0.0,0.0,0.0,-3.0865,-3.1685,-3.3181,-3.4533,-3.55,-3.5671,-3.5342,-3.4308,-3.293,-3.181,-3.104,-2.9708,-2.9182,-2.9633,-3.475,-3.9282,-4.3069,-4.6845,-4.9042,-4.9649,-5.0548,-5.0526,-4.9691,-5.0254,-4.9476,-4.7576,-4.532,-4.4088,-4.324,-3.8579,0.0,0.0,0.0,0.0,0.0,0.0,0.0,0.0,0.0,0.0,0.0,0.0,0.0,0.0,0.0,0.0,0.0,0.0,0.0,0.0,0.0,0.0,0.0,0.0,0.0,0.0,0.0,0.0,0.0,0.0,0.0,0.0,0.0,0.0,0.0,0.0,0.0,0.0,-5.3868,-5.7188,0.0,0.0,0.0,0.0,-5.2554,-5.3576,-5.5953,-5.9947,-6.1258,-6.3309,-6.6446,-6.7674,-6.8675,-6.9436,-7.0802,-7.1522,-7.1579,-7.2831,-7.2995,-7.2168,-7.1302,-7.0456,-6.961,-6.7924,-6.6217,-6.4512,-6.2639,-6.0952,-5.9331,-5.6759,-5.4784,-5.3411,-5.3469,-5.3489,-5.3643,0.0,0.0,0.0,0.0,0.0,0.0,0.0,0.0,0.0,-2.8621,-3.0233,-3.1602,-3.1981,-3.5217,-3.7537,-3.7982,-3.9427,-3.9499,-3.7524,-3.5555,-3.3915,-3.2638,-3.0871,-3.1332,-3.4372,-3.8432,-4.186,-4.4555,-4.7001,-4.8659,-4.9594,-4.9774,-4.9876,-4.9906,-4.9971,-4.991,-4.9608,-4.8175,-4.6261,-4.4021,-4.2063,-3.9336,0.0,0.0,0.0,0.0,0.0,0.0,0.0,0.0,0.0,0.0,0.0,0.0,0.0,0.0,0.0,0.0,0.0,0.0,0.0,0.0,0.0,0.0,0.0,0.0,0.0,0.0,0.0,0.0,0.0,0.0,0.0,0.0,0.0,0.0,0.0,0.0,0.0,-5.6444,-5.9657,0.0,-5.6556,-5.7604,-5.8334,-5.7884,-6.0116,-6.263,-6.5182,-6.5619,-6.6662,-6.8539,-6.9448,-7.0096,-7.0536,-7.1503,-7.1729,-7.1215,-7.1942,-7.1547,-7.0198,-7.0143,-6.9667,-6.8802,-6.7635,-6.6506,-6.5375,-6.3649,-6.1913,-6.0173,-5.8794,-5.7892,-5.741,-5.7594,-5.7308,-5.6973,0.0,0.0,0.0,0.0,0.0,0.0,0.0,0.0,0.0,-2.9119,-3.1202,-3.3024,-3.3909,-3.7524,-4.0001,-4.0379,-4.1716,-4.1316,-3.8414,-3.652,-3.4496,-3.2236,-3.1524,-3.3282,-3.7742,-4.0337,-4.2857,-4.5328,-4.6628,-4.7653,-4.8431,-4.8851,-4.9088,-4.916,-4.9689,-5.0114,-5.0366,-4.9668,-4.8393,-4.6653,-4.4818,-4.2085,-3.8949,0.0,0.0,0.0,0.0,0.0,0.0,0.0,0.0,0.0,0.0,0.0,0.0,0.0,0.0,0.0,0.0,0.0,0.0,0.0,0.0,0.0,0.0,0.0,0.0,0.0,0.0,0.0,0.0,0.0,0.0,0.0,0.0,0.0,0.0,-5.4,-5.8156,-5.8689,-6.2637,-6.4061,-6.0846,-6.2758,-6.3995,-6.3532,-6.5786,-6.7664,-6.8771,-6.8763,-6.89,-6.9336,-6.9799,-6.9974,-6.9819,-7.0472,-7.04,-6.9548,-6.996,-6.9613,-6.867,-6.8944,-6.8342,-6.7109,-6.6821,-6.5749,-6.4145,-6.3279,-6.1977,-6.0533,-6.0154,-5.9991,-5.9994,-6.021,-5.9562,-5.862,0.0,0.0,0.0,0.0,0.0,0.0,0.0,0.0,0.0,-3.0324,-3.2703,-3.5126,-3.747,-3.9927,-4.1703,-4.2474,-4.2013,-4.0245,-3.674,-3.5438,-3.3263,-2.98,-3.1621,-3.4824,-3.9276,-4.0365,-4.2376,-4.5454,-4.5949,-4.6258,-4.6385,-4.8002,-4.8294,-4.7556,-4.9496,-5.0235,-5.0017,-4.9761,-5.0452,-5.129,-4.6654,-4.4739,-4.416,0.0,0.0,0.0,0.0,0.0,0.0,0.0,0.0,0.0,0.0,0.0,0.0,0.0,0.0,0.0,0.0,0.0,0.0,0.0,0.0,0.0,0.0,0.0,0.0,0.0,0.0,0.0,0.0,0.0,0.0,0.0,0.0,0.0,-5.0139,-5.6516,-6.1053,-6.096,-6.6526,-6.9147,-6.5991,-6.7841,-6.9244,-6.9275,-7.0067,-7.0555,-7.0574,-7.0499,-7.0001,-6.9024,-6.8968,-6.8481,-6.7468,-6.7862,-6.7601,-6.6652,-6.7052,-6.7395,-6.7687,-6.7722,-6.6567,-6.4635,-6.5493,-6.3911,-6.0774,-6.1607,-6.1377,-6.05,-6.0858,-6.0948,-6.089,-6.0943,-5.9939,-5.8321,0.0,0.0,0.0,0.0,0.0,0.0,0.0,0.0,-2.8559,-2.8938,-3.2572,-3.5411,-3.6066,-3.9077,-4.1134,-4.1341,-4.0308,-3.8763,-3.6795,-3.4091,-3.2133,-3.1083,-3.392,-3.7263,-4.1021,-4.2488,-4.4195,-4.6262,-4.6224,-4.6723,-4.7684,-4.7994,-4.8419,-4.8863,-4.9438,-4.9878,-5.0285,-5.0521,-5.1114,-5.175,-4.9699,-4.7089,-4.4396,0.0,0.0,0.0,0.0,0.0,0.0,0.0,0.0,0.0,0.0,0.0,0.0,0.0,0.0,0.0,0.0,0.0,0.0,0.0,0.0,0.0,0.0,0.0,0.0,0.0,0.0,0.0,0.0,0.0,0.0,0.0,-4.9299,-5.3538,-5.6604,-6.0311,-6.4171,-6.8035,-7.0695,-7.1599,-7.0139,-7.1133,-7.1621,-7.1058,-7.1231,-7.1625,-7.2207,-7.0536,-6.9382,-6.9005,-6.8447,-6.7625,-6.6574,-6.7288,-6.6878,-6.533,-6.5728,-6.5669,-6.5219,-6.5746,-6.5325,-6.4188,-6.4731,-6.3365,-6.0796,-6.1027,-6.0538,-5.9716,-6.0479,-6.0793,-6.0762,-6.0243,-5.9051,-5.7336,0.0,0.0,0.0,0.0,0.0,0.0,0.0,0.0,-2.8927,-2.9609,-3.3093,-3.5752,-3.6469,-3.9582,-4.1596,-4.1596,-4.0051,-3.8116,-3.5858,-3.2974,-3.217,-3.3999,-3.6554,-3.9509,-4.2869,-4.392,-4.52,-4.6786,-4.6321,-4.6661,-4.7701,-4.7736,-4.8044,-4.8585,-4.9431,-4.9924,-5.0143,-5.0694,-5.1066,-5.1315,-5.1228,-4.9423,-4.6755,-4.6512,-4.4753,-4.2382,-4.2178,-4.271,-4.3262,-4.1395,0.0,0.0,0.0,0.0,0.0,0.0,0.0,0.0,0.0,0.0,0.0,0.0,0.0,0.0,0.0,0.0,0.0,0.0,0.0,0.0,0.0,0.0,0.0,0.0,-5.2539,-5.6982,-6.1141,-6.321,-6.6007,-7.0651,-7.1691,-7.1921,-7.1734,-7.2432,-7.2564,-7.1753,-7.2357,-7.2507,-7.1925,-7.0855,-6.9741,-6.8625,-6.8457,-6.7564,-6.5892,-6.6646,-6.6149,-6.4376,-6.456,-6.4493,-6.421,-6.4448,-6.3958,0.0,-6.3367,-6.23,-6.0281,-6.0646,-6.0222,0.0,0.0,0.0,0.0,0.0,-5.8047,-5.7028,0.0,0.0,0.0,0.0,0.0,0.0,0.0,0.0,-2.9673,-3.127,-3.3847,-3.6094,-3.7649,-4.0498,-4.2266,-4.2266,-4.0145,-3.7443,-3.4175,-3.2033,-3.2884,-3.7345,-3.8937,-4.1203,-4.4441,-4.4796,-4.5617,-4.7022,-4.6451,-4.6515,-4.714,-4.7514,-4.7634,-4.7639,-4.9428,-5.0057,-4.9837,-5.0474,-5.063,-5.0551,-5.1612,-5.1246,-4.9847,-4.7744,-4.6414,-4.5613,-4.4872,-4.4704,-4.4784,-4.4279,0.0,0.0,0.0,0.0,0.0,0.0,0.0,0.0,0.0,0.0,0.0,0.0,0.0,0.0,0.0,0.0,0.0,0.0,0.0,0.0,0.0,0.0,0.0,0.0,-5.5964,-5.9683,-6.4109,-6.5195,-6.6836,-7.0328,-7.0865,-7.1125,-7.1545,-7.2391,-7.2564,-7.1753,-7.309,-7.2958,-7.0743,0.0,0.0,0.0,0.0,-6.7787,-6.5415,-6.6001,-6.544,-6.3798,-6.3688,-6.3749,-6.398,-6.3596,-6.2713,-6.1478,-6.1851,-6.1065,-5.9569,-6.0319,-6.0092,-5.9264,-5.9264,-5.917,-5.8839,-5.7356,-5.6937,0.0,0.0,0.0,0.0,0.0,0.0,0.0,0.0,0.0,-2.965,-3.1149,-3.3768,-3.582,-3.6689,-3.8829,-4.0165,-4.0165,-3.6692,-3.3742,-3.1985,-3.1263,-3.2953,-3.7543,-3.8656,-4.0829,-4.441,-4.4903,-4.5811,-4.7149,-4.7239,-4.7524,-4.797,-4.804,-4.8281,-4.8608,-4.8914,-4.9538,-5.0418,-5.0464,-5.0575,-5.0739,-5.0978,-5.0371,-4.9455,-5.0969,-5.0397,-4.8985,-5.0241,-5.1512,-5.2159,-4.9464,-4.8893,-4.8841,-4.6243,-4.3461,0.0,0.0,0.0,0.0,0.0,0.0,0.0,0.0,0.0,0.0,0.0,0.0,0.0,0.0,0.0,0.0,0.0,0.0,0.0,-5.4251,-5.8488,-6.2349,-6.5148,-6.5667,-6.6885,-6.9943,-7.1309,-7.1752,-7.1038,-7.2127,-7.2564,-7.1753,-7.2001,-7.1982,-7.1494,-7.0326,-6.9444,-6.8975,-6.7851,-6.6664,-6.5415,-6.5544,-6.4986,-6.3798,0.0,0.0,-6.2752,-6.2928,-6.2313,-6.1121,-6.1454,-6.0815,-5.9511,-5.9685,-5.9227,-5.8438,-5.8381,-5.7911,-5.7088,-5.5508,-5.5441,-5.5846,0.0,0.0,0.0,0.0,0.0,0.0,0.0,0.0,-3.0058,-3.081,-3.2753,-3.45,-3.5678,-3.6625,-3.7417,-3.8146,-3.5312,-3.3255,-3.2745,-3.3865,-3.6037,-3.9411,-4.0518,-4.2339,-4.5078,-4.5391,-4.6321,-4.7948,-4.7853,-4.802,-4.8435,-4.8195,-4.8244,-4.8467,-4.8796,-4.9286,-4.982,-5.038,-5.0602,-5.0602,-5.0855,-5.032,-4.9545,-5.087,-5.0616,-4.9764,-5.1051,-5.2217,-5.2977,-5.1658,-5.1583,-5.1716,-4.9799,-4.747,-4.4699,0.0,0.0,0.0,0.0,0.0,0.0,0.0,0.0,0.0,0.0,0.0,0.0,0.0,0.0,-4.6536,-4.8786,0.0,-5.4001,-5.7578,-6.0527,-6.3088,-6.5073,-6.5663,-6.6665,-6.8752,-6.9293,-6.9524,-6.9595,-7.059,-7.1037,-7.0495,-7.1227,-7.1321,-7.0477,-7.0086,-6.9278,-6.8039,-6.7607,-6.6573,-6.488,-6.5212,-6.4903,-6.3934,-6.3454,-6.2957,-6.2485,-6.1929,-6.1338,-6.0765,-6.0852,-6.051,-5.9811,-5.8716,-5.7728,-5.6806,-5.593,-5.6111,-5.669,-5.5431,-5.5308,-5.5489,0.0,0.0,0.0,0.0,0.0,0.0,0.0,0.0,0.0,0.0,-3.1974,-3.3262,-3.4659,-3.4663,-3.4734,-3.5102,-3.436,-3.3936,-3.4091,-3.6806,-3.9367,-4.1552,-4.2586,-4.3939,-4.5733,-4.5798,-4.6714,-4.8608,-4.8227,-4.826,-4.8639,-4.826,-4.8099,-4.8115,-4.8733,-4.9029,-4.9107,-5.0176,-5.053,-5.0481,-5.0954,-5.061,-4.9779,-4.9849,-4.9718,-4.9596,-5.0254,-5.0864,-5.1461,-5.19,-5.2449,-5.2891,-5.2152,-5.0944,-4.8739,-4.3181,-4.246,0.0,0.0,0.0,0.0,0.0,0.0,0.0,0.0,-4.3764,-4.4841,-4.8198,-4.9319,-5.0741,-5.4152,-5.5044,-5.6652,-6.095,-6.2272,-6.3352,-6.509,-6.556,-6.6097,-6.7041,-6.7082,-6.731,-6.8225,-6.9088,-6.9512,-6.929,-7.047,-7.0608,-6.9257,-6.9729,-6.9091,-6.7103,-6.7344,-6.6556,-6.4547,-6.4803,-6.4572,-6.3859,-6.2867,-6.2295,-6.2087,-6.0934,-6.0359,-6.0248,-6.0281,-6.0293,-6.013,-5.7908,-5.6547,-5.5703,-5.4002,-5.4606,-5.6334,-5.5542,-5.5332,-5.5231,0.0,0.0,0.0,0.0,0.0,0.0,0.0,0.0,0.0,0.0,0.0,0.0,0.0,0.0,-3.2821,-2.9444,-3.2494,-3.444,-3.4129,-3.7291,-4.0307,-4.2792,-4.3033,-4.3894,-4.5578,-4.5735,-4.6605,-4.826,-4.8195,-4.8292,-4.8515,-4.8452,-4.8452,-4.8452,-4.8356,-4.8639,-4.9226,-4.9693,-5.017,-5.063,-5.1097,-5.0793,-5.0034,-4.9808,-4.9668,-4.9617,-4.9894,-5.0103,-5.0248,-5.0032,-5.0681,-5.1536,-5.1032,-5.1028,-5.0309,-4.5347,-4.3136,-4.1136,-3.5807,-3.5267,-3.6962,-4.0022,-4.1883,-4.4834,0.0,-5.2077,-5.1723,-5.5596,-5.6401,-5.6652,-5.7406,-5.8699,-6.056,-6.3165,-6.3568,-6.4355,-6.6612,-6.5681,-6.48,-6.4952,-6.6704,-6.7957,-6.7946,-6.8947,-6.9589,-6.9545,-6.9521,-6.9388,-6.92,-6.8621,-6.8152,-6.787,-6.6518,-6.5655,-6.5373,-6.402,-6.3248,-6.3016,-6.2133,-6.1246,-6.0371,-6.0224,-5.9846,-5.9383,-6.0015,-6.0293,-6.013,-5.7908,-5.6934,-5.6662,-5.4916,-5.4425,-5.4652,-5.4441,-5.4384,-5.4322,0.0,0.0,0.0,0.0,0.0,0.0,0.0,0.0,0.0,0.0,0.0,0.0,0.0,-3.2109,-3.0048,-2.6645,-2.9935,-3.2748,-3.403,-3.7503,-4.0606,-4.2984,-4.3113,-4.3526,-4.4461,-4.4541,-4.5373,-4.698,-4.698,-4.7423,-4.8324,-4.8324,-4.8388,-4.8483,-4.842,-4.853,-4.8827,-4.9252,-4.9698,-5.0126,-5.0592,-5.0285,-4.9545,-4.9195,-4.8647,-4.7983,-4.7287,-4.701,0.0,-4.6808,-4.7575,-4.8693,-4.925,-4.8638,-4.7161,-4.4327,-4.2745,-4.1569,-4.0001,-4.0236,-4.1411,-4.336,-4.5349,-4.7933,-5.2114,-5.3008,-5.3908,-5.7344,-5.8367,-5.8934,-6.0015,-6.0385,-6.1114,-6.2907,-6.3231,-6.377,-6.5099,-6.4588,-6.3893,-6.3428,-6.4184,-6.5138,-6.618,-6.7124,-6.7772,-6.7972,-6.7875,-6.7795,-6.7795,-6.7476,-6.7063,-6.6556,-6.588,-6.5054,-6.4115,-6.3439,-6.2575,-6.156,-6.1107,-6.0409,-5.9446,-5.9423,-5.9321,-5.9196,-5.9225,-5.8988,-5.8405,-5.6391,-5.5127,-5.435,-5.2831,-5.2824,-5.3692,-5.4058,-5.4214,-5.3993,0.0,0.0,0.0,0.0,0.0,0.0,0.0,0.0,0.0,0.0,0.0,0.0,0.0,-3.006,-2.7817,-2.5274,-2.8106,-3.1063,-3.3496,-3.7188,-4.0395,-4.2845,-4.2929,-4.313,-4.3622,-4.3734,-4.4513,-4.6109,-4.6258,-4.6947,-4.813,-4.813,-4.8227,-4.842,-4.8388,-4.8288,-4.8167,-4.8599,-4.886,-4.891,-4.9513,-4.935,-4.8747,-4.8532,-4.7295,-4.5523,-4.4436,-4.3942,-4.3724,-4.3023,-4.393,-4.5436,-4.5995,-4.5538,-4.4477,-4.268,-4.1164,-4.0361,-4.1584,-4.2563,-4.3684,-4.561,-4.7868,-5.024,-5.2717,-5.3993,-5.5488,-5.8456,-5.9283,-5.9799,-6.0973,-6.072,-6.0891,-6.2555,-6.2709,-6.2969,-6.4076,-6.352,-6.2654,-6.1819,-6.1462,-6.167,-6.2767,-6.4537,-6.5927,-6.6609,-6.6748,-6.6802,-6.6802,-6.6556,-6.6143,-6.5523,-6.5279,-6.4603,-6.3439,-6.2745,-6.1919,-6.0924,-6.0134,-5.9514,-5.9043,-5.8757,-5.8647,-5.8728,-5.8259,-5.7578,-5.6683,-5.497,-5.3592,-5.2488,-5.1371,-5.1628,-5.2735,-5.3334,-5.3663,-5.3544,0.0,0.0,0.0,0.0,0.0,0.0,0.0,0.0,0.0,0.0,0.0,0.0,0.0,-2.8149,-2.6645,-2.532,-2.7597,-3.0125,-3.2408,-3.6119,-3.9537,-4.2473,-4.2508,-4.2751,-4.3509,-4.375,-4.4625,-4.6109,-4.6617,-4.7272,-4.8001,-4.8001,-4.8082,-4.8195,-4.8049,-4.7717,-4.7275,-4.7656,-4.7441,-4.6852,-4.7803,-4.7966,-4.7686,-4.8018,-4.5694,-4.2277,-4.1794,-4.1609,-4.1233,-3.8815,-3.9893,-4.1996,-4.0688,-4.2137,-4.3797,-4.107,-3.8153,-3.6179,-3.7956,-3.899,-4.0731,-4.563,-4.8638,-5.1679,-5.6666,-5.7234,-5.7457,-6.016,-6.0114,-5.9615,-5.9669,-5.9643,-6.043,-6.2802,-6.2251,-6.2357,-6.4723,-6.2803,-6.0832,-5.9882,-5.9088,-5.8241,0.0,-6.1324,-6.4629,-6.619,-6.6611,-6.6802,-6.6802,-6.5993,-6.5542,-6.5505,-6.4735,-6.4303,-6.4247,-6.1881,-6.1036,-6.1731,-5.9328,-5.854,-5.9158,-5.8239,-5.7768,-5.7615,-5.715,-5.6445,-5.5546,-5.4186,-5.3106,-5.2261,-5.17,-5.151,-5.156,-5.1787,-5.2332,-5.2828,0.0,0.0,0.0,0.0,0.0,0.0,0.0,0.0,0.0,0.0,0.0,0.0,0.0,0.0,0.0,0.0,-2.7246,-2.8604,-3.1686,-3.4149,-3.6895,-4.0007,-4.1827,-4.2589,-4.2233,-4.2217,-4.2663,-4.3651,-4.357,-4.4258,-4.5651,-4.5552,-4.5816,-4.6413,-4.635,-4.6378,-4.6476,-4.6564,-4.6864,-4.7305,-4.7444,-4.7603,-4.762,-4.6564,-4.407,-4.0857,0.0,-3.7516,-3.6868,-3.6025,-3.6715,-3.7978,-3.8303,-3.8085,-3.7386,-3.5712,-3.6647,-3.8452,-3.9286,-4.2023,-4.5264,-4.7852,-5.0349,-5.2936,-5.5765,-5.7005,-5.7894,-5.8969,-5.8148,-5.7206,-5.7206,-5.6305,-5.6371,-5.8818,-5.9195,-6.0068,-6.2679,-6.1135,-5.9606,-5.9394,-5.8491,-5.7963,-5.8122,0.0,0.0,-6.2752,-6.345,-6.4203,-6.5092,-6.4847,-6.4453,-6.3928,-6.4153,-6.3496,-6.1862,-6.1017,-5.991,-5.8539,-5.7603,-5.7885,-5.9158,-5.822,-5.7451,-5.6758,-5.5706,-5.492,-5.4279,-5.2609,-5.1943,-5.1857,-5.0778,-5.0824,-5.1422,-5.0879,-5.0971,-5.1327,0.0,0.0,0.0,0.0,0.0,0.0,0.0,0.0,0.0,0.0,0.0,0.0,0.0,0.0,0.0,0.0,0.0,-2.826,-3.0615,-3.212,-3.4237,-3.7195,-3.8598,-3.9124,-3.8748,-3.8997,-3.9635,-4.0638,-4.1239,-4.2512,-4.4325,-4.4191,-4.4476,-4.5129,-4.5273,-4.5349,-4.5431,-4.5507,-4.558,-4.5581,-4.5116,-4.4803,-4.448,-4.3237,-4.0834,0.0,-3.6142,-3.4449,-3.3027,-3.3027,-3.3864,-3.489,-3.4871,-3.4146,-3.3512,-3.4428,-3.6686,-3.9412,-4.1916,-4.4858,-4.7779,-5.015,-5.1932,-5.358,-5.5471,-5.644,-5.7076,-5.7639,-5.6454,-5.518,-5.4828,-5.358,-5.3375,-5.5588,-5.64,-5.7845,-6.0964,-6.0012,-5.9089,-5.934,-5.8277,-5.7504,-5.7387,-5.7889,0.0,-6.0406,-6.0936,-6.1766,-6.3086,-6.2863,-6.2982,-6.3514,-6.3439,-6.2632,-6.1036,-6.0154,-5.8764,-5.6906,-5.7415,-5.8034,-5.8784,-5.7885,-5.665,-5.5156,-5.4549,-5.362,-5.2475,-5.1576,-5.1214,-5.1112,-5.0071,-4.9895,-5.0247,-4.9839,-4.9637,-4.9644,0.0,0.0,0.0,0.0,0.0,0.0,0.0,0.0,0.0,0.0,0.0,0.0,0.0,0.0,0.0,0.0,0.0,0.0,-2.9309,-3.0225,-3.1815,-3.4218,-3.3374,-3.3033,-3.3529,-3.4565,-3.5783,-3.7125,-3.9414,-4.1484,-4.3313,-4.3311,-4.3513,-4.3895,-4.4269,-4.4184,-4.375,-4.4106,-4.3317,-4.1727,-4.0911,-3.9884,-3.8778,-3.8421,-3.6338,-3.3663,-3.4207,-3.2474,-2.9984,-3.0049,-3.1554,-3.3045,-3.0949,-3.098,-3.2683,-3.7145,-3.8246,-3.9362,-4.5443,-4.7208,-4.8289,-5.2372,-5.3283,-5.3722,-5.5776,-5.561,-5.5243,-5.6097,-5.4909,-5.3376,-5.226,-5.1357,-5.1406,-5.3217,-5.4055,-5.5841,-5.9697,-5.9504,-5.9155,-5.9609,-5.837,-5.6875,-5.5283,-5.5834,-5.7117,-5.912,0.0,-5.9706,-6.1004,-6.0359,-6.1218,-6.4001,-6.2595,-6.1731,-6.1599,-5.9253,-5.7657,-5.6925,-5.8445,-5.8802,-5.807,-5.7225,-5.5445,-5.311,-5.3771,-5.2637,-5.0407,-5.1062,-5.0878,-5.0133,-4.9538,-4.8817,-4.8156,-4.87,-4.8342,-4.7865,0.0,0.0,0.0,0.0,0.0,0.0,0.0,0.0,0.0,0.0,0.0,0.0,0.0,0.0,0.0,0.0,0.0,0.0,-2.9854,-2.9816,-3.0463,-3.2053,-3.2897,-3.3066,-3.2562,-3.2674,-3.2579,-3.2206,-3.2825,-3.3392,-3.3875,-3.4015,-3.4636,-3.565,-3.6298,-3.6898,-3.746,-3.8188,-3.8193,-3.7709,-3.7807,-3.7877,-3.7869,-3.7124,-3.5526,-3.3626,-3.3277,-3.157,-2.9625,-3.0626,-3.277,-3.5103,-3.5514,-3.642,-3.7777,-3.9918,-4.2146,-4.4415,-4.6578,-4.9431,-5.1984,-5.2929,-5.3662,-5.4212,-5.44,-5.4825,-5.453,-5.24,-5.0807,-4.9016,-4.6695,-4.6455,-4.7587,-5.0542,-5.284,-5.553,-5.9123,-5.9145,-5.8884,-5.9138,-5.8844,-5.8162,-5.7033,-5.7205,-5.7073,0.0,-5.7717,-5.9225,-6.0642,-6.0766,-6.0906,-6.1168,-6.1576,-6.0905,-5.9065,-5.7826,-5.7094,-5.6887,-5.7319,-5.7713,-5.8052,-5.6588,-5.5202,-5.3951,-5.3416,-5.2449,-5.115,-5.0635,-5.032,-4.9986,-4.8658,-4.8127,-4.804,-4.7613,-4.7034,-4.6699,0.0,0.0,0.0,0.0,0.0,0.0,0.0,0.0,0.0,0.0,0.0,0.0,0.0,0.0,0.0,0.0,0.0,0.0,0.0,-2.9485,-2.9166,-2.973,-2.9745,-2.9351,-2.8583,-2.9119,-2.9195,-2.8783,-2.9813,-3.06,-3.1138,-3.1229,-3.1556,-3.211,-3.3006,-3.3593,-3.3992,-3.4984,-3.514,0.0,0.0,-3.4707,-3.444,-3.4074,-3.3192,-3.2144,-3.1971,-3.1698,-3.1743,-3.3612,-3.52,-3.6829,-3.9345,-4.0213,-4.0886,-4.4017,-4.6037,-4.7632,-4.9438,-5.1873,-5.3859,-5.3731,-5.388,-5.3711,-5.2406,-5.2085,-5.1325,-4.8735,-4.6804,-4.5169,-4.3818,-4.3815,-4.5109,-4.8493,-5.1423,-5.4561,-5.8259,-5.8805,-5.9091,-5.9846,-5.9652,-5.9248,-5.8677,-5.8433,-5.7745,-5.6374,-5.6707,-5.7641,-5.9108,-5.919,-5.9631,-6.0594,-6.0338,-5.9159,-5.7019,-5.6925,-5.6887,-5.6887,-5.7263,-5.7488,-5.7525,-5.6194,-5.4731,-5.3271,0.0,-5.2558,-5.0998,-5.0799,-5.0468,-4.9986,-4.8723,-4.7893,-4.7358,-4.7024,-4.6469,-4.5942,0.0,0.0,0.0,0.0,0.0,0.0,0.0,0.0,0.0,0.0,0.0,0.0,0.0,0.0,0.0,0.0,0.0,0.0,0.0,0.0,-2.8282,-2.8007,-2.6146,-2.4757,-2.4021,-2.5227,-2.5911,-2.5997,-2.8059,-2.9567,-3.0536,-3.061,-3.0517,-3.0283,-3.1389,-3.173,-3.1559,-3.265,-3.2627,-3.1863,-3.1883,-3.1196,-3.0229,0.0,0.0,-3.038,-3.0753,-3.2253,-3.4482,-3.7326,-3.8306,-3.9034,-4.2905,-4.3508,-4.37,-4.8521,-4.9656,-4.9923,-5.2622,-5.3911,-5.4512,-5.4512,-5.396,-5.2808,-5.056,-4.8892,-4.7274,-4.537,-4.3182,-4.179,-4.2336,-4.2441,-4.3608,-4.7132,-5.0149,-5.3365,-5.7145,-5.8428,-5.9416,-6.0629,-6.0293,-5.9946,-5.9898,-5.9166,-5.8371,-5.7642,-5.6204,-5.5927,-5.7247,-5.7086,-5.8139,-6.0723,-5.8783,-5.7021,-5.5612,-5.6455,-5.6887,-5.6906,-5.7619,-5.7507,-5.6699,-5.5818,-5.4187,-5.2123,0.0,0.0,-5.06,-5.1241,-5.0875,-4.9856,-4.8946,-4.7738,-4.649,-4.6513,-4.6113,-4.55,0.0,0.0,0.0,0.0,0.0,0.0,0.0,0.0,0.0,0.0,0.0,0.0,0.0,0.0,0.0,0.0,0.0,0.0,0.0,0.0,0.0,-2.9051,-2.7184,-2.5615,-2.4498,-2.425,-2.3529,-2.232,-2.2888,-2.2882,-2.2369,-2.3238,-2.3822,-2.4182,-2.5478,-2.6298,-2.6738,-2.761,-2.7611,-2.7146,-2.8526,-2.8865,-2.8657,0.0,0.0,0.0,-3.0932,-3.1934,-3.3957,-3.835,-4.1383,-4.3891,-4.6912,-4.8814,-5.0133,-5.1261,-5.2049,-5.2657,-5.3063,-5.3814,-5.4512,-5.4512,-5.396,-5.2867,-5.0786,-4.8564,-4.6126,-4.3328,-4.0834,-3.9303,-3.9896,-4.087,-4.2956,-4.7042,-4.9993,-5.2752,-5.5618,-5.7611,-5.8827,-5.9084,-5.9166,-5.9373,-5.9844,-5.8164,-5.7172,-5.757,-5.6722,-5.6403,-5.6881,-5.7717,-5.8207,-5.8226,-5.6477,-5.5548,-5.5593,-5.6455,-5.6887,-5.6887,-5.7037,-5.6662,-5.5799,-5.4923,-5.3895,-5.2864,0.0,0.0,-5.1298,-5.1396,-5.0505,-4.8964,-4.7497,-4.6754,-4.6343,-4.4997,-4.4861,-4.5354,0.0,0.0,0.0,0.0,0.0,0.0,0.0,0.0,0.0,0.0,0.0,0.0,0.0,0.0,0.0,0.0,0.0,0.0,0.0,0.0,0.0,0.0,0.0,0.0,-2.4316,-2.4075,-2.351,-2.2543,0.0,-2.2924,-2.2795,-2.2848,-2.3304,-2.4028,-2.4475,-2.5042,-2.5627,-2.6151,-2.6251,-2.6195,-2.7794,-2.8385,0.0,0.0,0.0,0.0,-3.1092,-3.2056,-3.3829,-3.6916,-4.0285,-4.3997,-4.8552,-5.0634,-5.1489,-5.1945,-5.2726,-5.3377,-5.328,-5.3863,-5.4512,-5.4512,-5.3818,-5.2153,-4.8293,-4.616,-4.3863,-3.9888,-3.76,-3.6665,-3.7736,-3.8527,-4.058,-4.5405,-4.8344,-5.1466,-5.554,-5.727,-5.832,-5.8798,-5.8954,-5.8908,-5.8731,-5.7431,-5.6707,-5.6963,-5.6615,-5.6492,-5.6707,-5.7083,-5.6862,-5.5907,-5.5294,-5.5099,-5.5286,-5.6366,-5.7094,-5.7434,-5.7489,-5.6833,-5.5541,-5.5148,-5.4284,-5.314,-5.3897,0.0,-5.1065,-5.1408,-5.0276,-4.8252,-4.7439,-4.6865,-4.6345,-4.5119,-4.5212,-4.5876,0.0,0.0,0.0,0.0,0.0,0.0,0.0,0.0,0.0,0.0,0.0,0.0,0.0,0.0,0.0,0.0,0.0,0.0,0.0,0.0,0.0,0.0,0.0,0.0,-2.4808,0.0,0.0,-2.3936,-2.3958,0.0,0.0,0.0,0.0,0.0,-2.5155,-2.5474,-2.6005,-2.6102,-2.6258,0.0,0.0,-2.8515,0.0,0.0,0.0,0.0,0.0,-3.2035,-3.3455,-3.5275,-3.8048,-4.1736,-4.7417,-4.985,-5.0769,-5.166,-5.2499,-5.3228,-5.3658,-5.4217,-5.4728,-5.4821,-5.3957,-5.1703,-4.6444,-4.4101,-4.184,-3.7476,-3.5221,-3.4632,-3.6752,-3.7072,-3.8726,-4.404,-4.6273,-4.9351,-5.5127,-5.6304,-5.7116,-5.857,-5.8731,-5.8496,-5.7938,-5.6975,-5.6438,-5.667,-5.6357,0.0,-5.6582,-5.6082,-5.5285,-5.4236,-5.4439,-5.4608,-5.4724,-5.5995,-5.6889,-5.7416,-5.7509,-5.6665,-5.5,-5.5221,-5.4337,-5.2684,-5.3645,0.0,0.0,-5.1099,-4.9875,-4.7523,-4.7491,-4.6956,-4.6141,-4.5324,-4.5639,-4.6401,0.0,0.0,0.0,0.0,0.0,0.0,0.0,0.0,0.0,0.0,0.0,0.0,0.0,0.0,0.0,0.0,0.0,0.0,0.0,0.0,0.0,0.0,0.0,0.0,0.0,0.0,0.0,-2.5057,-2.3805,0.0,0.0,0.0,0.0,0.0,0.0,-2.658,-2.6931,-2.6472,0.0,0.0,0.0,0.0,0.0,0.0,0.0,0.0,0.0,-3.1359,-3.2196,-3.4959,-3.6354,-3.7642,-4.1794,-4.5849,-4.9251,-5.0557,-5.1575,-5.2701,-5.4457,-5.5122,-5.5432,-5.5854,-5.479,-5.2458,-4.7977,-4.4366,-4.1153,-3.8397,-3.5261,-3.4232,-3.8151,-3.8187,-3.93,-4.4433,-4.4324,-4.5985,-5.2822,-5.3414,-5.4331,-5.7522,-5.7797,-5.8037,-5.8811,-5.6823,-5.6116,-5.7567,-5.6214,0.0,-5.6546,-5.5255,-5.4294,-5.3872,-5.3408,-5.3381,-5.3812,-5.5078,-5.5743,-5.5801,-5.5818,-5.4974,-5.3433,-5.4117,-5.3072,-5.0825,0.0,0.0,0.0,-5.0154,-4.8967,-4.6622,-4.6669,-4.6169,-4.5305,-4.4432,-4.5138,-4.6494,0.0,0.0,0.0,0.0,0.0,0.0,0.0,0.0,0.0,0.0,0.0,0.0,0.0,0.0,0.0,0.0,0.0,0.0,0.0,0.0,0.0,0.0,0.0,0.0,0.0,0.0,-2.6154,-2.5497,-2.5817,0.0,0.0,0.0,0.0,0.0,0.0,-2.7669,-2.8351,-2.7371,0.0,0.0,0.0,0.0,0.0,0.0,0.0,0.0,0.0,0.0,-3.214,-3.3279,-3.4418,-3.5659,-3.7239,-3.9927,-4.3226,-4.7051,-4.9301,-5.099,-5.2953,-5.4545,-5.5758,-5.5929,-5.467,-5.199,-4.6796,-4.3511,-4.0428,-3.6414,-3.4463,-3.4071,-3.6132,-3.6381,-3.747,-4.1143,-4.1439,-4.3433,-4.9883,-5.062,-5.1955,-5.5955,-5.6178,-5.6276,-5.6877,-5.5578,-5.4781,-5.5081,-5.4301,0.0,-5.4486,-5.3818,-5.3179,-5.2551,-5.2599,-5.3105,-5.4047,-5.4836,-5.5585,-5.6272,-5.6345,-5.5219,-5.3142,-5.4471,-5.344,-5.0719,-5.2373,0.0,0.0,-4.9361,-4.8175,-4.5895,-4.5831,-4.5895,-4.5862,-4.4506,-4.5064,-4.6494,0.0,0.0,0.0,0.0,0.0,0.0,0.0,0.0,0.0,0.0,0.0,0.0,0.0,0.0,0.0,0.0,0.0,0.0,0.0,0.0,0.0,0.0,0.0,0.0,0.0,0.0,-2.7078,-2.6527,-2.7221,-2.7633,0.0,0.0,-2.8739,-2.9814,0.0,0.0,0.0,0.0,0.0,0.0,0.0,0.0,0.0,0.0,0.0,0.0,0.0,0.0,0.0,0.0,0.0,-3.4147,-3.4394,-3.5594,-3.7958,-4.3345,-4.6817,-4.9406,-5.1589,-5.4109,-5.6164,-5.6302,-5.4474,-5.1285,-4.5968,-4.2653,-3.9461,-3.5152,-3.3985,-3.4111,-3.5257,-3.5474,-3.6363,-3.904,-3.9618,-4.1582,-4.695,-4.7831,-4.9341,-5.3167,-5.3592,-5.3913,-5.4794,-5.4543,-5.4047,-5.3392,-5.3114,0.0,-5.2767,-5.2623,-5.2304,-5.1708,-5.2168,-5.2822,-5.3727,-5.4336,-5.5024,-5.5809,-5.5804,-5.4712,-5.2715,-5.3945,-5.2982,-5.041,0.0,0.0,0.0,-4.8677,-4.7532,-4.5453,-4.5382,-4.5523,-4.5621,-4.4482,-4.4947,-4.6141,0.0,0.0,0.0,0.0,0.0,0.0,0.0,0.0,0.0,0.0,0.0,0.0,0.0,0.0,0.0,0.0,0.0,0.0,0.0,0.0,0.0,0.0,0.0,0.0,0.0,0.0,-2.8876,-2.8467,-2.7356,-2.7254,-2.8109,-2.8783,-2.9169,-2.932,0.0,0.0,0.0,0.0,0.0,0.0,0.0,0.0,0.0,0.0,0.0,0.0,0.0,0.0,0.0,0.0,0.0,0.0,0.0,-3.3792,-3.4677,-3.9926,-4.4367,-4.8211,-5.0885,-5.4104,-5.6801,-5.7289,-5.4477,-5.0471,-4.6086,-4.1963,-3.8241,-3.5457,-3.42,-3.4305,-3.665,-3.6419,-3.6723,-3.9195,-3.9435,-4.0563,-4.4128,-4.5047,-4.6336,-4.8941,-4.9863,-5.0997,-5.2946,-5.4015,-5.4289,-5.3562,0.0,0.0,-5.1961,-5.1783,-5.1708,-5.169,-5.2168,-5.2408,-5.2426,-5.3285,-5.3719,-5.3738,-5.3393,-5.2757,-5.1912,-5.1931,-5.1048,0.0,0.0,0.0,0.0,-4.8106,-4.704,-4.5395,-4.5395,-4.4845,-4.4039,-4.4169,-4.4678,-4.5321,0.0,0.0,0.0,0.0,0.0,0.0,0.0,0.0,0.0,0.0,0.0,0.0,0.0,0.0,0.0,0.0,0.0,0.0,0.0,0.0,0.0,0.0,0.0,0.0,0.0,0.0,-3.0327,-2.9719,-3.0471,-3.0732,-3.0505,-3.1271,-3.1655,-3.1655,-3.0689,-3.0314,0.0,0.0,0.0,0.0,0.0,0.0,0.0,0.0,0.0,0.0,0.0,0.0,0.0,0.0,0.0,0.0,0.0,0.0,0.0,-3.594,-3.9745,-4.3751,-4.5886,-4.8079,-4.9762,-4.9894,-4.8158,-4.5596,-4.2509,-4.0193,-3.7768,-3.4641,-3.4549,-3.5225,-3.5885,-3.6369,-3.7396,-3.9691,-3.9638,-4.0612,-4.4412,-4.5688,-4.734,-5.0285,-5.2564,-5.3895,-5.3841,-5.3356,-5.2972,-5.285,0.0,0.0,-5.2011,-5.1815,-5.169,-5.169,-5.1846,-5.2072,-5.2384,-5.2956,-5.3113,-5.2884,-5.3094,-5.2156,-5.0297,-5.1405,0.0,0.0,0.0,0.0,0.0,-4.7183,-4.6134,-4.4575,-4.4476,-4.4631,-4.4838,-4.4358,-4.4705,-4.5363,0.0,0.0,0.0,0.0,0.0,0.0,0.0,0.0,0.0,0.0,0.0,0.0,0.0,0.0,0.0,0.0,0.0,0.0,0.0,0.0,0.0,0.0,0.0,0.0,0.0,-3.1011,-3.12,-3.0718,-3.206,-3.2499,-3.2068,-3.2898,-3.3112,-3.2709,-3.1598,-3.0941,0.0,0.0,0.0,0.0,0.0,0.0,-3.2231,0.0,0.0,0.0,0.0,0.0,0.0,0.0,0.0,0.0,0.0,0.0,0.0,0.0,-3.6623,-3.9642,-4.2064,-4.4782,-4.6864,-4.6535,-4.4993,-4.3035,-4.1003,-3.9,-3.6978,-3.4776,-3.5446,-3.6322,-3.5928,-3.6867,-3.7941,-3.875,-3.9573,-4.0894,-4.3067,-4.4712,-4.6655,-4.9142,-5.1856,-5.346,-5.3282,-5.2862,-5.26,-5.2516,0.0,0.0,-5.2066,-5.184,-5.169,-5.169,-5.169,-5.1679,-5.1694,-5.2104,-5.2139,-5.1785,-5.1949,-5.1291,-4.9978,-5.0673,0.0,0.0,0.0,0.0,0.0,-4.6542,-4.5774,-4.5059,-4.4649,-4.5008,-4.5656,-4.4917,-4.4951,-4.5326,0.0,0.0,0.0,0.0,0.0,0.0,0.0,0.0,0.0,0.0,0.0,0.0,0.0,0.0,0.0,0.0,0.0,0.0,0.0,0.0,0.0,0.0,0.0,0.0,-3.2211,-3.1985,-3.1798,-3.1607,-3.2467,-3.289,-3.2923,-3.3773,-3.3671,-3.2761,-3.2202,-3.1443,-3.0521,-2.9385,-3.0152,-3.2097,-3.1361,-3.1884,0.0,0.0,0.0,0.0,0.0,0.0,0.0,0.0,0.0,0.0,0.0,0.0,0.0,0.0,0.0,0.0,0.0,-4.3347,-4.6734,-4.591,-4.401,-4.2017,-4.0833,-3.8275,0.0,-3.5737,-3.6738,-3.749,-3.6797,-3.7923,-3.8499,-3.7009,-3.9482,-4.1388,-4.0889,-4.2982,-4.5094,-4.6469,-4.8894,-5.0754,-5.1586,-5.2588,-5.302,0.0,0.0,0.0,-5.2102,-5.184,-5.1697,-5.1619,-5.1601,-5.1262,-5.0513,-5.0911,-5.0875,-5.0417,-5.0213,-5.0213,-5.0426,-4.9715,0.0,0.0,0.0,0.0,0.0,-4.6162,-4.5898,-4.644,-4.5672,-4.5807,-4.6325,-4.5642,-4.531,-4.5133,0.0,0.0,0.0,0.0,0.0,0.0,0.0,0.0,0.0,0.0,0.0,0.0,0.0,0.0,0.0,0.0,0.0,0.0,0.0,0.0,0.0,0.0,0.0,0.0,-3.2875,-3.3414,-3.3716,-3.3771,-3.3786,-3.3831,-3.3871,-3.4513,-3.443,-3.3747,-3.3519,-3.2719,-3.1579,-3.1691,-3.2082,-3.2645,-3.2764,-3.2931,0.0,0.0,0.0,0.0,-3.29,-3.29,0.0,0.0,0.0,0.0,0.0,0.0,0.0,0.0,-3.4331,-3.5527,-3.5638,0.0,-3.9247,-3.9031,-3.8366,-3.77,0.0,-3.6948,-3.6701,-3.7154,-3.7918,-3.8477,-3.8287,-3.9549,-4.0351,-3.9556,-4.1054,-4.269,-4.3728,-4.6928,-4.9135,-4.9078,-5.1768,-5.3015,-5.1544,-5.2487,-5.3138,0.0,0.0,-5.2198,-5.2102,-5.1956,-5.1522,-5.0798,-5.078,-5.0691,-5.0513,-5.0353,-4.9783,-4.8763,-4.9658,-4.9318,-4.7875,-4.8307,0.0,0.0,0.0,0.0,-4.6127,-4.6262,-4.6052,-4.5653,-4.6064,-4.5955,-4.5563,-4.5438,-4.5003,-4.4522,0.0,0.0,0.0,0.0,0.0,0.0,0.0,0.0,0.0,0.0,0.0,0.0,0.0,0.0,0.0,0.0,0.0,0.0,0.0,0.0,0.0,0.0,0.0,-3.4192,-3.3788,-3.4093,-3.4298,-3.4413,-3.4682,-3.4647,-3.4347,-3.5045,-3.4952,-3.4166,-3.3741,-3.338,-3.306,-3.2585,-3.2841,-3.3557,-3.3285,0.0,0.0,0.0,0.0,0.0,-3.3309,-3.3205,0.0,-3.3147,-3.3104,-3.2979,0.0,0.0,0.0,0.0,-3.3888,-3.4813,-3.4367,-3.5994,-3.7825,-3.7809,-3.7614,-3.7485,-3.7784,-3.7277,-3.7059,-3.8132,-3.8604,-3.8855,-3.8894,-4.0155,-4.1005,-4.0407,-4.188,-4.3792,-4.5789,-4.7908,-4.9407,-4.9767,-5.1343,-5.2235,0.0,-5.306,0.0,0.0,0.0,-5.2461,-5.212,-5.1622,-5.1106,-5.053,-4.9799,-4.9442,-4.9442,-4.9264,-4.8555,-4.7392,-4.8623,-4.8355,-4.6763,-4.7759,-4.7763,0.0,0.0,0.0,-4.6044,-4.6028,-4.6171,-4.6438,-4.6884,-4.6773,-4.6417,-4.6432,-4.5962,-4.5273,0.0,0.0,0.0,0.0,0.0,0.0,0.0,0.0,0.0,0.0,0.0,0.0,0.0,0.0,0.0,0.0,0.0,0.0,0.0,0.0,0.0,0.0,0.0,-3.4655,-3.4655,-3.442,-3.4337,-3.4401,-3.5173,-3.5203,-3.4558,-3.5518,-3.5525,-3.4664,-3.3758,-3.3795,-3.4434,-3.2986,-3.3216,-3.4451,-3.3464,0.0,0.0,0.0,0.0,0.0,0.0,0.0,0.0,-3.352,-3.3331,-3.3073,-3.3057,0.0,0.0,0.0,0.0,0.0,-3.4435,-3.6854,-3.9283,-3.9121,-3.8939,-3.8967,-3.9558,-3.8197,-3.7298,-3.9011,-3.9295,-3.9308,-3.9512,-4.0866,-4.1621,-4.0656,-4.2556,-4.5033,-4.7432,-4.8115,-4.8695,-4.9565,-5.0179,0.0,-5.2218,0.0,0.0,0.0,0.0,-5.2243,-5.1736,-5.0982,-5.0456,-5.0162,-4.89,-4.815,-4.802,-4.802,-4.746,-4.6416,-4.743,-4.7353,-4.6333,-4.7239,-4.7319,0.0,0.0,0.0,-4.6473,-4.5906,-4.6473,-4.7701,-4.785,-4.7813,-4.7701,-4.7701,-4.7181,-4.6399,0.0,0.0,0.0,0.0,0.0,0.0,0.0,0.0,0.0,0.0,0.0,0.0,0.0,0.0,0.0,0.0,0.0,0.0,0.0,0.0,0.0,-3.4908,-3.4879,-3.4841,-3.4841,-3.4812,-3.4821,-3.4879,-3.4865,-3.4785,-3.4691,-3.6148,-3.6707,-3.6449,-3.513,-3.4588,-3.4647,-3.4277,-3.432,-3.4632,-3.4132,0.0,0.0,0.0,0.0,0.0,0.0,0.0,0.0,-3.3753,-3.3601,-3.3404,-3.3294,0.0,0.0,0.0,0.0,0.0,-3.5034,-3.7542,-3.9801,-3.91,-3.8866,-3.8949,-3.9483,-3.8236,-3.7734,-4.046,-4.0946,-4.1093,-4.1899,-4.3807,-4.4432,-4.1818,-4.4226,-4.7108,-4.9074,-5.0729,-5.1198,-4.9703,0.0,-5.376,-5.22,0.0,0.0,0.0,0.0,0.0,0.0,-4.9986,-4.9608,-4.866,-4.8409,-4.7934,-4.7176,-4.7176,-4.6918,-4.6409,-4.6583,-4.6387,-4.5882,-4.5382,-4.5273,0.0,0.0,-4.535,-4.5779,-4.6938,-4.7527,-4.7776,-4.8444,-4.8296,-4.7701,-4.7701,-4.7181,-4.6415,0.0,0.0,0.0,0.0,0.0,0.0,0.0,0.0,0.0,0.0,0.0,0.0,0.0,0.0,0.0,0.0,0.0,0.0,0.0,0.0,0.0,-3.5176,-3.5105,-3.5019,-3.4889,-3.4908,-3.4945,-3.5038,-3.4955,-3.4936,-3.4974,-3.5626,-3.5905,-3.5847,-3.5191,-3.4908,-3.4908,-3.4859,-3.486,-3.4898,0.0,0.0,0.0,0.0,0.0,0.0,0.0,0.0,0.0,0.0,-3.3881,-3.3671,-3.3394,0.0,0.0,0.0,0.0,0.0,-3.3997,-3.5854,-3.8115,-3.9745,-4.076,-4.156,-4.2331,-4.0732,-3.9808,-4.2423,-4.1187,-4.0359,-4.2754,-4.3726,-4.4537,-4.566,-4.8425,-5.0466,-5.0655,-5.0861,-5.0746,0.0,0.0,-5.2197,0.0,0.0,0.0,0.0,0.0,0.0,0.0,0.0,-4.8834,-4.8325,-4.7913,-4.7277,-4.6355,-4.6355,-4.6034,-4.5444,-4.6094,-4.5627,-4.4181,-4.4473,-4.4586,-4.4562,0.0,-4.5518,-4.6274,-4.7362,-4.8062,-4.8494,-4.8777,-4.8407,-4.7701,-4.7701,-4.7248,-4.668,0.0,0.0,0.0,0.0,0.0,0.0,0.0,0.0,0.0,0.0,0.0,0.0,0.0,0.0,0.0,0.0,0.0,0.0,0.0,0.0,-3.5398,-3.5398,-3.5304,-3.5166,-3.4963,-3.4917,-3.4945,-3.5038,-3.5084,-3.5233,-3.5503,-3.5179,-3.502,-3.502,-3.4811,-3.4753,-3.4789,-3.4807,-3.4893,-3.5066,0.0,0.0,0.0,0.0,0.0,0.0,0.0,0.0,0.0,0.0,0.0,0.0,0.0,0.0,0.0,-3.307,-3.2979,-3.3001,-3.3228,-3.4557,-3.6619,-3.9695,-4.1196,-4.2591,-4.5129,-4.2932,-4.126,-4.4458,-4.2369,-4.0863,-4.3804,-4.3833,-4.4673,-4.8435,-5.1138,-5.2579,-5.2053,-5.1077,-5.0527,-5.0791,-5.0854,0.0,0.0,0.0,0.0,0.0,0.0,0.0,0.0,0.0,-4.8142,-4.8129,-4.7371,-4.6623,-4.5864,-4.5624,-4.5213,-4.4624,-4.5363,-4.4752,-4.3001,-4.3723,-4.394,-4.3765,-4.4528,-4.5397,-4.6307,-4.6997,-4.7834,-4.8684,-4.8525,-4.8282,-4.798,-4.798,-4.7655,-4.7343,0.0,0.0,0.0,0.0,0.0,0.0,0.0,0.0,0.0,0.0,0.0,0.0,0.0,0.0,0.0,0.0,0.0,0.0,0.0,0.0,-3.5398,-3.5398,-3.5391,-3.5326,-3.5174,-3.5001,-3.4889,-3.4917,-3.5029,-3.5555,-3.6396,-3.5508,-3.5084,-3.5073,-3.4255,-3.3887,-3.389,-3.3895,-3.4324,-3.5001,-3.486,0.0,0.0,0.0,0.0,0.0,0.0,0.0,0.0,0.0,0.0,0.0,0.0,0.0,-3.3235,-3.3262,-3.3055,-3.2998,-3.389,-3.5248,-3.6734,-3.7932,-3.7751,-3.9121,-4.6185,-4.3251,-4.0667,-4.6383,-4.613,-4.5158,-4.6028,-4.6042,-4.6351,-4.7537,-4.946,-5.1405,-5.3207,0.0,-5.238,-5.2089,-5.1861,0.0,0.0,0.0,0.0,0.0,0.0,0.0,0.0,0.0,0.0,-4.754,-4.6715,-4.6176,-4.5974,-4.5114,-4.4656,-4.4585,-4.3986,-4.3614,-4.3435,-4.2762,-4.2629,-4.294,-4.3812,-4.4363,-4.471,-4.5462,-4.6416,-4.7426,-4.7279,-4.7885,-4.8816,-4.8816,-4.8779,-4.8536,0.0,0.0,0.0,0.0,0.0,0.0,0.0,0.0,0.0,0.0,0.0,0.0,0.0,0.0,0.0,0.0,0.0,0.0,0.0,-3.3871,-3.4095,-3.4095,-3.4491,-3.4698,-3.4642,-3.5549,-3.5756,-3.5216,-3.5227,-3.5403,-3.5733,-3.4755,-3.4288,-3.4277,-3.3961,-3.3809,-3.383,-3.438,-3.4744,-3.4927,-3.4849,-3.4749,0.0,0.0,0.0,0.0,0.0,0.0,0.0,0.0,-3.4528,-3.4427,-3.4257,-3.403,-3.3738,-3.335,-3.3175,-3.314,-3.3289,-3.4214,-3.58,-3.86,-3.7664,-3.7859,-4.4751,-4.4713,-4.405,-4.7104,-4.6968,-4.6035,-4.5246,-4.7021,-4.8571,-4.8319,-5.0302,-5.1987,-5.2438,-5.1966,-5.1332,-5.0626,0.0,0.0,0.0,0.0,0.0,0.0,0.0,0.0,0.0,0.0,0.0,-4.6011,-4.5701,-4.5222,-4.465,-4.4202,-4.3745,-4.3298,-4.3432,-4.3251,-4.2733,-4.243,-4.2476,-4.2846,-4.3735,-4.4289,-4.4655,-4.5901,-4.6652,-4.7058,-4.7132,-4.7867,-4.8779,-4.7776,-4.7754,-4.8122,0.0,0.0,0.0,0.0,0.0,0.0,0.0,0.0,0.0,0.0,0.0,0.0,0.0,0.0,0.0,0.0,0.0,0.0,-3.3054,-3.3729,-3.3973,-3.3682,-3.4123,-3.4241,-3.3984,-3.5579,-3.6074,-3.5393,-3.5314,-3.5274,-3.5281,-3.4554,-3.4059,-3.3793,-3.3809,-3.3807,-3.3872,-3.4456,-3.4774,-3.4898,-3.4839,-3.4716,0.0,0.0,0.0,0.0,0.0,0.0,0.0,0.0,-3.4612,-3.4561,-3.4374,-3.4257,-3.4055,-3.349,-3.3487,-3.3566,-3.3243,-3.3879,-3.5406,-3.8563,-3.799,-3.8168,-4.3937,-4.5047,-4.5546,-4.808,-4.7926,-4.6954,-4.5648,-4.7477,-4.895,-4.8233,-5.0145,-5.1653,-5.1366,-5.1066,-5.0504,0.0,0.0,0.0,0.0,0.0,0.0,0.0,0.0,0.0,0.0,0.0,0.0,0.0,-4.4836,-4.4457,-4.3874,-4.3483,-4.3007,-4.2521,-4.2977,-4.2882,-4.2308,-4.2308,-4.2434,-4.2673,-4.3269,-4.3661,-4.3943,-4.4975,-4.5594,-4.5966,-4.6581,-4.7331,-4.793,-4.6886,-4.6878,-4.7371,0.0,0.0,0.0,0.0,0.0,0.0,0.0,0.0,0.0,0.0,0.0,0.0,0.0,0.0,0.0,0.0,0.0,0.0,-3.3103,-3.4781,-3.5391,-3.454,-3.4501,-3.4128,-3.3332,-3.494,-3.5664,-3.5405,-3.5258,-3.5232,-3.5289,-3.5141,-3.4617,-3.3798,-3.3817,-3.3843,-3.3895,-3.3849,-3.4253,-3.4898,-3.4839,-3.4676,-3.4495,0.0,0.0,0.0,0.0,0.0,0.0,0.0,-3.4602,-3.4612,-3.4612,-3.4381,-3.4049,-3.3725,-3.4,-3.4335,-3.4012,-3.4634,-3.5787,-3.7327,-3.8312,-4.0023,-4.4208,-4.3966,-4.4276,-4.9434,-4.9415,-4.8342,-4.7875,-4.7455,-4.7109,-4.6826,-4.8548,-4.9966,-5.0239,-5.0629,0.0,0.0,0.0,0.0,0.0,0.0,0.0,0.0,0.0,0.0,0.0,0.0,0.0,0.0,-4.427,-4.3992,-4.3974,-4.3044,-4.2568,-4.2483,-4.2483,-4.2425,-4.2308,-4.2308,-4.2308,-4.2308,-4.2308,-4.2308,-4.2287,-4.2163,-4.2775,-4.3951,-4.5407,-4.606,-4.6201,-4.639,-4.6506,-4.6475,0.0,0.0,0.0,0.0,0.0,0.0,0.0,0.0,0.0,0.0,0.0,0.0,0.0,0.0,0.0,0.0,0.0,0.0,-3.3054,-3.3691,-3.3934,-3.3662,-3.421,-3.4385,-3.4148,-3.4633,-3.5152,-3.5674,-3.4925,-3.4576,-3.4582,-3.3877,-3.3673,-3.3936,-3.5203,-3.5024,-3.3872,-3.56,-3.5751,-3.481,-3.4708,-3.4602,-3.4495,0.0,0.0,0.0,0.0,0.0,0.0,0.0,0.0,0.0,-3.4612,-3.4959,-3.5335,-3.52,-3.5389,-3.5502,-3.4813,-3.5419,-3.6485,-3.7506,-3.919,-4.1094,-4.3063,-4.4523,-4.6411,-4.9758,-4.8481,-4.667,-4.6186,-4.7025,-4.7306,-4.5901,-4.7169,-4.84,-4.8513,-4.8643,0.0,0.0,0.0,0.0,0.0,0.0,0.0,0.0,0.0,0.0,0.0,0.0,0.0,0.0,-4.3701,-4.3425,-4.2808,-4.2613,-4.2407,-4.2225,-4.2121,-4.2163,-4.2308,-4.2308,-4.2308,-4.2308,-4.2308,-4.2308,-4.2341,-4.287,-4.3739,-4.4696,-4.4571,-4.4839,-4.5173,-4.4342,-4.4298,-4.4566,0.0,0.0,0.0,0.0,0.0,0.0,0.0,0.0,0.0,0.0,-3.2534,-3.1769,0.0,0.0,0.0,0.0,0.0,0.0,0.0,-3.4068,-3.4152,-3.3829,-3.428,-3.4536,-3.4544,-3.4194,-3.4439,-3.5325,-3.4284,-3.3953,-3.4301,-3.3691,-3.3972,-3.5017,-3.6121,-3.5903,-3.4831,-3.6302,-3.609,-3.4788,-3.4634,-3.4517,-3.4461,0.0,0.0,0.0,0.0,0.0,0.0,0.0,0.0,0.0,-3.4183,-3.5113,-3.6159,-3.5192,-3.5989,-3.6964,-3.6166,-3.6702,-3.7918,-3.9674,-4.1178,-4.2537,-4.3774,-4.5348,-4.7247,-4.9832,-4.8318,-4.6612,-4.6851,-4.7134,-4.703,-4.6093,-4.6977,-4.7682,-4.7392,0.0,0.0,0.0,0.0,0.0,0.0,0.0,0.0,0.0,0.0,0.0,0.0,0.0,0.0,0.0,-4.2779,-4.2712,-4.2308,-4.2267,-4.2205,-4.2103,-4.1598,-4.1495,-4.17,-4.2021,-4.2026,-4.1805,-4.1805,-4.1805,-4.1841,-4.2002,-4.2642,-4.3472,-4.3123,-4.3249,-4.3556,-4.2868,-4.2625,-4.2638,0.0,0.0,0.0,0.0,0.0,0.0,0.0,0.0,0.0,0.0,-3.301,-3.2397,0.0,0.0,0.0,0.0,0.0,0.0,0.0,0.0,-3.5477,-3.4742,-3.4726,-3.4717,-3.4714,-3.38,-3.3732,-3.4609,-3.3455,-3.3393,-3.4316,-3.4176,-3.4982,-3.65,-3.6653,-3.6517,-3.6159,-3.6264,-3.5748,-3.486,-3.4599,-3.4499,-3.4486,-3.4354,0.0,0.0,0.0,0.0,0.0,0.0,0.0,0.0,-3.363,-3.5001,-3.6496,-3.4522,-3.6139,-3.8442,-3.7829,-3.831,-3.9691,-4.2559,-4.3426,-4.4009,-4.5761,-4.6239,-4.6975,-4.9379,-4.8315,-4.7341,-4.8612,-4.7417,-4.6377,-4.6865,-4.7342,-4.74,-4.6636,0.0,0.0,0.0,0.0,0.0,0.0,0.0,0.0,0.0,0.0,0.0,0.0,0.0,0.0,0.0,-4.1789,-4.2034,-4.2205,-4.1984,-4.192,0.0,-4.1054,-4.0641,-4.0798,-4.1488,-4.1543,-4.1092,-4.1092,-4.1056,-4.0931,-4.0198,-4.0342,-4.1004,-4.1315,-4.1468,-4.1506,-4.1723,-4.1316,-4.0698,0.0,0.0,0.0,0.0,0.0,0.0,0.0,0.0,0.0,0.0,0.0,0.0,0.0,0.0,0.0,0.0,0.0,0.0,0.0,0.0,-3.5725,-3.5554,-3.5592,-3.5626,-3.5629,-3.4092,-3.3732,-3.4609,-3.3009,-3.2986,-3.443,-3.3792,-3.4267,-3.5717,-3.7091,-3.6703,-3.5119,-3.6482,-3.647,-3.5439,-3.47,-3.4785,-3.5267,-3.4565,-3.4257,0.0,0.0,0.0,0.0,0.0,0.0,0.0,-3.4278,-3.5041,-3.6074,-3.6519,-3.7518,-3.8488,-3.8706,-3.9226,-3.9863,-4.0659,-4.2078,-4.4,-4.6777,-4.6418,-4.5693,-4.6447,-4.5708,-4.5184,-4.6043,-4.5867,-4.5635,-4.5761,-4.5816,-4.5671,-4.5217,0.0,0.0,0.0,0.0,0.0,0.0,0.0,0.0,0.0,0.0,0.0,0.0,0.0,0.0,-4.2061,-4.23,-4.2134,-4.1436,-4.1587,-4.1569,0.0,-4.0683,-4.0403,-4.0489,-4.0877,-4.1067,-4.1092,-4.1092,-4.0753,-4.0126,-3.9966,-3.9984,-4.0164,-4.0241,-4.0074,-3.9841,-4.016,-3.9607,-3.8816,0.0,0.0,0.0,0.0,0.0,0.0,0.0,0.0,0.0,0.0,0.0,0.0,0.0,0.0,0.0,0.0,0.0,0.0,0.0,0.0,-3.5815,-3.5856,-3.5876,-3.5905,-3.5905,-3.4594,-3.4348,-3.5226,-3.3472,-3.3287,-3.4536,-3.4124,-3.4733,-3.6194,-3.6986,-3.6391,-3.4917,-3.6122,-3.5821,-3.4536,-3.4469,-3.4678,-3.4974,-3.4491,-3.4328,-3.4363,-3.4245,0.0,0.0,0.0,0.0,0.0,0.0,0.0,-3.6261,-3.6357,-3.7499,-3.8655,-3.8556,-3.9409,-4.0671,-4.2085,-4.3551,-4.5017,-4.6499,-4.5878,-4.4875,-4.4598,-4.4699,-4.4966,-4.5457,-4.4935,-4.4446,-4.4446,-4.4119,-4.3771,0.0,0.0,0.0,0.0,0.0,0.0,0.0,0.0,0.0,0.0,0.0,0.0,0.0,-4.2272,-4.2176,-4.1689,-4.1835,-4.1719,-4.1295,-4.1335,-4.1312,-4.1192,-4.0051,-3.9412,-3.9319,-4.004,-4.0439,-4.0521,-4.0164,-3.9771,-3.9342,-3.8968,-3.904,-3.936,-3.936,-3.9242,-3.9067,-3.9254,-3.8704,-3.7986,0.0,0.0,0.0,0.0,0.0,0.0,0.0,0.0,0.0,0.0,0.0,0.0,0.0,0.0,0.0,0.0,0.0,0.0,0.0,0.0,0.0,0.0,-3.5903,-3.5908,-3.5906,-3.5057,-3.5022,-3.5901,-3.4299,-3.4276,-3.5709,-3.5258,-3.5818,-3.7186,-3.6775,-3.5902,-3.4779,-3.5121,-3.4545,-3.3507,-3.4031,-3.4297,-3.4333,-3.4155,-3.4098,-3.4148,-3.3929,-3.4205,-3.4623,-3.424,0.0,0.0,0.0,0.0,-3.6659,-3.5734,-3.7124,-3.8811,-3.815,-3.9404,-4.1506,-4.4147,-4.5117,-4.5449,-4.5547,-4.491,-4.4141,-4.3568,-4.4198,-4.4923,-4.5083,-4.4079,-4.3189,-4.3189,-4.2692,-4.2226,0.0,0.0,0.0,0.0,0.0,0.0,0.0,0.0,0.0,0.0,0.0,0.0,-4.0297,-4.0769,-4.107,-4.107,-4.1129,-4.1226,-4.1335,-4.1186,-4.1123,-4.1163,-3.9737,-3.8725,-3.8169,-3.9305,-3.9804,-3.9681,-3.9056,-3.8736,-3.854,-3.7862,-3.7987,-3.8611,-3.8754,-3.8736,-3.8611,-3.8754,-3.829,-3.7703,0.0,0.0,0.0,0.0,0.0,0.0,0.0,0.0,0.0,0.0,-3.477,-3.4538,0.0,0.0,0.0,0.0,0.0,0.0,0.0,0.0,0.0,-3.5908,-3.5903,-3.5903,-3.5891,-3.5051,-3.5022,-3.5901,-3.4908,-3.6393,-4.0107,-3.789,-3.7288,-3.8003,-3.7032,-3.5561,-3.3741,-3.2945,-3.3175,-3.4041,-3.3499,-3.3655,-3.4147,-3.3441,-3.2877,-3.2441,-3.2381,-3.2984,-3.3753,-3.3696,-3.467,0.0,0.0,0.0,-3.6921,-3.6665,-3.7604,-3.8676,-3.8346,-3.9715,-4.1672,-4.3508,-4.3182,-4.2753,-4.424,-4.3617,-4.2881,-4.3515,-4.3168,-4.2716,-4.2743,-4.2574,-4.2439,-4.2439,-4.2354,0.0,0.0,0.0,0.0,0.0,0.0,0.0,0.0,0.0,0.0,0.0,0.0,0.0,-4.0045,-4.0597,-4.0935,-4.0935,-4.0935,-4.1006,-4.114,-4.1117,-4.1093,-4.1117,-4.0926,-3.9949,-3.8305,-3.9221,-3.938,-3.895,-3.8825,-3.8397,-3.7755,-3.7648,-3.7666,-3.7845,-3.854,-3.838,-3.7845,-3.854,-3.829,-3.7703,0.0,0.0,0.0,0.0,0.0,0.0,0.0,0.0,0.0,0.0,0.0,-3.5187,0.0,0.0,0.0,0.0,0.0,0.0,0.0,0.0,0.0,-3.5905,-3.5894,-3.5894,-3.5908,-3.5528,-3.5493,-3.5841,-3.5017,-3.7055,-4.1696,-4.0084,-3.9747,-4.0461,-3.9767,-3.7333,-3.38,-3.414,-3.3752,-3.2929,-3.3138,-3.3941,-3.4901,-3.3562,-3.3307,-3.3525,-3.2473,-3.257,-3.3245,-3.3513,-3.4157,-3.5066,-3.6179,0.0,0.0,0.0,-3.7477,-3.8529,-3.9543,-3.9981,-4.076,-4.3204,-4.2642,-4.2024,-4.397,-4.3213,-4.2281,-4.2945,-4.2427,-4.2026,-4.2595,-4.2141,-4.1677,-4.1677,-4.1322,0.0,0.0,0.0,0.0,0.0,0.0,0.0,0.0,0.0,0.0,0.0,0.0,-3.9417,-3.8863,-3.9908,-4.0367,-4.0068,-4.0723,-4.1082,-4.1093,-4.1093,-4.0845,-4.0326,-4.0354,-3.9613,-3.8189,-3.8584,-3.8536,-3.813,-3.813,-3.7934,-3.7595,-3.7595,-3.7595,-3.7648,-3.7987,-3.8183,-3.8255,-3.8148,-3.8183,-3.8275,0.0,0.0,0.0,0.0,0.0,0.0,0.0,0.0,0.0,0.0,0.0,0.0,0.0,0.0,0.0,0.0,0.0,0.0,0.0,0.0,0.0,-3.5872,-3.5882,-3.5882,-3.5872,-3.5885,-3.5872,-3.5807,-3.5208,-3.7444,-4.2296,-4.1859,-4.2342,-4.3545,-4.2298,-3.941,-3.5522,-3.5875,-3.4921,-3.3209,-3.3923,-3.467,-3.5198,-3.4125,-3.4164,-3.4594,-3.3042,-3.276,-3.3163,-3.3361,-3.3813,-3.4565,-3.6071,-3.6519,0.0,0.0,0.0,-3.8243,-3.9994,-3.9962,-3.9929,-4.2209,-4.1807,-4.1352,-4.301,-4.2442,-4.1698,-4.2228,-4.1982,-4.1917,-4.266,-4.1871,-4.1053,-4.0942,-4.0468,0.0,0.0,0.0,0.0,0.0,0.0,0.0,0.0,0.0,0.0,0.0,0.0,-3.8821,-3.791,-3.9084,-3.9651,-3.9358,-4.0227,-4.0828,-4.1093,-4.1093,-4.0753,-4.0055,-4.0014,-3.9428,-3.8371,-3.8371,-3.8208,-3.788,-3.7702,-3.7595,-3.7595,-3.7595,-3.7595,-3.7648,-3.8023,-3.8433,-3.8754,-3.8344,-3.8451,-3.872,0.0,0.0,0.0,0.0,0.0,0.0,0.0,0.0,0.0,0.0,0.0,0.0,-3.5704,-3.5692,-3.5698,-3.5704,-3.577,0.0,0.0,0.0,0.0,-3.5811,-3.5869,0.0,-3.5811,-3.5872,-3.5872,-3.5807,-3.5768,-3.7988,-4.231,-4.3109,-4.4775,-4.6988,-4.3466,-4.1135,-3.9714,-3.7176,-3.626,-3.6547,-3.6659,-3.5733,-3.4358,-3.5101,-3.5023,-3.4433,-3.3771,-3.3624,-3.3673,-3.3126,-3.4032,-3.5405,-3.5319,-3.6748,-3.8252,0.0,0.0,0.0,-3.8726,-3.9328,-3.9723,-3.9873,-3.9853,-3.9932,-4.0546,-4.0637,-4.0781,-4.1501,-4.1914,-4.2192,-4.2222,-4.1453,-4.068,-4.0222,-4.013,0.0,0.0,0.0,0.0,0.0,0.0,0.0,0.0,0.0,0.0,0.0,0.0,-3.8891,-3.7767,-3.8317,-3.8857,-3.919,-3.9272,-3.9887,-4.1093,-4.1093,-4.1076,-4.1018,-4.0907,-4.0243,-3.9122,-3.9122,-3.8982,-3.8701,-3.7916,-3.7595,-3.7595,-3.7595,-3.7595,-3.7755,-3.9218,-3.9377,-3.8878,-3.9557,-3.9342,-3.872,0.0,0.0,0.0,0.0,0.0,0.0,0.0,0.0,0.0,0.0,0.0,0.0,0.0,-3.5692,-3.5698,-3.5704,-3.576,0.0,0.0,0.0,0.0,-3.5807,-3.5856,-3.5885,-3.5868,-3.5898,-3.5619,-3.5033,-3.4474,-3.6126,-3.9785,-3.9586,-4.1132,-4.4126,-4.552,-4.365,-3.9418,-3.949,-3.7545,-3.4614,-3.6838,-3.7013,-3.595,-3.623,-3.6643,-3.6798,-3.4875,-3.4405,-3.4676,-3.4461,-3.4537,-3.4777,-3.5105,-3.6523,-3.8156,-3.8497,-3.8202,-3.7867,-3.8579,-3.8526,-3.8524,-3.9527,-3.8869,-3.8462,-4.0385,-4.0721,-4.0725,-4.1015,-4.1651,-4.1885,-4.1081,-4.084,-4.0576,-3.9945,-3.9581,0.0,0.0,0.0,0.0,0.0,0.0,0.0,0.0,0.0,0.0,0.0,0.0,0.0,-3.639,-3.6964,-3.7552,-3.8082,-3.9289,-4.0236,-4.0959,-4.0959,-4.0959,-4.0959,-4.0574,-4.0,-3.9335,-3.8964,-3.8525,-3.8023,-3.7774,-3.8203,-3.9075,-3.9075,-3.9075,-3.9129,-3.9681,-3.9734,-3.9467,-3.9253,-3.904,-3.8702,0.0,0.0,0.0,0.0,0.0,0.0,0.0,0.0,0.0,-3.5704,0.0,0.0,0.0,0.0,-3.5702,-3.5694,-3.576,-3.5801,-3.5801,-3.5799,-3.5792,-3.5807,-3.5856,-3.5908,-3.5901,-3.5901,-3.5619,-3.4994,-3.4147,-3.5185,-3.7957,-3.7715,-3.9105,-4.192,-4.4702,-4.3974,-4.0724,-4.2078,-4.0263,-3.6664,-3.8646,-3.8914,-3.8133,-3.8361,-3.8552,-3.8556,-3.7389,-3.6522,-3.5984,-3.6323,-3.5881,-3.5244,-3.5635,-3.6458,-3.7458,-3.8395,-3.8303,-3.7867,-3.7711,-3.765,-3.7909,-3.8947,-3.8242,-3.7809,-3.9793,-4.054,-4.0736,-4.0324,-4.1429,-4.2103,-4.0944,-4.0851,-4.0603,-3.9524,-3.9048,0.0,0.0,0.0,0.0,0.0,0.0,0.0,0.0,0.0,0.0,0.0,0.0,0.0,-3.5955,-3.6516,-3.7152,-3.7844,-3.9453,-4.0485,-4.0912,-4.0912,-4.0797,-4.0562,-4.0266,-3.9752,-3.9068,-3.9,-3.8623,-3.8023,-3.8597,-3.8917,-3.909,-3.9413,-3.952,-3.9574,-4.0091,-4.0126,-3.9841,-3.9342,-3.9003,-3.8683,0.0,0.0,0.0,0.0,0.0,0.0,0.0,0.0,-3.5704,-3.5704,0.0,0.0,0.0,0.0,0.0,-3.5707,-3.5752,-3.5799,-3.5799,-3.5803,-3.5803,-3.5803,0.0,0.0,-3.5901,-3.5901,-3.5852,-3.5768,-3.4975,-3.5426,-3.7043,-3.7898,-3.9198,-4.0807,-4.0825,-4.1866,-4.3722,-4.4614,-4.4206,-4.2907,-4.2243,-4.1338,-4.0491,-4.139,-4.0658,-3.9347,-4.122,-3.9979,-3.7633,-3.863,-3.8059,-3.6939,-3.692,-3.6569,-3.6274,-3.6861,-3.7442,-3.7567,0.0,0.0,0.0,-3.7944,-3.7873,-3.7974,-3.8519,-3.9861,-4.065,-3.9389,-4.1234,-4.2777,-4.1869,-4.1375,-4.0586,-3.8932,-3.8572,0.0,0.0,0.0,0.0,0.0,0.0,0.0,0.0,0.0,0.0,0.0,0.0,-3.7586,-3.661,-3.7064,-3.7713,-3.8614,-3.9715,-4.0485,-4.0877,-4.0877,-4.0527,-3.9881,-4.003,-3.9491,-3.839,-3.9217,-3.9281,-3.8807,-4.0342,-3.9642,-3.7482,-3.8484,-3.8879,-3.9004,-4.0538,-4.0628,-3.9859,-3.9877,-3.9413,-3.8665,0.0,0.0,0.0,0.0,0.0,0.0,-3.5704,-3.5704,-3.5704,0.0,0.0,0.0,-3.5704,-3.5706,-3.5697,-3.5707,-3.5718,-3.5742,-3.5799,-3.5793,-3.5806,-3.5803,-3.5868,-3.5905,-3.5901,-3.5895,-3.558,-3.4938,-3.471,-3.4842,-3.529,-3.5541,-3.5877,-3.6373,-3.821,-3.8523,-3.7896,-4.1065,-4.0378,-3.751,-4.1974,-4.1424,-3.8245,-4.1548,-4.1348,-3.9538,-4.1212,-4.0757,-3.9471,-4.0339,-3.9399,-3.7736,-3.7104,-3.6272,-3.578,-3.7005,-3.775,-3.7797,-3.6013,0.0,0.0,0.0,0.0,0.0,-3.7129,-3.786,-3.8269,-3.7972,-3.8855,-3.9657,-3.9455,-3.9284,-3.892,-3.8166,-3.8091,0.0,0.0,0.0,0.0,0.0,0.0,0.0,0.0,0.0,0.0,0.0,-3.5807,-3.5507,-3.6067,-3.715,-3.8213,-3.9292,-3.9969,-4.0253,-4.0176,-4.0072,-3.9738,-3.9177,-3.8238,-3.7712,-3.7542,-3.7376,-3.7201,-3.704,-3.8149,-3.8128,-3.7548,-4.023,-4.0646,-3.9734,-4.1341,-4.0788,-3.9163,-3.9698,-3.9058,-3.7898,0.0,0.0,0.0,0.0,0.0,-3.5704,-3.5704,-3.5704,-3.5704,0.0,0.0,0.0,-3.5704,-3.5701,-3.5692,-3.5692,-3.5693,-3.5718,-3.5752,-3.578,-3.5806,-3.5807,-3.5852,-3.5895,-3.5901,-3.5905,-3.5648,-3.5133,-3.4786,-3.4772,-3.5092,-3.4726,-3.4727,-3.5085,-3.6178,-3.6024,-3.5085,-3.764,-3.8213,-3.7683,-4.1055,-4.1469,-4.0304,-4.2758,-4.2338,-4.0656,-4.2637,-4.241,-4.1312,-4.2484,-4.1272,-3.9127,-3.8257,-3.7,-3.6086,-3.7305,-3.8042,-3.8066,-3.6166,-3.6538,-3.7317,-3.6863,0.0,0.0,-3.6715,-3.7492,-3.7945,0.0,-3.8457,-3.9248,-3.8443,-3.8269,-3.8061,-3.7513,-3.772,0.0,0.0,0.0,0.0,0.0,0.0,0.0,0.0,0.0,0.0,-3.6282,-3.553,-3.5545,-3.6585,-3.738,-3.8365,-3.9551,-3.9859,-3.9971,-3.9893,-3.983,-3.9339,-3.8438,-3.7471,-3.711,-3.7264,-3.7022,-3.6916,-3.7041,-3.815,-3.8165,-3.7681,-4.0329,-4.0831,-3.9984,-4.0931,-4.0467,-3.927,-3.9395,-3.8665,-3.7595,0.0,0.0,0.0,-3.5684,-3.5704,-3.5704,-3.5704,-3.5704,-3.5704,0.0,-3.5704,-3.5704,-3.5704,-3.5704,-3.5704,-3.5704,-3.5711,-3.5702,-3.5707,-3.5751,-3.5795,-3.5795,-3.5856,-3.5885,-3.5883,-3.5891,-3.5905,-3.5905,-3.511,-3.5109,-3.578,-3.501,-3.501,-3.56,-3.4686,-3.4202,-3.4138,-3.4442,-3.6882,-4.0439,-3.9858,-4.1394,-4.4022,-4.4308,-4.3217,-4.1866,-4.4356,-4.3995,-4.2554,-4.4102,-4.2928,-4.0603,-3.9559,-3.8016,-3.6781,-3.7528,-3.8095,-3.8118,-3.6505,-3.703,-3.8025,-3.7976,-3.7243,0.0,-3.6621,-3.7653,-3.8299,0.0,-3.8745,-3.9823,-3.8133,-3.7781,-3.7582,-3.6997,-3.73,0.0,0.0,0.0,0.0,0.0,0.0,0.0,0.0,-3.6464,-3.6241,-3.565,-3.6021,-3.6646,-3.7472,-3.7648,-3.82,-3.9265,-3.9443,-3.952,-3.961,-3.9633,-3.8989,-3.7676,-3.715,-3.7012,-3.7196,-3.7272,-3.7435,-3.7739,-3.9041,-3.888,-3.7775,-3.93,-3.9818,-3.9664,-3.9843,-3.9807,-3.9574,-3.9022,-3.829,-3.7595,0.0,-3.5602,-3.5612,-3.5684,-3.5704,-3.5704,-3.5704,-3.5704,-3.5704,-3.5704,-3.5704,-3.5704,-3.5704,-3.5704,-3.5704,-3.5704,-3.569,-3.5706,-3.5707,-3.5703,-3.5723,-3.5727,-3.5771,-3.5827,-3.5813,-3.5876,-3.5901,-3.5908,-3.5726,-3.5698,-3.5797,-3.5635,-3.5221,-3.4643,-3.3804,-3.301,-3.229,-3.2098,-3.4033,-3.7405,-3.9587,-4.0838,-4.1643,-4.3648,-4.252,-4.0203,-4.2731,-4.2334,-4.0692,-4.1393,-4.126,-4.041,-3.8121,-3.715,-3.6832,-3.6853,-3.688,-3.6966,-3.7147,-3.6832,-3.6451,-3.6438,-3.5675,0.0,-3.4902,-3.4946,-3.514,0.0,-3.5957,-3.627,-3.6648,-3.6444,-3.6388,-3.6898,-3.6313,0.0,0.0,0.0,0.0,0.0,0.0,0.0,0.0,-3.6272,-3.6134,-3.5639,-3.6021,-3.6295,-3.6257,-3.718,-3.7623,-3.7432,-3.8363,-3.8522,-3.7743,-3.7936,-3.7696,-3.698,-3.5719,-3.5389,-3.5931,-3.5578,-3.5703,-3.6263,-3.7332,-3.7676,-3.7503,-3.7989,-3.8151,-3.8258,-3.9545,-3.924,-3.8112,-3.8611,-3.829,-3.7595,-3.5591,-3.5633,-3.5668,-3.5684,-3.5704,-3.5704,-3.5704,-3.5704,-3.5704,-3.5704,-3.5704,-3.5704,-3.5704,-3.5704,-3.5704,-3.5704,-3.5704,-3.5695,-3.5706,-3.5702,-3.5698,-3.5704,-3.576,-3.5791,-3.5795,-3.5834,-3.5861,-3.585,-3.585,-3.5826,-3.5799,-3.576,-3.5504,-3.503,-3.4628,-3.3698,-3.2459,-3.2634,-3.385,-3.5929,-3.8444,-4.0208,-4.1533,-4.3202,-4.2551,-4.0862,-4.2139,-4.208,-4.1256,-4.0357,-4.0655,-4.11,-3.9379,-3.8547,-3.809,-3.7566,-3.7379,-3.7292,-3.7067,-3.695,-3.6757,-3.6156,-3.5595,0.0,0.0,-3.4652,-3.4928,-3.5234,-3.519,-3.5055,-3.4972,-3.4797,-3.4935,-3.5803,-3.5668,-3.5693,0.0,0.0,0.0,0.0,0.0,0.0,0.0,-3.6706,-3.6351,-3.5639,-3.5824,-3.5991,-3.6096,-3.6901,-3.7418,-3.7608,-3.8613,-3.8678,-3.7666,-3.8013,-3.7671,-3.665,-3.5659,-3.5579,-3.6278,-3.5715,-3.5914,-3.6731,-3.7232,-3.7539,-3.7649,-3.7881,-3.7915,-3.7917,-3.8635,-3.8634,-3.8239,-3.8202,-3.7952,-3.7595,-3.5598,-3.5645,-3.5704,-3.5704,0.0,0.0,-3.5704,-3.5704,-3.5704,-3.5704,-3.582,-3.5994,-3.6168,-3.6033,-3.6129,-3.6638,-3.6381,-3.6187,-3.6187,-3.617,-3.6037,-3.5708,-3.5757,-3.578,-3.5782,-3.5786,-3.581,-3.581,-3.581,-3.5793,-3.5785,-3.5553,-3.5534,-3.5697,-3.5342,-3.4693,-3.3851,-3.4372,-3.5078,-3.5994,-3.7958,-3.9871,-4.1667,-4.2849,-4.2567,-4.1548,-4.1581,-4.1859,-4.1925,-3.9946,-4.0274,-4.1409,-4.0758,-3.9849,-3.894,-3.8566,-3.7986,-3.7338,-3.674,-3.6937,-3.7083,-3.6112,-3.59,-3.5671,0.0,0.0,0.0,-3.5099,0.0,-3.4747,-3.384,0.0,0.0,0.0,0.0,0.0,0.0,0.0,0.0,0.0,0.0,0.0,0.0,-3.7084,-3.6633,-3.5745,-3.5735,-3.5868,-3.6165,-3.662,-3.7095,-3.7602,-3.8706,-3.8754,-3.7563,-3.8262,-3.7914,-3.6547,-3.6025,-3.6157,-3.6873,-3.6255,-3.6534,-3.7503,-3.7539,-3.7667,-3.7899,-3.809,-3.8106,-3.8019,-3.7828,-3.8115,-3.8581,-3.7863,-3.7595,-3.7595,-3.5598,-3.5645,-3.5704,-3.5704,0.0,0.0,0.0,-3.5704,-3.5704,-3.5704,-3.6323,-3.7058,-3.7825,-3.7232,-3.7696,-4.0023,-3.8818,-3.7922,-3.7922,-3.7928,-3.7257,-3.5753,-3.5702,-3.5708,-3.5713,-3.5775,-3.5803,-3.5803,-3.5803,-3.5761,-3.5698,-3.4904,-3.4967,-3.5632,-3.4091,-3.4536,-3.6466,-3.6368,-3.714,-3.8603,-4.0146,-4.0408,-4.0121,-4.2364,-4.1815,-3.9896,-4.0065,-4.0285,-4.0347,0.0,-3.9474,-3.9771,-3.9675,-3.8514,-3.7483,-3.894,-3.7218,-3.5123,-3.6493,-3.6222,-3.5552,-3.5407,-3.5691,-3.5752,-3.4881,0.0,-3.4465,-3.4489,0.0,-3.4381,-3.4311,0.0,0.0,0.0,0.0,0.0,-3.6432,0.0,0.0,0.0,0.0,0.0,0.0,0.0,-3.6727,-3.6101,-3.6225,-3.6158,-3.5779,-3.6145,-3.6011,-3.5229,-3.7192,-3.742,-3.5644,-3.7133,-3.754,-3.6751,-3.5987,-3.5943,-3.653,-3.6064,-3.6289,-3.7085,-3.7259,-3.7539,-3.7899,-3.7916,-3.8021,-3.8157,-3.7951,-3.7864,-3.7811,-3.7667,-3.7595,-3.7595,-3.5598,-3.5645,-3.5704,-3.5704,0.0,0.0,0.0,-3.6091,-3.64,-3.64,-3.669,-3.7618,-3.9495,-3.8934,-3.9456,-4.2028,-4.1583,-4.0945,-4.0442,-3.9495,-3.8649,-3.7934,-3.6494,-3.5919,-3.6394,-3.5964,-3.5737,-3.5737,-3.5233,-3.4972,-3.4932,-3.4056,-3.438,-3.5665,-3.4939,-3.568,-3.7519,-3.8054,-3.8523,-3.9003,-4.0129,-3.9977,-3.9286,-4.1117,-4.0884,-3.947,-3.858,-3.9026,-3.9764,0.0,-3.9243,0.0,0.0,0.0,-3.9173,-3.9302,-3.7681,-3.6223,-3.7898,-3.7949,-3.7387,0.0,0.0,0.0,-3.5827,0.0,-3.4472,0.0,0.0,0.0,0.0,0.0,0.0,0.0,-3.4463,0.0,0.0,0.0,-3.4588,0.0,0.0,0.0,0.0,0.0,0.0,0.0,0.0,-3.6182,-3.5394,-3.6319,-3.6768,-3.6551,-3.8044,-3.8212,-3.6897,-3.7806,-3.7681,-3.6509,-3.6336,-3.6374,-3.6606,-3.6536,-3.6671,-3.7027,-3.7334,-3.7576,-3.7739,-3.7986,-3.8073,-3.8003,-3.7846,-3.7828,-3.7862,-3.7703,-3.7667,-3.7649,-3.561,-3.5651,-3.5704,-3.5704,-3.5704,0.0,0.0,-3.6593,-3.727,-3.727,-3.7464,-3.8508,-4.0874,-4.0146,-4.0687,-4.3711,-4.3775,-4.3369,-4.2744,-4.1119,-4.0081,-3.9868,-3.7199,-3.6187,-3.7232,-3.6226,-3.5568,-3.5342,-3.4703,-3.4394,-3.4374,-3.3262,-3.3668,-3.5336,-3.5311,-3.6273,-3.7985,-3.9231,-3.9658,-3.9566,-4.0196,-3.9839,-3.902,-3.9832,-3.9896,-3.9439,-3.8218,-3.8701,-3.9581,-3.7492,-3.9052,0.0,-3.9067,0.0,-3.9858,0.0,-3.8166,-3.7012,-3.8285,0.0,0.0,0.0,0.0,0.0,0.0,0.0,0.0,0.0,0.0,0.0,0.0,0.0,-3.3866,-3.4335,0.0,-3.4641,0.0,-3.4084,0.0,0.0,0.0,0.0,0.0,0.0,0.0,0.0,-3.5957,0.0,-3.4775,-3.598,-3.683,-3.7081,-3.8436,-3.8693,-3.7698,-3.8339,-3.8031,-3.6776,-3.673,-3.6725,-3.6725,-3.6888,-3.6987,-3.7048,-3.7429,-3.7631,-3.7703,-3.8003,-3.8021,-3.7881,-3.7739,-3.781,-3.795,-3.7703,-3.7649,-3.7685,-3.5595,-3.5648,-3.5704,-3.5704,-3.5704,-3.5704,-3.5704,-3.7096,-3.8154,-3.8154,-3.8895,-4.0062,-4.1777,-4.043,-4.1106,-4.5355,-4.4952,-4.4481,-4.4516,-4.2899,-4.1564,-4.0797,-3.7508,-3.6477,-3.8115,-3.6535,-3.5284,-3.4432,-3.4413,-3.4394,-3.4355,-3.2648,-3.2764,-3.4432,-3.4362,-3.5675,-3.8004,-3.9669,-4.0624,-4.1035,-4.1054,-4.0473,-3.947,0.0,-3.8882,-3.9589,-3.9533,0.0,0.0,-3.8837,-3.8754,0.0,0.0,0.0,0.0,0.0,0.0,0.0,0.0,0.0,0.0,-3.6122,0.0,0.0,0.0,0.0,-3.6093,0.0,0.0,0.0,0.0,-3.5522,-3.5267,-3.4524,-3.5749,0.0,0.0,0.0,0.0,0.0,0.0,0.0,0.0,0.0,0.0,-3.4824,-3.55,0.0,-3.3829,-3.4662,-3.5214,-3.5281,-3.7465,-3.8076,-3.6951,-3.8242,-3.8568,-3.7923,-3.7175,-3.6809,-3.6809,-3.6791,-3.6911,-3.7127,-3.7466,-3.7703,-3.7881,-3.7899,-3.7917,-3.7881,-3.7685,-3.7721,-3.7864,-3.754,-3.7522,-3.7685,-3.5708,-3.6008,-3.6323,-3.5781,-3.5704,-3.5704,-3.5704,-3.6632,-3.816,-4.0423,-4.0978,-4.2878,-4.7399,-4.6321,-4.6314,-4.8894,-4.8887,-4.8265,-4.7117,-4.5998,-4.4987,-4.4143,-4.139,-3.9611,-3.9075,-3.7947,-3.6671,-3.5264,-3.4684,-3.4703,-3.5206,-3.2899,-3.3035,-3.5226,-3.4635,-3.5669,-3.8016,-3.9742,-4.0781,-4.1242,-4.0566,-4.0027,-3.957,0.0,0.0,-3.9514,-3.8939,-3.8773,0.0,-3.7224,-3.7637,-3.8592,-3.7591,-3.7451,-3.7875,-3.8909,-3.8242,0.0,0.0,0.0,-3.9766,-3.9008,0.0,0.0,0.0,0.0,0.0,0.0,0.0,0.0,0.0,-3.5728,-3.5595,-3.5187,-3.5591,-3.5845,0.0,0.0,0.0,0.0,0.0,0.0,0.0,0.0,0.0,-3.4252,-3.4391,-3.4073,0.0,-3.4689,-3.5846,-3.6113,-3.7862,-3.8303,-3.7303,-3.8325,-3.8213,-3.7005,-3.687,-3.6768,-3.6745,-3.6869,-3.6911,-3.693,-3.7392,-3.7558,-3.7521,-3.7793,-3.7739,-3.7484,-3.7428,-3.7447,-3.7503,-3.7559,-3.7703,-3.781,-3.6507,-3.6252,-3.6093,-3.5668,-3.5656,-3.5897,-3.6497,-3.7793,-3.9837,-4.2937,-4.3619,-4.5382,-4.9528,-4.8709,-4.8411,-4.9785,-4.9942,-4.9502,-4.8377,-4.6706,-4.5761,-4.5807,-4.2789,-4.1023,-4.0855,-3.9108,-3.7812,-3.7044,-3.5574,-3.5452,-3.6535,-3.3944,-3.3615,-3.5226,-3.4974,-3.5488,-3.6702,-3.8969,-4.0107,-4.0336,-3.9624,-3.9444,0.0,0.0,-3.9082,-3.9495,0.0,-3.8131,-3.7718,-3.6621,-3.7088,-3.7899,-3.6671,-3.6828,-3.7566,-3.8004,-3.7787,-3.7735,-3.9184,-3.9853,0.0,-3.9906,-3.9344,0.0,-3.8209,0.0,0.0,0.0,0.0,0.0,0.0,-3.6572,-3.6561,-3.5708,-3.5857,-3.6043,0.0,-3.6199,0.0,0.0,0.0,-3.723,0.0,-3.6738,-3.5563,-3.3594,-3.3915,-3.3614,0.0,0.0,-3.5694,-3.5874,-3.7589,-3.8174,-3.7512,-3.8364,-3.8187,-3.6964,-3.7088,-3.703,-3.6806,-3.6888,-3.6908,-3.6891,-3.7298,-3.7428,-3.7316,-3.7576,-3.7521,-3.7297,-3.722,-3.7239,-3.7316,-3.7504,-3.7703,-3.781,-3.7801,-3.637,-3.5181,-3.5458,-3.5662,-3.6319,-3.7936,-4.0372,-4.293,-4.5471,-4.6622,-4.7538,-4.84,-4.7801,-4.7616,-4.8292,-4.835,-4.833,-4.8253,-4.5295,-4.4233,-4.5807,-4.2015,-4.0951,-4.3247,-4.0127,-3.8818,-3.9559,-3.7102,-3.669,-3.8212,-3.5665,-3.4452,-3.451,-3.5284,-3.5075,-3.4319,-3.7487,-3.8746,-3.8566,-3.8326,-3.8751,-3.9364,-3.7711,0.0,-3.9364,-3.8488,-3.7681,-3.7035,-3.6998,-3.6979,-3.6979,-3.6979,-3.6979,-3.6979,-3.6979,-3.7016,-3.725,-3.8218,-3.8517,-3.8626,-3.8833,0.0,0.0,0.0,0.0,-3.9934,0.0,0.0,0.0,0.0,-3.7926,-3.8014,-3.6087,-3.6508,-3.7003,-3.6794,-3.8042,-3.8729,0.0,0.0,-3.7721,-3.6698,-3.7847,-3.7006,-3.2994,-3.3987,-3.3879,0.0,0.0,0.0,-3.4687,-3.6626,-3.7623,-3.7443,-3.8313,-3.8417,-3.7794,-3.7794,-3.7536,-3.702,-3.6866,-3.6869,-3.6987,-3.7201,-3.7278,-3.7278,-3.7297,-3.7297,-3.7259,-3.7085,-3.7124,-3.7316,-3.7373,-3.754,-3.7703,-3.6919,-3.671,-3.669,-3.6861,-3.6932,-3.7196,-3.787,-4.0616,-4.3365,-4.5514,-4.7643,-4.9501,-5.0973,-5.0945,-5.0377,-4.9296,-4.9241,-4.8736,-4.7488,-4.7209,-4.698,-4.6786,-4.5729,-4.4562,-4.3324,-4.2434,-4.1487,-4.0468,-3.9152,-3.8746,-3.9114,-3.656,-3.538,-3.5361,-3.4916,-3.4585,-3.4477,-3.6905,-3.8106,-3.8326,-3.7667,-3.7887,0.0,0.0,-3.7373,-3.7636,-3.6817,-3.6385,-3.6104,-3.5446,-3.5251,-3.5251,-3.5251,-3.5251,-3.5251,-3.5251,-3.5691,-3.6265,-3.652,-3.7472,-3.8433,-3.8635,-3.8635,-3.8598,0.0,0.0,0.0,0.0,0.0,0.0,0.0,0.0,-3.7551,-3.6795,-3.6738,-3.6994,-3.7517,-3.7429,-3.7697,-3.8742,0.0,-3.7337,-3.8005,-3.6445,-3.4978,-3.394,-3.3415,0.0,0.0,0.0,0.0,-3.5682,-3.5972,-3.6345,-3.6898,-3.7563,-3.7819,-3.7654,-3.7735,-3.769,-3.7426,-3.6966,-3.6684,-3.6647,-3.7009,-3.7068,-3.6948,-3.7201,-3.7201,-3.7066,-3.7027,-3.7124,-3.7316,-3.7503,-3.7685,-3.7793,-3.7519,-3.7215,-3.6914,-3.6245,-3.8004,-3.9755,-4.0548,-4.2225,-4.4526,-4.7619,-4.9293,-5.0541,-5.1464,-5.1925,-5.1597,-5.022,-4.9125,-4.8408,-4.8222,-4.6904,-4.6424,-4.7076,-4.6399,-4.5336,-4.3904,-4.3498,-4.3015,-4.2454,-4.0468,-3.9868,-4.0526,-3.7599,-3.6033,-3.5684,-3.5187,-3.4685,-3.4365,-3.6559,-3.7783,-3.8244,-3.7418,0.0,0.0,-3.6603,-3.6246,-3.646,-3.5634,-3.5334,-3.5259,-3.4771,-3.4612,-3.4612,-3.4612,-3.4612,-3.4612,-3.4612,-3.494,-3.5409,-3.5803,-3.6554,-3.7359,-3.7826,-3.792,-3.7931,-3.8105,-3.8439,-3.8714,0.0,0.0,0.0,0.0,0.0,0.0,-3.7118,-3.7424,-3.7782,-3.7894,-3.8135,-3.839,-3.8617,-3.8468,0.0,0.0,-3.623,-3.4673,-3.4976,-3.3588,0.0,0.0,0.0,0.0,-3.4994,-3.5497,-3.5766,-3.5793,-3.6406,-3.6884,-3.7252,-3.7621,-3.799,-3.831,-3.754,-3.7172,-3.7154,-3.6988,-3.6869,-3.6803,-3.7316,-3.7246,-3.6869,-3.6908,-3.7066,-3.7297,-3.7354,-3.7485,-3.7612,-3.862,-3.7739,-3.6773,-3.5502,-3.9044,-4.2636,-4.4374,-4.4928,0.0,-5.0138,0.0,-5.0927,-5.07,-5.1485,-5.1644,-5.0665,-4.8531,-4.7778,-4.9014,-4.5602,-4.4554,-4.6825,-4.5529,-4.4755,-4.4755,-4.402,-4.3943,-4.4594,-4.139,-4.0468,-4.1603,-3.8392,-3.6477,-3.5704,-3.5704,-3.5238,-3.4599,-3.6369,-3.7566,-3.8244,-3.7418,-3.7455,-3.7756,-3.5597,-3.5165,-3.5634,-3.4864,-3.4612,-3.4612,-3.4612,-3.4612,-3.4612,-3.4612,-3.4612,-3.4612,-3.4612,-3.4612,-3.4771,-3.5522,-3.5803,-3.6066,-3.6772,-3.7016,-3.7126,-3.7254,-3.7864,-3.8404,-3.8394,-3.9745,0.0,0.0,0.0,0.0,-3.7171,-3.8021,-3.852,-3.7716,-3.9129,-3.9668,-3.8106,-3.9263,0.0,0.0,0.0,0.0,0.0,0.0,0.0,0.0,0.0,0.0,0.0,-3.5136,0.0,-3.4951,0.0,-3.6245,-3.7263,-3.7631,-3.83,-3.9224,-3.8252,-3.7812,-3.7787,-3.7146,-3.6861,-3.6931,-3.768,-3.7561,-3.6885,-3.6843,-3.6989,-3.7239,-3.7127,-3.7145,-3.7239,-3.8209,-3.8035,-3.8309,-3.9277,-4.0428,-4.253,-4.6415,-4.8793,-4.9905,-4.9251,-5.0602,-5.1087,-4.9654,-5.0475,-5.0518,-4.8976,-4.8373,0.0,-4.6547,-4.5754,-4.5548,-4.602,-4.5749,-4.5587,-4.5587,-4.5439,-4.5104,-4.4594,-4.257,-4.1003,-3.9887,-3.7851,-3.6477,-3.5704,-3.5704,-3.617,-3.695,-3.6444,0.0,-3.8244,-3.7418,-3.6779,-3.6273,-3.5841,-3.5315,-3.4808,-3.4639,-3.4612,-3.4612,-3.4612,-3.4612,-3.4612,-3.4612,-3.4612,-3.4612,-3.4612,-3.4612,-3.462,-3.4789,-3.5353,-3.5935,-3.6066,-3.661,-3.7122,-3.7126,-3.725,-3.7356,-3.7374,-3.8138,-3.878,-3.8587,0.0,0.0,0.0,0.0,0.0,0.0,-3.7994,-3.908,-3.8163,-3.8287,-3.862,0.0,0.0,0.0,0.0,0.0,0.0,0.0,0.0,0.0,0.0,0.0,0.0,0.0,0.0,0.0,-3.9664,-3.8401,-3.8237,-3.9033,-3.8188,-3.7471,-3.6969,-3.7539,-3.7769,-3.7842,-3.8692,-3.8576,-3.7804,-3.7213,-3.7007,-3.7046,-3.7029,-3.695,-3.6888,-3.9489,-3.8434,-3.7858,-3.8742,-4.0552,0.0,0.0,-4.8155,-4.9893,-4.9157,-4.9635,-4.966,-4.8673,-4.9579,-4.9946,-4.9096,-4.7687,-4.6893,-4.6992,-4.5593,-4.5229,-4.627,-4.5893,-4.5507,-4.5181,-4.5587,-4.5181,-4.3924,0.0,-4.0739,-3.9443,-3.729,-3.6071,-3.5718,-3.5879,-3.6082,0.0,0.0,0.0,-3.7643,-3.726,-3.661,-3.5841,-3.5409,-3.4958,-3.4612,-3.4612,-3.4612,-3.4612,-3.4612,-3.4612,-3.4612,-3.4612,-3.4612,-3.4612,-3.4612,-3.4612,-3.4612,-3.4612,-3.4902,-3.5221,-3.5221,-3.5522,-3.5796,-3.5796,-3.5796,-3.6058,-3.6922,-3.7411,-3.7817,-3.8289,-3.8729,0.0,0.0,0.0,0.0,0.0,0.0,-3.7884,-3.753,-3.7474,-3.7611,0.0,0.0,0.0,0.0,0.0,0.0,0.0,0.0,0.0,0.0,0.0,0.0,0.0,0.0,0.0,-3.9087,-3.8751,-3.9188,-4.0329,-3.9477,-3.8915,-3.8562,-3.8531,-3.8531,-3.8513,-3.8521,-3.8545,-3.8502,-3.7346,-3.6948,-3.7007,-3.7007,-3.6928,-3.6809,-4.128,-3.9638,-3.8346,-3.894,-4.1256,-4.3311,-4.4129,-4.638,-4.826,-4.905,-4.8778,-4.836,-4.7981,-4.8947,-4.9349,-4.8711,-4.6856,-4.6071,-4.6906,-4.5167,-4.4716,-4.6128,-4.5705,-4.5227,-4.4795,-4.5402,-4.494,0.0,0.0,0.0,0.0,-3.698,-3.5925,0.0,0.0,0.0,0.0,0.0,-3.7828,-3.7336,-3.7167,-3.661,-3.5803,-3.4921,-3.4612,-3.4612,-3.4612,-3.4612,-3.4612,-3.4612,-3.4612,-3.4612,-3.4612,-3.4612,-3.4612,-3.4612,-3.4612,-3.4612,-3.4612,-3.4612,-3.4612,-3.4612,-3.4612,-3.4612,-3.4612,-3.4612,-3.4969,-3.6303,-3.6847,-3.7387,-3.829,-3.9414,0.0,0.0,0.0,0.0,0.0,0.0,-3.7032,-3.6695,-3.7131,-3.7219,-3.6596,0.0,0.0,0.0,0.0,0.0,0.0,0.0,0.0,0.0,0.0,0.0,-3.4898,0.0,-3.6661,0.0,-3.8835,-3.9824,-4.1297,-4.0635,-4.0263,-4.0049,-3.9547,-3.9334,-3.9264,-3.844,-3.8412,-3.8758,-3.7373,-3.6908,-3.7007,-3.7007,-3.693,-3.6831,-4.293,-4.2522,-4.2416,0.0,0.0,0.0,-4.6177,-4.5408,-4.5611,-4.8308,-4.8786,-4.8563,-4.7813,-4.869,-4.8327,-4.583,-4.6105,-4.5501,-4.336,-4.4381,-4.4791,-4.4201,-4.4841,-4.5294,-4.5419,-4.5477,-4.48,0.0,0.0,0.0,0.0,0.0,0.0,0.0,0.0,0.0,0.0,-3.8204,-3.8202,-3.8131,-3.738,-3.661,-3.5803,-3.4921,-3.4612,-3.4612,-3.4612,-3.4612,-3.4612,-3.4612,-3.4612,-3.4612,-3.4612,-3.4612,-3.4612,-3.4612,-3.4612,-3.4612,-3.4612,-3.4612,-3.4612,-3.4612,-3.4612,-3.4612,-3.4612,-3.4612,-3.465,-3.48,-3.604,-3.7556,-3.9021,-3.8871,-3.8671,0.0,0.0,0.0,0.0,0.0,-3.7461,-3.5988,-3.7704,-3.813,0.0,-3.7702,0.0,0.0,0.0,0.0,0.0,0.0,0.0,0.0,0.0,-3.5077,-3.5857,-3.5642,0.0,-4.0071,-3.8758,-3.893,-4.0416,-4.0455,-4.0095,-3.9442,-4.0073,-4.0375,-4.0305,-3.9494,-3.8772,-3.8108,-3.7303,-3.6987,-3.7007,-3.7007,-3.6987,-3.6987,0.0,0.0,0.0,0.0,0.0,0.0,0.0,-4.4978,-4.5225,-4.6405,-4.7072,-4.7262,-4.6737,-4.7242,-4.7159,-4.6031,-4.5662,-4.4851,-4.3341,-4.4206,-4.4459,-4.3748,-4.4517,-4.5066,-4.5314,-4.5314,-4.4602,0.0,0.0,0.0,0.0,0.0,0.0,0.0,0.0,-3.8016,-3.7848,-3.8099,-3.7959,-3.7512,-3.6704,-3.5859,-3.5071,-3.4733,-3.4612,-3.4612,-3.4612,-3.4612,-3.4612,-3.4612,-3.4612,-3.4612,-3.4612,-3.4612,-3.4612,-3.4612,-3.4612,-3.4612,-3.4612,-3.4612,-3.4612,-3.4612,-3.4612,-3.4612,-3.4612,-3.4612,-3.4752,-3.5277,-3.6291,-3.7286,-3.7908,-3.8164,-3.822,0.0,0.0,0.0,0.0,0.0,0.0,-3.5045,-3.4982,-3.4936,-3.4932,0.0,0.0,0.0,0.0,0.0,0.0,0.0,0.0,-3.4225,0.0,-3.5227,-3.7061,-3.6911,-3.77,-3.9395,-3.984,-4.0377,-4.0949,-4.1104,-4.0972,-4.0674,-4.0555,-4.0502,-4.0397,-3.9111,-3.8371,-3.8041,-3.7306,-3.7007,-3.7007,-3.7007,-3.7007,-3.7007,-4.5387,0.0,-4.306,0.0,-4.3988,-4.3902,-4.3785,-4.4507,-4.4914,-4.4437,-4.5278,-4.5862,-4.5747,-4.6107,-4.6054,-4.5266,-4.468,-4.3819,-4.2508,-4.3269,-4.3469,-4.2798,-4.3554,0.0,-4.4361,-4.438,-4.3778,-4.2539,-4.1302,0.0,0.0,0.0,0.0,0.0,-3.8328,-3.842,-3.7618,-3.8049,-3.7664,-3.6697,-3.6122,-3.5371,-3.4612,-3.4612,-3.4612,-3.4612,-3.4612,-3.4612,-3.4612,-3.4612,-3.4612,-3.4612,-3.4612,-3.4612,-3.4612,-3.4612,-3.4612,-3.4612,-3.4612,-3.4612,-3.4612,-3.4612,-3.4612,-3.4612,-3.4612,-3.4612,-3.4771,-3.539,-3.616,-3.6753,-3.6753,-3.7399,-3.7744,0.0,0.0,0.0,0.0,-3.4813,0.0,-3.4861,-3.4274,-3.3986,-3.4371,-3.4519,0.0,0.0,0.0,0.0,0.0,0.0,0.0,0.0,0.0,0.0,0.0,0.0,-3.7672,-3.9091,-4.0374,-4.1131,-4.134,-4.1515,-4.1604,-4.1569,-4.0818,-4.0379,-4.0046,-3.8673,-3.797,-3.7725,-3.72,-3.7007,-3.7007,-3.7007,-3.7007,-3.7007,-4.5874,-4.6057,-4.6124,-4.6402,-4.6464,-4.5604,-4.3101,-4.3912,-4.4232,-4.2644,-4.3648,-4.4667,-4.5071,-4.5651,-4.5029,-4.2557,-4.2937,-4.2275,-3.9808,-4.1135,-4.1667,0.0,0.0,-4.2165,-4.2424,-4.2435,-4.2091,-4.1418,0.0,0.0,-3.8898,0.0,0.0,-3.8609,-3.9494,-3.9297,-3.8281,-3.83,-3.738,-3.5916,-3.5897,-3.5371,-3.4612,-3.4612,-3.4612,-3.4612,-3.4612,-3.4612,-3.4612,-3.4612,-3.4612,-3.4612,-3.4612,-3.4612,-3.4612,-3.4612,-3.4612,-3.4612,-3.4612,-3.4612,-3.4612,-3.4612,-3.4612,-3.4612,-3.4612,-3.4612,-3.4602,-3.4602,-3.5315,-3.5916,-3.5916,-3.6573,-3.7087,-3.7004,0.0,0.0,0.0,0.0,0.0,-3.5693,-3.7013,-3.695,-3.4451,-3.6408,0.0,0.0,0.0,0.0,0.0,0.0,0.0,-3.3111,-3.2472,0.0,-3.6485,-3.5655,-3.6715,-3.9681,-3.9966,-4.0495,-4.1209,-4.1475,-4.1604,-4.1569,-4.0818,-4.0042,-3.9252,-3.8444,-3.7672,-3.7007,-3.7007,-3.7007,-3.7007,-3.7007,-3.7007,-3.7007,-4.2246,-4.3914,-4.5145,-4.4084,-4.4859,-4.5345,-4.4524,-4.4623,-4.463,-4.4099,-4.4314,-4.4361,-4.4042,-4.46,-4.4436,0.0,-4.2639,-4.1849,0.0,-4.091,-4.1079,-4.0816,-4.106,-4.1198,-4.123,-4.1287,-4.0986,-4.0308,0.0,0.0,0.0,-3.8087,-3.8022,-3.8387,-3.8109,-3.78,-3.7437,-3.6892,-3.6366,-3.5841,-3.524,-3.4846,-3.4612,-3.4612,-3.4612,-3.4612,-3.4612,-3.4612,-3.4612,-3.4612,-3.4612,-3.4612,-3.4612,-3.4612,-3.4612,-3.4612,-3.4612,-3.4612,-3.4612,-3.4612,-3.4612,-3.4612,-3.4612,-3.4612,-3.4612,-3.4612,-3.4612,-3.4612,-3.4808,-3.5015,-3.5015,-3.5221,-3.539,-3.5368,0.0,0.0,0.0,0.0,-3.4344,-3.4869,-3.4367,-3.4076,0.0,-3.4504,0.0,0.0,0.0,0.0,0.0,0.0,0.0,0.0,-3.5593,0.0,-3.8173,-3.7755,-3.7991,-3.8957,-4.0187,-4.0972,-4.134,-4.1408,-4.1515,-4.1569,-4.0818,-4.0024,-3.9231,-3.8424,-3.7672,-3.7007,-3.7007,-3.7007,-3.7007,-3.7007,-3.7007,-3.7007,-4.2042,-4.3502,-4.4611,-4.3559,-4.4231,-4.4611,-4.3692,-4.3949,-4.3895,-4.2963,-4.3269,-4.3391,-4.297,-4.3305,0.0,-4.2529,-4.1906,-4.121,-4.0403,-4.0347,-4.0347,-4.0347,-4.0347,-4.0334,-4.0277,0.0,0.0,-3.9724,-3.9403,-3.8829,-3.8018,-3.7481,-3.7442,-3.7831,-3.7317,-3.6941,-3.661,-3.6104,-3.5709,-3.5353,-3.4808,-3.4612,-3.4612,-3.4612,-3.4612,-3.4612,-3.4612,-3.4612,-3.4612,-3.4612,-3.4623,-3.4645,-3.4645,-3.4645,-3.4634,-3.4612,-3.4612,-3.4612,-3.4612,-3.4612,-3.4612,-3.4612,-3.4612,-3.4612,-3.4612,-3.4612,-3.4612,-3.4612,-3.4612,-3.4572,-3.4528,-3.458,-3.458,-3.4473,0.0,-3.4506,-3.4461,0.0,0.0,0.0,0.0,0.0,0.0,-3.494,0.0,0.0,0.0,0.0,0.0,0.0,0.0,-3.7208,-3.664,0.0,-3.8838,-3.8684,-3.8732,-3.9026,-4.0441,-4.121,-4.1403,-4.1403,-4.1471,-4.1552,-4.0498,-3.9761,-3.9213,-3.8128,-3.7409,-3.7007,-3.7007,-3.7007,-3.7007,-3.7007,-3.7007,-3.7007,-4.417,-4.4322,0.0,0.0,-4.4388,0.0,-4.1248,-4.2262,-4.2444,-4.0078,-4.106,-4.1967,-4.1929,-4.1929,-4.1663,-4.1052,0.0,0.0,0.0,-3.9533,-3.9533,-3.9589,-3.9495,0.0,-3.942,-3.9364,-3.9364,-3.9432,-3.8619,-3.7831,-3.711,-3.7035,-3.7016,-3.7016,-3.696,-3.6498,-3.5803,-3.5803,-3.5334,-3.4612,-3.4612,-3.4612,-3.4612,-3.4612,-3.4612,-3.4612,-3.4612,-3.4612,-3.4612,-3.4612,-3.4645,-3.4687,-3.4687,-3.4687,-3.4676,-3.4623,-3.4594,-3.4612,-3.4612,-3.4612,-3.4612,-3.4612,-3.4612,-3.4612,-3.4612,-3.4612,-3.4602,-3.4602,-3.4628,-3.4633,-3.4491,-3.4559,-3.457,-3.4308,-3.4342,-3.434,-3.4221,0.0,0.0,0.0,0.0,0.0,0.0,-3.7039,-3.6775,0.0,0.0,0.0,0.0,0.0,-3.5545,-3.5445,-3.6146,-3.7198,-3.8599,-3.8698,-3.9094,-3.9784,-4.066,-4.1192,-4.1403,-4.1403,-4.1471,-4.1516,-4.0042,-3.9336,-3.9178,-3.769,-3.706,-3.7007,-3.7007,-3.7007,-3.7007,-3.7007,-3.7007,-3.7007,0.0,0.0,-4.409,-4.2038,-4.3243,-4.3862,-4.2004,-4.2658,-4.2916,-4.1605,-4.1812,-4.1825,-4.1154,-4.1079,-4.0785,-4.002,-3.9896,-3.9796,-3.9608,-3.8976,-3.8901,-3.957,-3.8368,-3.7692,-3.7692,-3.7088,-3.7092,-3.7781,-3.7509,-3.7298,-3.7091,-3.646,-3.6179,-3.616,-3.5484,-3.5101,-3.4902,-3.4902,-3.4789,-3.4612,-3.4612,-3.4612,-3.4612,-3.4612,-3.4612,-3.4612,-3.4612,-3.4612,-3.4612,-3.4612,-3.4612,-3.4623,-3.4623,-3.4623,-3.4634,-3.4666,-3.4645,-3.4612,-3.4612,-3.4612,-3.4612,-3.4612,-3.4612,-3.4612,-3.4612,-3.4612,-3.4561,-3.4473,-3.4944,-3.5327,-3.5194,-3.5194,-3.5194,-3.5132,-3.4618,-3.4233,-3.4209,-3.3498,0.0,0.0,-3.4866,-3.5019,-3.6348,-3.6044,-3.5749,0.0,0.0,0.0,0.0,0.0,-3.7013,-3.7754,-3.8508,-3.8801,-3.8594,-3.9773,-4.0446,-4.0636,-4.0849,-4.1059,-4.1255,-4.1255,-4.1386,-4.1552,-4.0604,-3.9866,-3.9213,-3.8251,-3.7496,-3.7007,-3.7007,-3.7007,-3.7007,-3.7007,-3.7007,-3.7007,-4.1198,-4.2319,-4.3051,-4.1612,-4.2455,-4.2924,-4.1648,-4.1875,-4.1906,-4.1022,-4.0929,-4.0791,-4.0303,-3.9921,-3.952,-3.91,-3.9062,-3.9062,-3.9062,-3.8599,-3.8561,-3.9024,-3.8531,-3.808,-3.7709,-3.728,-3.6897,-3.6607,-3.6569,-3.6359,-3.5946,-3.5503,-3.5315,-3.5296,-3.4808,-3.4612,-3.4612,-3.4612,-3.4612,-3.4612,-3.4612,-3.4612,-3.4612,-3.4612,-3.4612,-3.4612,-3.4612,-3.4612,-3.4612,-3.4612,-3.4623,-3.4655,-3.4676,-3.4666,-3.4655,-3.4737,-3.4676,-3.4612,-3.4612,-3.4612,-3.4591,-3.4517,-3.4506,-3.4495,-3.4439,-3.4427,-3.4404,-3.4316,-3.4963,-3.5479,-3.5321,-3.536,-3.536,-3.5248,-3.4283,-3.3531,-3.3469,-3.3087,0.0,-3.5032,-3.5512,-3.6334,-3.7904,-3.7463,-3.704,-3.6908,0.0,0.0,-3.6274,-3.7221,-3.8003,-3.8582,-3.9319,-3.9508,-3.9112,-3.9922,-4.0549,-4.0912,-4.0912,-4.1012,-4.1209,-4.1209,-4.1363,-4.1552,-4.0428,-3.9708,-3.9217,-3.8076,-3.7356,-3.7007,-3.7007,-3.7007,-3.7007,-3.7007,-3.7218,-3.7444,-4.3517,-4.2735,-4.2052,-4.1882,-4.1937,-4.1685,-4.076,-4.0735,-4.0541,-3.9714,-3.9614,-3.9614,-3.962,-3.8886,-3.8402,-3.8402,-3.8188,-3.8105,-3.8225,-3.8225,-3.8225,-3.8225,-3.8754,-3.8736,-3.8067,-3.7935,-3.7164,-3.5711,-3.5724,-3.5326,-3.4612,-3.4612,-3.4612,-3.4612,-3.4612,-3.4612,-3.4612,-3.4612,-3.4612,-3.4612,-3.4612,-3.4612,-3.4612,-3.4612,-3.4612,-3.4612,-3.4612,-3.4612,-3.4612,-3.4612,-3.4645,-3.4687,-3.4758,-3.4737,-3.4706,-3.4758,-3.4687,-3.4602,-3.4591,-3.455,-3.4517,-3.4404,-3.4363,-3.434,-3.4221,-3.4197,-3.4197,-3.4173,-3.4921,-3.5525,-3.5393,-3.546,-3.546,-3.523,-3.3937,-3.2907,-3.281,0.0,-3.3702,-3.5206,-3.6853,-3.841,-3.9769,-3.9443,-3.8862,-3.8216,-3.7374,0.0,0.0,-3.8027,-3.8646,-3.875,-3.9491,-3.9871,-3.9871,-3.975,-4.0095,-4.0912,-4.0912,-4.1012,-4.1186,-4.1186,-4.134,-4.1494,-4.0069,-3.9389,-3.9199,-3.776,-3.7095,-3.7007,-3.7007,-3.7007,-3.7007,-3.713,-3.7549,-3.8023,-4.3051,-4.2775,-4.2305,-4.1393,-4.1669,-4.1498,-4.0021,-4.0465,-4.0664,-3.9806,-3.9679,-3.9672,-3.9681,-3.8929,-3.8402,-3.8402,-3.7211,-3.6753,-3.7437,-3.7464,-3.7464,-3.7464,-3.6888,-3.6532,-3.6453,-3.5783,-3.5251,-3.4894,-3.4894,-3.4787,-3.4612,-3.4612,-3.4612,-3.4612,-3.4612,-3.4612,-3.4612,-3.4612,-3.4612,-3.4612,-3.4612,-3.4612,-3.4612,-3.4612,-3.4612,-3.4612,-3.4612,-3.4612,-3.4612,-3.4612,-3.4612,-3.4623,-3.4634,-3.4623,-3.4623,-3.4634,-3.4623,-3.4591,-3.4461,-3.434,-3.4257,-3.4233,-3.4233,-3.4221,-3.4209,-3.4197,-3.4173,-3.4049,-3.5262,-3.6279,-3.614,-3.6158,-3.6158,-3.6115,-3.472,-3.365,0.0,0.0,-3.6064,-3.7015,-3.8539,-3.9625,-3.9879,-3.8917,-3.8345,-3.8507,-3.7466,-3.7274,-3.8273,-3.8501,-3.8888,-3.9508,-4.0284,-4.0722,-4.0722,-4.0026,-4.0095,-4.0912,-4.0912,-4.0982,-4.1117,-4.1117,-4.1238,-4.1373,-4.0521,-3.9812,-3.9234,-3.8322,-3.7549,-3.7007,-3.7007,-3.7007,-3.7077,-3.769,-3.8006,-3.8161,-4.2223,-4.1714,-4.113,-4.0648,-4.073,-4.0611,-3.9868,-4.0078,-4.0131,-3.9695,-3.9674,-3.951,-3.9053,-3.8286,-3.763,-3.7211,-3.6106,-3.5617,-3.5984,-3.6407,-3.664,-3.6589,-3.6664,-3.6507,-3.6115,-3.5303,-3.4858,-3.4758,-3.4727,-3.4666,-3.4612,-3.4612,-3.4612,-3.4612,-3.4612,-3.4612,-3.4612,-3.4612,-3.4612,-3.4612,-3.4612,-3.4612,-3.4612,-3.4612,-3.4612,-3.4612,-3.4612,-3.4612,-3.4612,-3.4612,-3.4612,-3.4612,-3.4645,-3.4634,-3.4612,-3.4645,-3.4634,-3.4561,-3.4439,-3.4351,-3.4269,-3.4136,-3.4099,-3.4074,-3.3998,-3.3985,-3.4089,-3.4465,-3.5538,-3.6517,-3.6883,-3.6578,-3.6431,-3.6886,-3.5183,0.0,0.0,-3.6174,-3.7419,-3.8649,-4.0212,-4.1284,-4.15,-4.042,-3.9689,-3.9578,-3.8825,-3.8621,-3.9169,-3.9595,-3.9997,-4.0359,-4.0722,-4.0912,-4.0912,-4.0549,-4.0549,-4.0912,-4.0912,-4.0959,-4.1093,-4.1093,-4.1192,-4.1333,-4.0167,-3.9532,-3.9217,-3.8006,-3.7323,-3.7007,-3.7007,-3.7007,-3.7023,-3.7294,-3.798,-3.867,-4.1635,-4.086,-4.0186,-4.0186,-4.003,-3.9903,-3.9903,-3.9785,-3.9681,-3.9633,-3.9512,-3.9171,-3.85,-3.7577,-3.6782,-3.6153,-3.5362,-3.4908,-3.4908,-3.5484,-3.5804,-3.5744,-3.6386,-3.6453,-3.5802,-3.5199,-3.4858,-3.4758,-3.4727,-3.4572,-3.4323,-3.4323,-3.4239,-3.4081,-3.4229,-3.4323,-3.4323,-3.4518,-3.4612,-3.4612,-3.4612,-3.4612,-3.4612,-3.4612,-3.4612,-3.4612,-3.4612,-3.4612,-3.4612,-3.4612,-3.4612,-3.4612,-3.4655,-3.4623,-3.4561,-3.4623,-3.4561,-3.4484,-3.434,-3.4281,-3.4209,-3.3998,-3.3947,-3.3921,-3.3815,-3.3807,-3.4027,-3.4839,-3.5697,-3.6556,-3.7345,-3.6997,-3.6835,-3.7658,0.0,0.0,0.0,-3.7698,-3.8741,-3.9787,-4.1479,-4.2516,-4.234,-4.1582,-4.0895,-4.0414,-3.9954,-3.9767,-3.9957,-4.0567,-4.0912,-4.0912,-4.0912,-4.0912,-4.0912,-4.0912,-4.0912,-4.0959,-4.0959,-4.1,-4.1093,-4.1093,-4.1192,-4.1288,-4.0106,-3.9581,-3.9498,-3.8307,-3.7587,-3.7253,-3.7231,-3.7231,-3.7246,-3.73,-3.8227,-3.9304,-4.1723,-4.1124,-4.0473,-4.0473,-4.0158,-3.9903,-3.9903,-3.9785,-3.9693,-3.9693,-3.9044,-3.8561,-3.8505,-3.7103,-3.6153,-3.6096,-3.5362,-3.4908,-3.4908,-3.4965,-3.4993,-3.4974,-3.505,-3.502,-3.4893,-3.4905,-3.4817,-3.4604,-3.4666,-3.4273,-3.3491,-3.3491,-3.3116,-3.2496,-3.3191,-3.3491,-3.3537,-3.4285,-3.4612,-3.4612,-3.4612,-3.4612,-3.4612,-3.4612,-3.4612,-3.4612,-3.4612,-3.4612,-3.4612,-3.4612,-3.4612,-3.4612,-3.4612,-3.4517,-3.4427,-3.4427,-3.4328,-3.4197,-3.4074,-3.3934,-3.3829,-3.3815,-3.3802,-3.3802,-3.3788,-3.3807,-3.4027,-3.4839,-3.5697,-3.6556,-3.7345,-3.7456,-3.7676,-3.8487,0.0,0.0,-3.8395,-3.9863,-4.0616,-3.9955,-4.1991,-4.2662,-4.0763,-4.0898,-4.0877,-4.0336,-3.9914,-4.0026,-4.0774,-4.0877,-4.0912,-4.0912,-4.0912,-4.0912,-4.0912,-4.0912,-4.0959,-4.1087,-4.1087,-4.1093,-4.1093,-4.1093,-4.1146,-4.1192,-4.1087,-4.0809,-4.0397,-4.0291,-3.9378,-3.8003,-3.7939,-3.7933,-3.7996,-3.861,-3.9351,-4.0003,-4.1034,-4.0836,-4.0619,-4.0619,-4.0441,-4.0233,-4.011,-3.9511,-3.9017,-3.8848,-3.8203,-3.7532,-3.6941,-3.6432,-3.5898,-3.5398,-3.5087,-3.4908,-3.4908,-3.4908,-3.4908,-3.4908,-3.4869,-3.4849,-3.4868,-3.4406,-3.4083,-3.3917,-3.3496,-3.309,-3.2731,-3.2731,-3.2571,-3.2307,-3.259,-3.2975,-3.3416,-3.3734,-3.4145,-3.4612,-3.4612,-3.4612,-3.4612,-3.4612,-3.4612,-3.4612,-3.4612,-3.4634,-3.4655,-3.4655,-3.4687,-3.4697,-3.4591,-3.4506,-3.4427,-3.4209,-3.4124,-3.4049,-3.3908,-3.3895,-3.3895,-3.3815,-3.3807,-3.3807,-3.3807,-3.3807,-3.4174,-3.5532,-3.6064,-3.6688,-3.7991,-3.7841,-3.7768,-3.8579,0.0,-3.797,-3.9258,-3.9974,-4.0616,-4.1313,-4.2194,-4.2429,-4.16,-4.1692,-4.1481,-4.0728,-4.0539,-4.0584,-4.0877,-4.0912,-4.0912,-4.0912,-4.0912,-4.0912,-4.0912,-4.0982,-4.1047,-4.1093,-4.1129,-4.1157,-4.1175,-4.114,-4.1169,-4.13,-4.0654,-4.0423,-4.0446,-3.9787,-3.9206,-3.8706,-3.8597,-3.8276,-3.7962,-3.8621,-3.9112,-3.9329,-4.061,-4.0666,-4.0733,-4.0733,-4.0386,-4.0046,-3.9902,-3.9004,-3.8267,-3.8026,-3.7384,-3.6688,-3.5985,-3.5778,-3.5462,-3.4924,-3.4859,-3.486,-3.486,-3.4614,-3.4586,-3.4889,-3.4594,-3.4554,-3.4829,-3.4055,-3.3582,-3.3476,-3.2732,-3.2222,-3.1911,-3.1911,-3.1788,-3.1552,-3.1807,-3.2194,-3.2684,-3.2918,-3.3339,-3.3834,-3.3824,-3.3813,-3.3861,-3.4135,-3.4078,-3.3899,-3.4457,-3.4526,-3.4377,-3.4632,-3.4768,-3.4768,-3.4561,-3.4439,-3.4293,-3.4023,-3.3934,-3.3908,-3.3815,-3.3855,-3.3908,-3.3815,-3.3807,-3.3807,-3.3807,-3.3807,-3.4284,-3.5954,-3.6303,-3.678,-3.8395,-3.8248,-3.8138,-3.8946,-3.8597,-3.8741,-4.0084,-4.0487,-4.0965,-4.1827,-4.2258,-4.2323,-4.1866,-4.1932,-4.1687,-4.0942,-4.0912,-4.0912,-4.0912,-4.0912,-4.0912,-4.0912,-4.0935,-4.0959,-4.0959,-4.1006,-4.107,-4.1123,-4.1175,-4.1157,-4.1157,-4.1129,-4.1192,-4.1272,-4.0619,-4.0466,-4.067,-3.9913,-3.9525,-3.9364,-3.9012,-3.8708,-3.8478,-3.8663,-3.8928,-3.9081,-4.0595,-4.0688,-4.0777,-4.0777,-3.9899,-3.9185,-3.9185,-3.8284,-3.7509,-3.7325,-3.6653,-3.6111,-3.5913,-3.5248,-3.4798,-3.4798,-3.4798,-3.4798,-3.4798,-3.3977,-3.3921,-3.4849,-3.4055,-3.3931,-3.4678,-3.3891,-3.3457,-3.3378,-3.2637,-3.1873,-3.1088,-3.1088,-3.066,-2.9945,-3.0736,-3.1088,-3.1163,-3.1892,-3.2202,-3.2183,-3.2143,-3.2105,-3.2208,-3.3142,-3.2925,-3.2369,-3.4154,-3.4249,-3.3643,-3.4514,-3.4788,-3.4768,-3.455,-3.4269,-3.3972,-3.3829,-3.3807,-3.3807,-3.3807,-3.3807,-3.3807,-3.3807,-3.3807,-3.3807,-3.3807,-3.3807,-3.4284,-3.5954,-3.6303,-3.6798,-3.8395,-3.8707,-3.8964,-3.9753,-3.9882,-4.0157,-4.0967,-4.1774,-4.1976,-4.1187,-4.214,-4.2386,-4.1129,-4.1297,-4.1333,-4.0918,-4.0912,-4.0912,-4.0912,-4.0912,-4.0912,-4.0912,-4.1023,-4.1093,-4.1093,-4.0959,-4.0995,-4.1209,-4.1123,-4.1093,-4.1093,-4.1157,-4.1157,-4.1093,-4.1157,-4.1209,-4.1209,-4.1209,-4.0751,-3.9998,-3.9163,-3.9257,-3.9789,-3.8933,-3.906,-3.9577,-3.9751,-3.9348,-3.8972,-3.8972,-3.8704,-3.8446,-3.8315,-3.7532,-3.6891,-3.6678,-3.5902,-3.5325,-3.521,-3.4961,-3.4798,-3.4798,-3.4798,-3.4809,-3.4868,-3.4055,-3.3696,-3.398,-3.3204,-3.2845,-3.3005,-3.2232,-3.1779,-3.1732,-3.0987,-3.0492,-3.0255,-3.0261,-3.0448,-3.0806,-3.041,-3.0915,-3.2023,-3.226,-3.2298,-3.2258,-3.2841,-3.3086,-3.3105,-3.3397,-3.371,-3.4069,-3.4619,-3.4567,-3.4314,-3.458,-3.4602,-3.4484,-3.4281,-3.4049,-3.3842,-3.3802,-3.3807,-3.3807,-3.3807,-3.3807,-3.3807,-3.3807,-3.3807,-3.3954,-3.4509,-3.4637,-3.5114,-3.6813,-3.7144,-3.7474,-3.8505,-3.8549,-3.8494,-3.8731,-3.8566,-3.852,-3.8755,-3.939,-3.9969,-4.0275,-4.1044,-4.1522,-4.1347,-4.1442,-4.1333,-4.0918,-4.0912,-4.0912,-4.0912,-4.0912,-4.0912,-4.0912,-4.0935,-4.1006,-4.1093,-4.1105,-4.114,-4.1209,-4.118,-4.1157,-4.1157,-4.1129,-4.1129,-4.1157,-4.1041,-4.1065,-4.1186,-4.1041,-4.0585,-3.9973,-4.0193,-3.975,-3.9088,-3.9911,-3.9687,-3.8888,-3.9463,-3.9039,-3.8603,-3.831,-3.792,-3.7647,-3.7553,-3.6852,-3.6221,-3.6032,-3.5441,-3.4999,-3.4954,-3.4801,-3.4737,-3.4758,-3.4747,-3.4758,-3.4827,-3.3704,-3.3053,-3.3072,-3.1977,-3.1656,-3.226,-3.1468,-3.1044,-3.0998,-3.0249,-3.0055,-3.0377,-3.0051,-3.037,-3.1185,-3.0654,-3.0978,-3.1936,-3.2268,-3.2354,-3.2317,-3.2825,-3.3033,-3.307,-3.3401,-3.3647,-3.3893,-3.4523,-3.448,-3.4122,-3.4416,-3.4397,-3.4257,-3.4136,-3.3959,-3.3807,-3.3807,-3.3807,-3.3807,-3.3807,-3.3807,-3.388,-3.4211,-3.427,-3.4399,-3.4894,-3.5261,-3.5899,-3.7235,-3.7492,-3.7749,-3.856,-3.8564,-3.8421,-3.8323,-3.8121,-3.804,-3.8169,-3.8814,-3.9546,-4.0314,-4.0862,-4.1287,-4.1481,-4.1373,-4.1163,-4.0935,-4.0912,-4.0912,-4.0912,-4.0912,-4.0912,-4.0912,-4.0959,-4.1023,-4.1093,-4.1146,-4.1175,-4.1175,-4.1111,-4.1088,-4.1088,-4.1099,-4.1099,-4.1088,-4.1029,-4.1029,-4.1047,-4.0596,-4.0193,-3.9824,-3.9951,-3.9595,-3.9112,-3.9756,-3.941,-3.8543,-3.9451,-3.921,-3.8933,-3.8204,-3.7353,-3.6804,-3.6864,-3.6214,-3.5623,-3.5425,-3.5227,-3.5081,-3.5006,-3.4772,-3.4634,-3.4697,-3.4645,-3.4634,-3.4706,-3.319,-3.2344,-3.2402,-3.0799,-3.0602,-3.2061,-3.1299,-3.0885,-3.0876,-3.0203,-3.0311,-3.1087,-3.0345,-3.0495,-3.1404,-3.1328,-3.1355,-3.146,-3.22,-3.2466,-3.24,-3.2402,-3.2392,-3.2468,-3.3261,-3.31,-3.2675,-3.4141,-3.4116,-3.3468,-3.4132,-3.4221,-3.4074,-3.4074,-3.4002,-3.3899,-3.3825,-3.3844,-3.3899,-3.3825,-3.3807,-3.3972,-3.4711,-3.5023,-3.5151,-3.5206,-3.5844,-3.6648,-3.7437,-3.7588,-3.7796,-3.853,-3.8611,-3.8499,-3.8256,-3.8262,-3.838,-3.8686,-3.947,-4.0217,-4.0831,-4.1216,-4.1445,-4.1445,-4.1134,-4.0912,-4.0912,-4.0912,-4.0912,-4.0912,-4.0912,-4.0877,-4.0808,-4.0919,-4.0932,-4.088,-4.0932,-4.1024,-4.1093,-4.0959,-4.0912,-4.0894,-4.1023,-4.1023,-4.0912,-4.1023,-4.0971,-4.0739,-3.9991,-3.9612,-3.9439,-3.8836,-3.9008,-3.9508,-3.8836,-3.8594,-3.8474,-3.8501,-3.7417,-3.6474,-3.6285,-3.6106,-3.596,-3.5989,-3.5829,-3.5653,-3.5501,-3.535,-3.5184,-3.5015,-3.4802,-3.4716,-3.4768,-3.4727,-3.4676,-3.4687,-3.3765,-3.3259,-3.3308,-3.1657,-3.0932,-3.1318,-3.0461,-2.9991,-2.9983,-2.9821,-3.0187,-3.1016,-3.0836,-3.1552,-3.2987,-3.2401,-3.2495,-3.3091,-3.3326,-3.3023,-3.2438,-3.2909,-3.3093,-3.3091,-3.3181,-3.3515,-3.3997,-3.4342,-3.4228,-3.3931,-3.393,-3.3895,-3.3855,-3.3855,-3.4256,-3.4619,-3.399,-3.4252,-3.4601,-3.3972,-3.3807,-3.3844,-3.4027,-3.5055,-3.6174,-3.6798,-3.7107,-3.7474,-3.8267,-3.8277,-3.8188,-3.8352,-3.8001,-3.765,-3.7613,-3.7869,-3.8091,-3.8169,-3.9178,-3.9979,-4.0132,-4.0665,-4.1018,-4.1018,-4.0942,-4.0912,-4.0912,-4.0912,-4.0912,-4.0912,-4.0912,-4.0618,-3.9974,-3.998,-3.9727,-3.914,-3.9709,-4.0377,-4.1093,-4.0959,-4.0912,-4.0912,-4.0935,-4.0935,-4.0912,-4.0935,-4.0573,-3.9939,-3.9767,-3.9008,-3.803,-3.8444,-3.8703,-3.8819,-3.8646,-3.8594,-3.8387,-3.7862,-3.7259,-3.6682,-3.5896,-3.5722,-3.5708,-3.5742,-3.5713,-3.5694,-3.5648,-3.5502,-3.5343,-3.5205,-3.499,-3.4831,-3.4798,-3.4747,-3.4708,-3.4747,-3.3973,-3.3333,-3.294,-3.1685,-3.081,-3.0443,-2.9945,-2.9692,-2.9701,-3.0114,-3.0753,-3.1563,-3.161,-3.2289,-3.3477,-3.3091,-3.3119,-3.3485,-3.3929,-3.3824,-3.3377,-3.3703,-3.3821,-3.3829,-3.3747,-3.3997,-3.4393,-3.4293,-3.4124,-3.3934,-3.3847,-3.3807,-3.3862,-3.4252,-3.433,-3.4282,-3.4241,-3.426,-3.4191,-3.3771,-3.3726,-3.399,-3.4798,-3.5642,-3.6303,-3.6303,-3.7221,-3.8065,-3.812,-3.8324,-3.8453,-3.8323,-3.8036,-3.7847,-3.7872,-3.8064,-3.8348,-3.8829,-3.948,-4.0031,-4.0326,-4.0694,-4.0912,-4.0912,-4.0567,-4.0342,-4.0342,-4.0014,-3.9807,-3.9807,-3.9807,-3.9618,-3.9181,-3.9508,-3.9508,-3.9129,-3.9888,-4.0331,-4.0429,-4.0366,-4.0152,-3.9825,-4.0187,-4.0152,-3.9842,-4.0584,-4.0446,-3.9664,-3.9319,-3.8715,-3.8047,-3.8065,-3.8306,-3.8543,-3.8203,-3.7818,-3.7387,-3.7434,-3.7482,-3.7428,-3.6043,-3.5745,-3.5747,-3.5784,-3.5751,-3.5722,-3.5761,-3.5596,-3.5451,-3.5371,-3.5144,-3.4926,-3.4809,-3.4758,-3.4747,-3.4788,-3.3975,-3.3258,-3.2693,-3.1732,-3.0885,-3.0171,-3.0002,-2.9842,-2.9701,-3.0406,-3.1167,-3.2005,-3.2156,-3.2664,-3.3475,-3.3597,-3.3592,-3.3516,-3.425,-3.4495,-3.4404,-3.4351,-3.434,-3.434,-3.4305,-3.4293,-3.4281,-3.4111,-3.3934,-3.3807,-3.3807,-3.3807,-3.3917,-3.4582,-3.431,-3.388,-3.4502,-3.4309,-3.3877,-3.3851,-3.3963,-3.4416,-3.5806,-3.6245,-3.6117,-3.5261,-3.6945,-3.8505,-3.7841,-3.8151,-3.8504,-3.8404,-3.8304,-3.8313,-3.8461,-3.8589,-3.8954,-3.977,-3.9997,-4.028,-4.0825,-4.0912,-4.086,-4.0722,-4.0077,-3.9646,-3.9508,-3.8939,-3.8594,-3.8594,-3.8715,-3.8663,-3.8427,-3.925,-3.9577,-3.9319,-4.0256,-4.0284,-3.9508,-3.9629,-3.937,-3.8801,-3.9422,-3.9439,-3.9065,-4.0342,-4.0446,-3.9629,-3.8888,-3.8525,-3.8336,-3.7599,-3.7818,-3.8525,-3.7927,-3.7116,-3.6301,-3.7137,-3.6567,-3.6062,-3.5834,-3.5791,-3.5786,-3.581,-3.5786,-3.576,-3.5639,-3.5501,-3.5376,-3.5239,-3.5038,-3.4878,-3.4798,-3.4788,-3.4788,-3.4798,-3.3986,-3.3817,-3.449,-3.2987,-3.2072,-3.1949,-3.1205,-3.0443,-2.9701,-2.9701,-3.0198,-3.1167,-3.1703,-3.2457,-3.3355,-3.3986,-3.4229,-3.419,-3.436,-3.4427,-3.4374,-3.4209,-3.4136,-3.4124,-3.3947,-3.3868,-3.3868,-3.3842,-3.3815,-3.3807,-3.3807,-3.3807,-3.3825,-3.3935,-3.4348,-3.4773,-3.4644,-3.5024,-3.545,-3.5213,-3.5164,-3.5251,-3.5467,-3.6041,-3.6346,-3.5521,-3.7082,-3.867,-3.856,-3.8214,-3.8095,-3.8618,-3.8348,-3.8211,-3.8754,-3.9325,-3.974,-3.9881,-4.0395,-4.0791,-4.0894,-4.0912,-4.0636,-3.9922,-3.975,-3.9439,-3.8784,-3.8646,-3.8594,-3.8594,-3.9198,-3.8957,-3.7702,-3.8974,-3.9077,-3.7823,-3.9163,-3.9491,-3.875,-3.9388,-3.9646,-3.9543,-3.9646,-4.0026,-4.0601,-4.0808,-4.0446,-3.9629,-3.8888,-3.8215,-3.7581,-3.6766,-3.7335,-3.8599,-3.8474,-3.7525,-3.6301,-3.7169,-3.6789,-3.6377,-3.5872,-3.5795,-3.5795,-3.5795,-3.5795,-3.5782,-3.5722,-3.5582,-3.5457,-3.5333,-3.5072,-3.4888,-3.4859,-3.4859,-3.4849,-3.4859,-3.449,-3.4244,-3.4188,-3.3006,-3.2137,-3.1647,-3.0706,-3.0049,-2.9701,-3.0124,-3.0527,-3.0912,-3.2164,-3.2909,-3.329,-3.4008,-3.4281,-3.4185,-3.4185,-3.4136,-3.4061,-3.3972,-3.3934,-3.3921,-3.3829,-3.3807,-3.3807,-3.3807,-3.3807,-3.3807,-3.3807,-3.3807,-3.388,-3.4325,-3.4542,-3.467,-3.4999,-3.5233,-3.5337,-3.5202,-3.5287,-3.5495,-3.5961,-3.6337,-3.6606,-3.6714,-3.7512,-3.817,-3.8101,-3.8221,-3.8526,-3.9043,-3.8924,-3.8937,-3.9385,-3.9713,-4.0049,-4.0412,-4.0711,-4.0912,-4.0912,-4.0515,-4.0273,-4.0377,-3.9215,-3.8491,-3.8577,-3.7784,-3.7318,-3.7318,-3.7611,-3.7491,-3.6853,-3.8301,-3.8577,-3.7512,-3.8957,-3.9112,-3.7996,-3.8715,-3.9077,-3.9077,-3.9077,-3.9267,-3.9652,-4.0043,-4.0026,-3.9629,-3.8888,-3.8405,-3.7996,-3.6766,-3.6991,-3.7996,-3.7996,-3.7542,-3.6904]},{"header":{"parameterUnit":"m.s-1","parameterCategory":1,"la1":30.6,"la2":28.766,"lo1":-90.7593,"lo2":-88.6598,"dy":0.0162,"dx":0.0183,"nx":116,"ny":114,"refTime":"2023-06-30T12:00:00:Z","depth":0,"parameterNumber":3,"parameterNumberName":"V-component_of_WINDS"},"data":[0.0,0.0,0.0,0.0,0.0,0.0,0.0,0.0,0.0,0.0,0.0,0.0,0.0,0.0,0.0,0.0,0.0,0.0,0.0,0.0,0.0,0.0,0.0,0.0,0.0,0.0,0.0,0.0,0.0,0.0,0.0,0.0,0.0,0.0,0.0,0.0,0.0,0.0,0.0,0.0,0.0,0.0,0.0,0.0,0.0,0.0,0.0,0.0,0.0,0.0,0.0,0.0,0.0,0.0,0.0,0.0,0.0,0.0,0.0,0.0,0.0,0.0,0.0,0.0,0.0,0.0,0.0,0.0,0.0,0.0,0.0,0.0,0.0,0.0,0.0,0.0,0.0,0.0,0.0,0.0,0.0,0.0,0.0,0.0,0.0,0.0,0.0,0.0,0.0,0.0,0.0,0.0,0.0,0.0,0.0,0.0,0.0,0.0,0.0,0.0,0.0,0.0,0.0,0.0,0.0,0.0,0.0,0.0,0.0,0.0,0.0,0.0,0.0,0.0,0.0,0.0,0.0,0.0,0.0,0.0,0.0,0.0,0.0,0.0,0.0,0.0,0.0,0.0,0.0,0.0,0.0,0.0,0.0,0.0,0.0,0.0,0.0,0.0,0.0,0.0,0.0,0.0,0.0,0.0,0.0,0.0,0.0,0.0,0.0,0.0,0.0,0.0,0.0,0.0,0.0,0.0,0.0,0.0,0.0,0.0,0.0,0.0,0.0,0.0,0.0,0.0,0.0,0.0,0.0,0.0,0.0,0.0,0.0,0.0,0.0,0.0,0.0,0.0,0.0,0.0,0.0,0.0,0.0,0.0,0.0,0.0,0.0,0.0,0.0,0.0,0.0,0.0,0.0,0.0,0.0,0.0,0.0,0.0,0.0,0.0,0.0,0.0,0.0,0.0,0.0,0.0,0.0,0.0,0.0,0.0,0.0,0.0,0.0,0.0,0.0,0.0,0.0,0.0,0.0,0.0,0.0,0.0,0.0,0.0,0.0,0.0,0.0,0.0,0.0,0.0,0.0,0.0,0.0,0.0,0.0,0.0,0.0,0.0,0.0,0.0,0.0,0.0,0.0,0.0,0.0,0.0,0.0,0.0,0.0,0.0,0.0,0.0,0.0,0.0,0.0,0.0,0.0,0.0,0.0,0.0,0.0,0.0,0.0,0.0,0.0,0.0,0.0,0.0,0.0,0.0,0.0,0.0,0.0,0.0,0.0,0.0,0.0,0.0,0.0,0.0,0.0,0.0,0.0,0.0,0.0,0.0,0.0,0.0,0.0,0.0,0.0,0.0,0.0,0.0,0.0,0.0,0.0,0.0,0.0,0.0,0.0,0.0,0.0,0.0,0.0,0.0,0.0,0.0,0.0,0.0,0.0,0.0,0.0,0.0,0.0,0.0,0.0,0.0,0.0,0.0,0.0,0.0,0.0,0.0,0.0,0.0,0.0,0.0,0.0,0.0,0.0,0.0,0.0,0.0,0.0,0.0,0.0,0.0,0.0,0.0,0.0,0.0,0.0,0.0,0.0,0.0,0.0,0.0,0.0,0.0,0.0,0.0,0.0,0.0,0.0,0.0,0.0,0.0,0.0,0.0,0.0,0.0,0.0,0.0,0.0,0.0,0.0,0.0,0.0,0.0,0.0,0.0,0.0,0.0,0.0,0.0,0.0,0.0,0.0,0.0,0.0,0.0,0.0,0.0,0.0,0.0,0.0,0.0,0.0,0.0,0.0,0.0,0.0,0.0,0.0,0.0,0.0,0.0,0.0,0.0,0.0,0.0,0.0,0.0,0.0,0.0,0.0,0.0,0.0,0.0,0.0,0.0,0.0,0.0,0.0,0.0,0.0,0.0,0.0,0.0,0.0,0.0,0.0,0.0,0.0,0.0,0.0,0.0,0.0,0.0,0.0,0.0,0.0,0.0,0.0,0.0,0.0,0.0,0.0,0.0,0.0,0.0,0.0,0.0,0.0,0.0,0.0,0.0,0.0,0.0,0.0,0.0,0.0,0.0,0.0,0.0,0.0,0.0,0.0,0.0,0.0,0.0,0.0,0.0,0.0,0.0,0.0,0.0,0.0,0.0,0.0,0.0,0.0,0.0,0.0,0.0,0.0,0.0,0.0,0.0,0.0,0.0,0.0,0.0,0.0,0.0,0.0,0.0,0.0,0.0,0.0,0.0,0.0,0.0,0.0,0.0,0.0,0.0,0.0,0.0,0.0,0.0,0.0,0.0,0.0,0.0,0.0,0.0,0.0,0.0,0.0,0.0,0.0,0.0,0.0,0.0,0.0,0.0,0.0,0.0,0.0,0.0,0.0,0.0,0.0,0.0,0.0,0.0,0.0,0.0,0.0,0.0,0.0,0.0,0.0,0.0,0.0,0.0,0.0,0.0,0.0,0.0,0.0,0.0,0.0,0.0,0.0,0.0,0.0,0.0,0.0,0.0,0.0,0.0,0.0,0.0,0.0,0.0,0.0,0.0,0.0,0.0,0.0,0.0,0.0,0.0,0.0,0.0,0.0,0.0,0.0,0.0,0.0,0.0,0.0,0.0,0.0,0.0,0.0,0.0,0.0,0.0,0.0,0.0,0.0,0.0,0.0,0.0,0.0,0.0,0.0,0.0,0.0,0.0,0.0,0.0,0.0,0.0,0.0,0.0,0.0,0.0,0.0,0.0,0.0,0.0,0.0,0.0,0.0,0.0,0.0,0.0,0.0,0.0,0.0,0.0,0.0,0.0,0.0,0.0,0.0,0.0,0.0,0.0,0.0,0.0,0.0,0.0,0.0,0.0,0.0,0.0,0.0,0.0,0.0,0.0,0.0,0.0,0.0,0.0,0.0,0.0,0.0,0.0,0.0,0.0,0.0,0.0,0.0,0.0,0.0,0.0,0.0,0.0,0.0,0.0,0.0,0.0,0.0,0.0,0.0,0.0,0.0,0.0,0.0,0.0,0.0,0.0,0.0,0.0,0.0,0.0,0.0,0.0,0.0,0.0,0.0,0.0,0.0,0.0,0.0,0.0,0.0,0.0,0.0,0.0,0.0,0.0,0.0,0.0,0.0,0.0,0.0,0.0,0.0,0.0,0.0,0.0,0.0,0.0,0.0,0.0,0.0,0.0,0.0,0.0,0.0,0.0,0.0,0.0,0.0,0.0,0.0,0.0,0.0,0.0,0.0,0.0,0.0,0.0,0.0,0.0,0.0,0.0,0.0,0.0,0.0,0.0,0.0,0.0,0.0,0.0,0.0,0.0,0.0,0.0,0.0,0.0,0.0,0.0,0.0,0.0,0.0,0.0,0.0,0.0,0.0,0.0,0.0,0.0,0.0,0.0,0.0,0.0,0.0,0.0,0.0,0.0,0.0,0.0,0.0,0.0,0.0,0.0,0.0,0.0,0.0,0.0,0.0,0.0,0.0,0.0,0.0,0.0,0.0,0.0,0.0,0.0,0.0,0.0,0.0,0.0,0.0,0.0,0.0,0.0,0.0,0.0,0.0,0.0,0.0,0.0,0.0,0.0,0.0,0.0,0.0,0.0,0.0,0.0,0.0,0.0,0.0,0.0,0.0,0.0,0.0,0.0,0.0,0.0,0.0,0.0,0.0,0.0,0.0,0.0,0.0,0.0,0.0,0.0,0.0,0.0,0.0,0.0,0.0,0.0,0.0,0.0,0.0,0.0,0.0,0.0,0.0,0.0,0.0,0.0,0.0,0.0,0.0,0.0,0.0,0.0,0.0,0.0,0.0,0.0,0.0,0.0,0.0,0.0,0.0,0.0,0.0,0.0,0.0,0.0,0.0,0.0,0.0,0.0,0.0,0.0,0.0,0.0,0.0,0.0,0.0,0.0,0.0,0.0,0.0,0.0,0.0,0.0,0.0,0.0,0.0,0.0,0.0,0.0,0.0,0.0,0.0,0.0,0.0,0.0,0.0,0.0,0.0,0.0,0.0,0.0,0.0,0.0,0.0,0.0,0.0,0.0,0.0,0.0,0.0,0.0,0.0,0.0,0.0,0.0,0.0,0.0,0.0,0.0,0.0,0.0,0.0,0.0,0.0,0.0,0.0,0.0,0.0,0.0,0.0,0.0,0.0,0.0,0.0,0.0,0.0,0.0,0.0,0.0,0.0,0.0,0.0,0.0,0.0,0.0,0.0,0.0,0.0,0.0,0.0,0.0,0.0,0.0,0.0,0.0,0.0,0.0,0.0,0.0,0.0,0.0,0.0,0.0,0.0,0.0,0.0,0.0,0.0,0.0,0.0,0.0,0.0,0.0,0.0,0.0,0.0,0.0,0.0,0.0,0.0,0.0,0.0,0.0,0.0,0.0,0.0,0.0,0.0,0.0,0.0,0.0,0.0,0.0,0.0,0.0,0.0,0.0,0.0,0.0,0.0,0.0,0.0,0.0,0.0,0.0,0.0,0.0,0.0,0.0,0.0,0.0,0.0,0.0,0.0,0.0,0.0,0.0,0.0,0.0,0.0,0.0,0.0,0.0,0.0,0.0,0.0,0.0,0.0,0.0,0.0,0.0,0.0,0.0,0.0,0.0,0.0,0.0,0.0,0.0,0.0,0.0,0.0,0.0,0.0,0.0,0.0,0.0,0.0,0.0,0.0,0.0,0.0,0.0,0.0,0.0,0.0,0.0,0.0,0.0,0.0,0.0,0.0,0.0,0.0,0.0,0.0,0.0,0.0,0.0,0.0,0.0,0.0,0.0,0.0,0.0,0.0,0.0,0.0,0.0,0.0,0.0,0.0,0.0,0.0,0.0,0.0,0.0,0.0,0.0,0.0,0.0,0.0,0.0,0.0,0.0,0.0,0.0,0.0,0.0,0.0,0.0,0.0,0.0,0.0,0.0,0.0,0.0,0.0,0.0,0.0,0.0,0.0,0.0,0.0,0.0,0.0,0.0,0.0,0.0,0.0,0.0,0.0,0.0,0.0,0.0,0.0,0.0,0.0,0.0,0.0,0.0,0.0,0.0,0.0,0.0,0.0,0.0,0.0,0.0,0.0,0.0,0.0,0.0,0.0,0.0,0.0,0.0,0.0,0.0,0.0,0.0,0.0,0.0,0.0,0.0,0.0,0.0,0.0,0.0,0.0,0.0,0.0,0.0,0.0,0.0,0.0,0.0,0.0,0.0,0.0,0.0,0.0,0.0,0.0,0.0,0.0,0.0,0.0,0.0,0.0,0.0,0.0,0.0,0.0,0.0,0.0,0.0,0.0,0.0,0.0,0.0,0.0,0.0,0.0,0.0,0.0,0.0,0.0,0.0,0.0,0.0,0.0,0.0,0.0,0.0,0.0,0.0,0.0,0.0,0.0,0.0,0.0,0.0,0.0,0.0,0.0,0.0,0.0,0.0,0.0,0.0,0.0,0.0,0.0,0.0,0.0,0.0,0.0,0.0,0.0,0.0,0.0,0.0,0.0,0.0,0.0,0.0,0.0,0.0,0.0,0.0,0.0,0.0,0.0,0.0,0.0,0.0,0.0,0.0,0.0,0.0,0.0,0.0,0.0,0.0,0.0,0.0,0.0,0.0,0.0,0.0,0.0,0.0,0.0,0.0,0.0,0.0,0.0,0.0,0.0,0.0,0.0,0.0,0.0,0.0,0.0,0.0,0.0,0.0,0.0,0.0,0.0,0.0,0.0,0.0,0.0,0.0,0.0,0.0,0.0,0.0,0.0,0.0,0.0,0.0,0.0,0.0,0.0,0.0,0.0,0.0,0.0,0.0,0.0,0.0,0.0,0.0,0.0,0.0,0.0,0.0,0.0,0.0,0.0,0.0,0.0,0.0,0.0,0.0,0.0,0.0,0.0,0.0,0.0,0.0,0.0,0.0,0.0,0.0,0.0,0.0,0.0,0.0,0.0,0.0,0.0,0.0,0.0,0.0,0.0,0.0,0.0,0.0,0.0,0.0,0.0,0.0,0.0,0.0,0.0,0.0,0.0,0.0,0.0,0.0,0.0,0.0,0.0,0.0,0.0,0.0,0.0,0.0,0.0,0.0,0.0,0.0,0.0,0.0,0.0,0.0,0.0,0.0,0.0,0.0,0.0,0.0,0.0,0.0,0.0,0.0,0.0,0.0,0.0,0.0,0.0,0.0,0.0,0.0,0.6676,0.0,0.0,0.0,0.0,0.0,0.0,0.0,0.0,0.0,0.0,0.0,0.0,0.0,0.0,0.0,0.0,0.0,0.0,0.0,0.0,0.0,0.0,0.0,0.0,0.0,0.0,0.0,0.0,0.0,0.0,0.0,0.0,0.0,0.0,0.0,0.0,0.0,0.0,0.0,1.7053,1.7313,1.729,1.6714,1.5106,1.2651,0.0,0.0,0.0,0.0,0.0,0.0,0.0,0.0,0.0,0.0,0.0,0.0,0.0,0.0,0.0,0.0,0.0,0.0,0.0,0.0,0.0,0.0,0.0,0.0,0.0,0.0,0.0,0.0,0.0,0.0,0.0,0.0,0.0,0.0,0.0,0.0,0.0,0.0,0.0,0.0,0.0,0.0,0.0,0.0,0.0,0.0,0.0,0.0,0.0,0.0,0.0,0.0,0.0,0.0,0.0,0.0,0.0,0.0,0.0,0.0,0.0,0.0,0.0,0.0,0.0,0.0,0.0,0.0,0.0,0.0,0.0,0.6872,0.0,0.0,0.0,0.0,0.0,0.0,0.0,0.0,0.0,0.0,0.0,0.0,0.0,0.0,0.0,0.0,0.0,0.0,0.0,0.0,0.0,0.0,0.0,0.0,0.0,0.0,0.0,0.0,0.0,0.0,0.0,0.0,0.0,0.0,0.0,1.7148,1.7287,1.7378,1.8608,1.9902,2.1231,2.0324,1.7858,1.4209,1.3135,0.0,0.0,0.0,0.0,0.0,0.0,0.0,0.0,0.0,0.0,0.0,0.0,0.0,0.0,0.0,0.0,0.0,0.0,0.0,0.0,0.0,0.0,0.0,0.0,0.0,0.0,0.0,0.0,0.0,0.0,0.0,0.0,0.0,0.0,0.0,0.0,0.0,0.0,0.0,0.0,0.0,0.0,0.0,0.0,0.0,0.0,0.0,0.0,0.0,0.0,0.0,0.0,0.0,0.0,0.0,0.0,0.0,0.0,0.0,0.0,0.0,0.0,0.0,1.0357,1.0657,1.0863,1.0323,1.0328,1.0619,0.9236,0.8487,0.8099,0.0,0.0,0.0,0.0,0.0,0.0,0.0,0.0,0.0,0.0,0.0,0.0,0.0,0.0,0.0,0.0,0.0,0.0,0.0,0.0,0.0,0.0,0.0,2.0506,2.0009,2.0139,0.0,0.0,0.0,0.0,0.0,0.0,0.0,1.8539,1.8529,1.866,1.892,2.0192,2.1212,2.198,2.1615,2.1228,2.0712,1.776,1.5799,1.4592,0.0,0.0,0.0,0.0,0.0,0.0,0.0,0.0,0.0,0.0,0.0,0.0,0.0,0.0,0.0,0.0,0.0,0.0,0.0,0.0,0.0,0.0,0.0,0.0,0.0,0.0,0.0,0.0,0.0,0.0,0.0,0.0,0.0,0.0,0.0,0.0,0.0,0.0,0.0,0.0,0.0,1.5922,1.6429,0.0,0.0,0.0,0.0,0.0,0.0,0.0,0.0,0.0,0.0,0.0,0.0,0.0,0.9937,0.9937,1.0661,1.0968,1.0992,1.1589,1.179,1.1619,1.1457,1.1533,1.1808,1.0619,0.0,0.9179,0.8606,0.0,0.0,0.0,0.0,0.0,0.0,0.0,0.0,0.0,0.0,0.0,0.0,0.0,0.0,0.0,0.0,0.0,0.0,0.0,0.0,0.0,0.0,2.1502,2.1099,2.1704,2.175,0.0,0.0,0.0,0.0,0.0,1.9539,1.9088,1.8927,1.962,2.1151,2.2426,2.3616,2.4721,2.4472,2.4163,2.3793,2.2505,2.0115,1.7035,1.5369,0.0,0.0,0.0,0.0,0.0,0.0,0.0,0.0,0.0,0.0,0.0,0.0,0.0,0.0,0.0,0.0,0.0,0.0,0.0,0.0,0.0,0.0,0.0,0.0,0.0,0.0,0.0,0.0,0.0,0.0,0.0,0.0,0.0,0.0,0.0,0.0,0.0,0.0,0.0,1.5101,1.6037,1.5809,1.5683,1.5182,0.0,0.0,0.0,0.0,0.0,0.0,0.0,0.0,0.0,1.1735,1.1962,1.1699,1.0869,1.1463,1.1837,1.1921,1.2271,1.2403,1.2332,1.2182,1.2145,1.2198,1.1462,1.0866,1.0254,0.9548,0.8582,0.7447,0.0,0.0,0.0,0.0,0.0,0.2257,0.0,0.0,0.0,0.0,0.0,0.0,0.0,0.0,0.0,0.0,0.0,0.0,2.1415,2.237,2.2915,2.2689,2.3462,2.3427,2.225,0.0,0.0,0.0,2.0249,1.9911,1.9606,2.0062,2.1302,2.3384,2.4792,2.5937,2.688,2.6707,2.6269,2.5676,2.5541,2.3227,1.9283,1.7576,1.6519,1.5916,0.0,0.0,0.0,0.0,0.0,0.0,0.0,0.0,0.0,0.0,0.0,0.0,0.0,0.0,0.0,0.0,0.0,0.0,0.0,0.0,0.0,0.0,0.0,0.0,0.0,0.0,0.0,0.0,0.0,0.0,0.0,0.0,0.0,0.0,0.0,0.0,0.0,1.5464,1.6297,1.5569,1.62,1.6035,0.0,0.0,0.0,0.0,0.0,0.0,1.4248,1.449,1.4353,1.36,1.4066,1.3911,1.2956,1.2974,1.3066,1.3176,1.2872,1.2769,1.2725,1.2573,1.2423,1.2274,1.1817,1.1438,1.1067,1.0231,0.9463,0.8573,0.7386,0.6278,0.5339,0.4792,0.4385,0.3979,0.0,0.0,0.0,0.0,0.0,0.0,0.0,0.0,0.0,0.0,0.0,2.3364,2.3606,2.4441,2.4974,2.5031,2.5093,2.4404,2.2762,2.3219,2.2638,2.0691,2.1044,2.1008,2.0366,2.2837,2.4487,2.5243,2.7182,2.7747,2.7098,2.716,2.7078,2.698,2.5744,2.3798,2.1307,2.0178,1.8999,1.769,1.598,0.0,0.0,0.0,0.0,0.0,0.0,0.0,0.0,0.0,0.0,0.0,0.0,0.0,0.0,0.0,0.0,0.0,0.0,0.0,0.0,0.0,0.0,0.0,0.0,0.0,0.0,0.0,0.0,0.0,0.0,0.0,0.0,0.0,0.0,0.0,0.0,0.0,0.0,1.6598,1.7826,0.0,0.0,0.0,0.0,1.5817,1.5806,1.6309,1.7473,1.6486,1.6446,1.7571,1.6873,1.6646,1.7071,1.5778,1.5039,1.5051,1.3663,1.2871,1.2725,1.2573,1.2423,1.2274,1.1595,1.1378,1.1375,1.0975,1.0063,0.8801,0.7598,0.6727,0.6026,0.5856,0.5091,0.4222,0.0,0.0,0.0,0.0,0.0,0.0,0.0,0.0,0.0,2.1862,2.2937,2.3652,2.3665,2.5294,2.6345,2.6287,2.6908,2.6768,2.5609,2.4953,2.4025,2.2853,2.1868,2.1584,2.2056,2.3782,2.5214,2.6376,2.7341,2.767,2.7279,2.7519,2.7292,2.6745,2.65,2.5431,2.3795,2.2018,2.0657,1.9542,1.8072,1.69,0.0,0.0,0.0,0.0,0.0,0.0,0.0,0.0,0.0,0.0,0.0,0.0,0.0,0.0,0.0,0.0,0.0,0.0,0.0,0.0,0.0,0.0,0.0,0.0,0.0,0.0,0.0,0.0,0.0,0.0,0.0,0.0,0.0,0.0,0.0,0.0,0.0,1.7257,1.8239,0.0,1.6887,1.72,1.7349,1.694,1.7451,1.8107,1.8845,1.8738,1.8565,1.8365,1.8365,1.8128,1.7505,1.7084,1.6807,1.6605,1.5128,1.4232,1.3804,1.2842,1.2284,1.2132,1.1774,1.1428,1.1087,1.0866,1.0708,1.0678,0.9707,0.9169,0.8836,0.7838,0.7163,0.668,0.0,0.0,0.0,0.0,0.0,0.0,0.0,0.0,0.0,2.2496,2.3566,2.4325,2.4636,2.6397,2.7556,2.7558,2.8337,2.8263,2.6898,2.599,2.4891,2.3583,2.2434,2.2608,2.4218,2.5083,2.5943,2.6834,2.7398,2.7305,2.6639,2.7009,2.6861,2.6277,2.6489,2.6227,2.5525,2.3624,2.2246,2.1261,1.972,1.8463,1.7392,0.0,0.0,0.0,0.0,0.0,0.0,0.0,0.0,0.0,0.0,0.0,0.0,0.0,0.0,0.0,0.0,0.0,0.0,0.0,0.0,0.0,0.0,0.0,0.0,0.0,0.0,0.0,0.0,0.0,0.0,0.0,0.0,0.0,0.0,1.7156,1.8267,1.7594,1.8777,1.9128,1.7807,1.8367,1.8729,1.8293,1.8864,1.9402,1.972,1.9961,1.9838,1.9229,1.9603,1.9488,1.8871,1.8389,1.8043,1.7905,1.6393,1.5274,1.4362,1.3401,1.2589,1.1833,1.1782,1.1446,1.1094,1.0944,1.1347,1.1835,1.0674,1.0241,1.0107,0.8998,0.8437,0.7978,0.0,0.0,0.0,0.0,0.0,0.0,0.0,0.0,0.0,2.3268,2.4365,2.552,2.6542,2.7698,2.8528,2.8784,2.9418,2.8773,2.6388,2.6283,2.518,2.2764,2.2868,2.4158,2.6679,2.6844,2.6867,2.6775,2.7472,2.6909,2.5251,2.5792,2.5949,2.5754,2.5766,2.6081,2.6455,2.4946,2.3794,2.2903,2.0833,1.9802,1.9373,0.0,0.0,0.0,0.0,0.0,0.0,0.0,0.0,0.0,0.0,0.0,0.0,0.0,0.0,0.0,0.0,0.0,0.0,0.0,0.0,0.0,0.0,0.0,0.0,0.0,0.0,0.0,0.0,0.0,0.0,0.0,0.0,0.0,1.7081,1.8705,1.947,1.7696,1.9469,2.0318,1.9,1.9774,2.0265,1.9946,2.0091,2.0231,2.0237,2.0215,2.0321,2.0528,2.0511,2.0773,2.1273,1.97,1.8906,1.9033,1.7419,1.5869,1.4387,1.4317,1.3241,1.147,1.1548,1.1413,1.1195,1.1418,1.1792,1.2103,1.0389,0.9721,0.9712,0.9244,0.8691,0.8002,0.0,0.0,0.0,0.0,0.0,0.0,0.0,0.0,2.2262,2.2507,2.4213,2.5492,2.5785,2.7617,2.8869,2.8948,2.9353,2.9078,2.7664,2.6635,2.5332,2.369,2.4588,2.585,2.741,2.6873,2.7349,2.8907,2.8188,2.8004,2.8299,2.8695,2.8166,2.6946,2.6913,2.6591,2.5898,2.4777,2.4449,2.4476,2.2584,2.115,2.0232,0.0,0.0,0.0,0.0,0.0,0.0,0.0,0.0,0.0,0.0,0.0,0.0,0.0,0.0,0.0,0.0,0.0,0.0,0.0,0.0,0.0,0.0,0.0,0.0,0.0,0.0,0.0,0.0,0.0,0.0,0.0,2.1756,2.2176,1.9421,2.0107,2.0619,2.0153,2.0522,2.07,2.0195,2.0481,2.0622,2.046,2.0425,2.0538,2.0705,2.0226,2.0141,2.0522,2.0275,2.0433,2.0991,2.0733,2.0606,2.052,1.8925,1.7904,1.7171,1.5028,1.3662,1.2986,1.1924,1.1244,1.0857,1.0898,1.1288,1.1743,1.1073,1.0651,1.0373,0.9676,0.8825,0.7994,0.0,0.0,0.0,0.0,0.0,0.0,0.0,0.0,2.1847,2.211,2.4099,2.562,2.5893,2.7715,2.8924,2.8924,2.9637,2.938,2.7702,2.6346,2.5475,2.5273,2.5774,2.6649,2.7906,2.7311,2.7428,2.8391,2.8178,2.8106,2.8309,2.8896,2.8725,2.7839,2.7049,2.6545,2.6172,2.5,2.4907,2.5375,2.4024,2.2719,2.1554,2.1937,2.1406,2.0614,2.1375,2.1879,2.2043,2.132,0.0,0.0,0.0,0.0,0.0,0.0,0.0,0.0,0.0,0.0,0.0,0.0,0.0,0.0,0.0,0.0,0.0,0.0,0.0,0.0,0.0,0.0,0.0,0.0,2.3461,2.4114,2.2405,2.2773,2.2889,2.2022,2.1833,2.1475,2.0654,2.077,2.0807,2.066,2.0748,2.0791,2.0624,2.0317,2.0163,2.0084,2.0034,2.0093,2.0224,2.0694,2.0778,2.0684,1.9969,1.918,1.8336,1.5845,1.4252,0.0,1.1887,1.0985,1.0629,1.0694,1.0958,0.0,0.0,0.0,0.0,0.0,0.8805,0.8078,0.0,0.0,0.0,0.0,0.0,0.0,0.0,0.0,2.1362,2.2048,2.4087,2.5746,2.6423,2.7833,2.8778,2.8778,2.9773,2.9386,2.7002,2.5709,2.5577,2.6885,2.6449,2.6886,2.8244,2.7788,2.7342,2.6875,2.7773,2.7742,2.6943,2.7779,2.8269,2.8413,2.6768,2.6336,2.6708,2.5441,2.5174,2.5549,2.5034,2.4169,2.3244,2.3029,2.2638,2.2186,2.2495,2.2655,2.2757,2.2928,0.0,0.0,0.0,0.0,0.0,0.0,0.0,0.0,0.0,0.0,0.0,0.0,0.0,0.0,0.0,0.0,0.0,0.0,0.0,0.0,0.0,0.0,0.0,0.0,2.4844,2.5796,2.5577,2.6175,2.574,2.3531,2.3025,2.234,2.1023,2.0843,2.0807,2.066,2.0958,2.092,2.0285,0.0,0.0,0.0,0.0,1.9678,1.9299,1.9864,2.0163,2.0116,2.0463,1.9947,1.8573,1.6892,1.5128,1.3348,1.1813,1.0905,1.0504,1.0636,1.0799,1.0984,1.0984,1.1167,1.1237,0.9662,0.87,0.0,0.0,0.0,0.0,0.0,0.0,0.0,0.0,0.0,2.1394,2.2219,2.4198,2.5727,2.6291,2.7697,2.8649,2.8649,2.8667,2.8063,2.6602,2.5543,2.5457,2.6472,2.6754,2.7346,2.8292,2.7652,2.7663,2.847,2.8244,2.8415,2.9037,2.9223,2.8938,2.8347,2.8169,2.7178,2.5551,2.5505,2.5284,2.4953,2.4864,2.4772,2.486,2.5412,2.5679,2.5772,2.6154,2.6673,2.708,2.6162,2.5317,2.4819,2.623,2.484,0.0,0.0,0.0,0.0,0.0,0.0,0.0,0.0,0.0,0.0,0.0,0.0,0.0,0.0,0.0,0.0,0.0,0.0,0.0,2.4225,2.6041,2.7597,2.8412,2.8638,2.7619,2.4768,2.3428,2.2623,2.2484,2.1536,2.0807,2.066,2.0646,2.064,2.05,2.0249,1.9995,1.986,1.9456,1.9273,1.9299,1.9415,1.9713,2.0116,0.0,0.0,1.9861,1.8342,1.6624,1.4815,1.3273,1.1821,1.0493,1.0524,1.0643,1.0831,1.082,1.0995,1.1032,0.9913,0.9153,0.8596,0.0,0.0,0.0,0.0,0.0,0.0,0.0,0.0,2.0227,2.0684,2.2722,2.4382,2.4982,2.5944,2.6751,2.7209,2.7035,2.687,2.6754,2.6637,2.6788,2.7277,2.7458,2.7825,2.8442,2.8089,2.8178,2.881,2.8967,2.9068,2.9175,2.9606,2.9564,2.9122,2.8528,2.7672,2.6699,2.567,2.5229,2.5229,2.4804,2.5226,2.6136,2.634,2.6701,2.709,2.7503,2.8057,2.854,2.8267,2.808,2.808,2.8824,2.7893,2.6133,0.0,0.0,0.0,0.0,0.0,0.0,0.0,0.0,0.0,0.0,0.0,0.0,0.0,0.0,2.1886,2.2233,0.0,2.4114,2.5635,2.679,2.776,2.8633,2.8892,2.8297,2.6306,2.5306,2.4194,2.2697,2.2088,2.1295,2.0297,2.0508,2.0535,2.0292,2.0097,1.9865,1.951,1.9386,1.9168,1.8834,1.9162,1.9379,1.9547,1.9779,1.9926,1.9927,1.8418,1.7227,1.6211,1.3909,1.2448,1.1558,1.0618,1.0374,1.0528,1.0429,1.0526,1.0827,1.0336,0.9814,0.9223,0.0,0.0,0.0,0.0,0.0,0.0,0.0,0.0,0.0,0.0,2.1263,2.2914,2.3709,2.4047,2.4491,2.5153,2.531,2.5747,2.6635,2.7422,2.7951,2.816,2.8054,2.8195,2.8647,2.8618,2.8696,2.8847,2.9554,2.9501,2.8794,2.9501,2.9837,2.9774,2.8635,2.8165,2.8067,2.5981,2.5331,2.5514,2.4646,2.5302,2.6817,2.6645,2.7135,2.7918,2.8143,2.8412,2.8746,2.9438,3.0053,3.046,3.072,3.0535,2.9503,2.601,2.5956,0.0,0.0,0.0,0.0,0.0,0.0,0.0,0.0,2.2903,2.2602,2.2156,2.2476,2.3124,2.411,2.4364,2.5075,2.6898,2.7238,2.7546,2.8302,2.8591,2.8483,2.7855,2.7188,2.5922,2.3408,2.2865,2.2,2.0524,2.0457,2.033,1.9941,1.9994,1.9811,1.9162,1.9311,1.9085,1.8509,1.8888,1.9051,1.8916,1.9295,1.9492,1.9502,1.8267,1.7593,1.7134,1.4125,1.2816,1.2644,1.0798,1.0098,1.0261,1.0009,1.0182,1.0504,1.0796,1.0443,0.9801,0.0,0.0,0.0,0.0,0.0,0.0,0.0,0.0,0.0,0.0,0.0,0.0,0.0,0.0,2.3035,2.2747,2.3826,2.4736,2.5196,2.6355,2.7316,2.7989,2.8013,2.8301,2.8967,2.8717,2.891,2.9501,2.9606,2.9448,2.9079,2.9185,2.9185,2.9185,2.9343,2.8794,2.778,2.6771,2.5908,2.5174,2.4303,2.4842,2.6254,2.6763,2.8029,2.9519,2.9243,2.9,2.8865,2.9471,2.9482,2.9604,3.1888,3.2041,3.0905,2.882,2.7746,2.6523,2.3253,2.2794,2.3661,2.562,2.5478,2.5625,0.0,2.711,2.5297,2.5044,2.5111,2.5075,2.4664,2.5068,2.5784,2.6893,2.7393,2.7982,2.8964,2.89,2.8766,2.8664,2.7545,2.6683,2.6765,2.4246,2.2527,2.2345,2.0841,1.9979,1.9925,1.9677,1.9542,1.9461,1.9074,1.8826,1.8745,1.8433,1.836,1.8666,1.8552,1.8652,1.9035,1.8916,1.8154,1.6888,1.4063,1.2816,1.2644,1.0798,1.0039,1.0119,1.0116,1.0087,1.0253,1.0829,1.0818,1.0313,0.0,0.0,0.0,0.0,0.0,0.0,0.0,0.0,0.0,0.0,0.0,0.0,0.0,2.1658,2.1138,1.9942,2.16,2.3037,2.3828,2.5535,2.694,2.7981,2.7998,2.8401,2.9219,2.9133,2.9395,3.0074,3.0074,2.9849,2.9396,2.9396,2.929,2.9132,2.9237,2.9016,2.8475,2.7653,2.6844,2.6163,2.5293,2.5208,2.5586,2.6295,2.7174,2.7983,2.8203,2.8247,0.0,2.8543,2.9011,2.9766,3.1527,3.136,3.0262,2.8924,2.8025,2.7254,2.5977,2.5756,2.6128,2.7358,2.7858,2.7953,2.771,2.7009,2.6075,2.4711,2.47,2.5016,2.5166,2.5244,2.5627,2.6702,2.684,2.7069,2.7885,2.8084,2.8114,2.7909,2.7493,2.6732,2.5321,2.4183,2.2676,2.07,1.9864,1.944,1.944,1.9348,1.923,1.9085,1.8891,1.8654,1.8385,1.8191,1.8017,1.787,1.8028,1.8181,1.8459,1.8665,1.8136,1.6904,1.4835,1.3822,1.3484,1.0834,1.0155,1.0688,0.9792,0.9612,1.0072,1.0753,1.0968,1.0679,0.0,0.0,0.0,0.0,0.0,0.0,0.0,0.0,0.0,0.0,0.0,0.0,0.0,2.0085,1.9659,1.8111,2.0094,2.1902,2.3021,2.5025,2.68,2.8157,2.8279,2.8683,2.9493,2.9361,2.9672,3.0375,3.0184,2.998,2.9711,2.9711,2.9554,2.9237,2.929,2.923,2.9013,2.8129,2.7433,2.6902,2.5775,2.5281,2.5174,2.5669,2.5947,2.6151,2.6766,2.7126,2.7256,2.7014,2.7919,2.9225,2.9727,2.9714,2.923,2.7982,2.7053,2.6462,2.662,2.6791,2.7098,2.7881,2.8904,2.9153,2.6933,2.67,2.6392,2.4288,2.4178,2.4617,2.51,2.4996,2.5144,2.6231,2.6216,2.6405,2.7198,2.7455,2.7487,2.7201,2.7284,2.6416,2.3859,2.3809,2.2942,2.0683,1.9613,1.9076,1.9076,1.9085,1.8966,1.8789,1.8719,1.8525,1.8191,1.7992,1.7755,1.747,1.7528,1.7699,1.784,1.8174,1.8,1.7257,1.5679,1.4891,1.4527,1.1747,1.1086,1.1576,1.0044,0.9743,1.0191,1.0488,1.0735,1.0833,0.0,0.0,0.0,0.0,0.0,0.0,0.0,0.0,0.0,0.0,0.0,0.0,0.0,1.9076,1.9049,1.7811,1.9867,2.1737,2.301,2.4998,2.692,2.8716,2.8943,2.9314,2.9763,2.9302,2.9467,3.0375,2.9698,2.9539,2.9994,2.9994,2.9827,2.9606,2.9879,2.96,2.8828,2.8001,2.7321,2.6778,2.5084,2.477,2.5222,2.4797,2.4681,2.4779,2.5549,2.5811,2.564,2.4787,2.5783,2.7207,2.6172,2.7169,2.8307,2.6228,2.4482,2.3327,2.366,2.4069,2.4777,2.6278,2.7588,2.8352,2.7638,2.7223,2.6564,2.4919,2.4364,2.4086,2.4108,2.4173,2.4415,2.5374,2.5945,2.6549,2.7473,2.7389,2.7164,2.7132,2.685,2.5779,0.0,2.331,2.3443,2.4009,2.1002,1.9076,1.9076,1.8923,1.8794,1.8783,1.8562,1.8439,1.8422,1.7744,1.7502,1.7701,1.7012,1.6994,1.7523,1.7667,1.7868,1.8097,1.6387,1.572,1.56,1.3887,1.3056,1.2728,1.1343,1.0831,1.0783,0.9949,1.0113,1.0628,0.0,0.0,0.0,0.0,0.0,0.0,0.0,0.0,0.0,0.0,0.0,0.0,0.0,0.0,0.0,0.0,1.877,2.0169,2.2238,2.3415,2.518,2.7754,2.8346,2.9066,3.0055,3.0044,3.0361,3.0993,3.1006,3.0775,3.0288,3.0437,3.0038,2.9143,2.9245,2.898,2.8411,2.8117,2.7881,2.7518,2.6163,2.5378,2.5054,2.4628,2.3866,2.3057,0.0,2.3443,2.3262,2.2951,2.3503,2.4428,2.4933,2.491,2.4337,2.2642,2.2844,2.3563,2.3315,2.4323,2.5739,2.7074,2.8053,2.8369,2.7123,2.7114,2.6689,2.4426,2.3493,2.3113,2.3113,2.2892,2.299,2.3764,2.4595,2.5343,2.5882,2.6029,2.6072,2.5825,2.5889,2.5731,2.5272,0.0,0.0,2.1302,2.031,1.9399,1.8665,1.8595,1.8482,1.8331,1.8396,1.8207,1.7739,1.7496,1.7179,1.6786,1.679,1.7009,1.7523,1.7661,1.777,1.7828,1.6039,1.5943,1.6724,1.3974,1.3433,1.4138,1.2543,1.15,1.0871,1.0699,1.0254,0.9861,0.0,0.0,0.0,0.0,0.0,0.0,0.0,0.0,0.0,0.0,0.0,0.0,0.0,0.0,0.0,0.0,0.0,1.9468,2.1486,2.2024,2.353,2.6287,2.6839,2.7586,2.8607,2.9253,2.9867,3.0484,3.1147,3.1171,3.0678,3.0871,3.0425,2.9447,2.9261,2.889,2.832,2.8161,2.7931,2.7591,2.6114,2.5284,2.4783,2.3598,2.2577,0.0,2.1609,2.1422,2.1295,2.1295,2.1834,2.255,2.2972,2.244,2.1659,2.1565,2.2371,2.3448,2.4078,2.5186,2.6485,2.7727,2.8417,2.8489,2.728,2.7299,2.6919,2.4466,2.3456,2.2856,2.2222,2.192,2.1904,2.253,2.3434,2.4331,2.5174,2.5474,2.5693,2.5802,2.5794,2.5753,2.5776,2.5171,0.0,2.1391,2.0759,1.9995,1.8912,1.877,1.8507,1.8212,1.8191,1.7959,1.7502,1.7249,1.685,1.6317,1.6667,1.6984,1.7204,1.7215,1.7117,1.6995,1.6029,1.6138,1.6797,1.485,1.4625,1.5322,1.371,1.2614,1.1832,1.1163,1.0438,0.9818,0.0,0.0,0.0,0.0,0.0,0.0,0.0,0.0,0.0,0.0,0.0,0.0,0.0,0.0,0.0,0.0,0.0,0.0,2.0762,2.0919,2.2019,2.4408,2.4639,2.5062,2.5669,2.6884,2.7894,2.8745,2.9836,3.0557,3.0895,3.0965,3.0681,3.0098,2.965,2.9037,2.8344,2.7896,2.7463,2.6904,2.5009,2.4441,2.4408,2.1849,2.0927,2.0984,2.02,1.99,1.9846,1.9889,2.0836,2.1768,2.0582,2.0215,2.0671,2.293,2.3037,2.2955,2.558,2.6506,2.6974,2.814,2.863,2.8639,2.8114,2.7878,2.7168,2.4976,2.4089,2.3208,2.138,2.1011,2.1096,2.1569,2.2459,2.3703,2.5417,2.5719,2.6029,2.693,2.6447,2.577,2.5121,2.5371,2.5132,2.4111,0.0,2.085,1.9748,1.9394,1.9009,1.8428,1.7949,1.7701,1.7663,1.699,1.6533,1.6323,1.6759,1.6861,1.672,1.6409,1.6095,1.5732,1.6247,1.6281,1.5954,1.6468,1.6531,1.6168,1.4791,1.4056,1.3525,1.1411,1.0607,1.0502,0.0,0.0,0.0,0.0,0.0,0.0,0.0,0.0,0.0,0.0,0.0,0.0,0.0,0.0,0.0,0.0,0.0,0.0,1.9901,2.0444,2.143,2.2969,2.3737,2.4135,2.4095,2.4566,2.4886,2.5049,2.6345,2.698,2.7127,2.7916,2.7551,2.6259,2.6432,2.5896,2.4971,2.5037,2.51,2.5018,2.397,2.3268,2.2754,2.1868,2.0615,1.9414,2.0044,1.9727,1.9147,1.9936,2.1332,2.2579,2.1816,2.2318,2.3207,2.3513,2.4149,2.4938,2.5952,2.7049,2.8078,2.8589,2.8834,2.8674,2.7718,2.7484,2.667,2.3673,2.2356,2.1186,1.9044,1.9064,1.965,2.042,2.2226,2.3786,2.4717,2.5564,2.6063,2.6021,2.5815,2.5668,2.5467,2.532,2.5039,0.0,2.3466,2.2291,2.0955,2.0038,1.935,1.8774,1.8094,1.7464,1.6937,1.6581,1.6371,1.6312,1.6436,1.6549,1.6715,1.6293,1.6024,1.5917,1.614,1.6161,1.6128,1.633,1.635,1.6241,1.5459,1.4599,1.3719,1.2925,1.2055,1.105,0.0,0.0,0.0,0.0,0.0,0.0,0.0,0.0,0.0,0.0,0.0,0.0,0.0,0.0,0.0,0.0,0.0,0.0,0.0,1.9609,2.0045,2.165,2.1463,2.1472,2.1686,2.2751,2.3223,2.3049,2.4906,2.5791,2.5726,2.6379,2.5955,2.4695,2.4872,2.4407,2.3472,2.3542,2.3591,0.0,0.0,2.2111,2.173,2.0727,1.9845,1.9124,1.9448,1.952,1.9596,2.0547,2.173,2.2846,2.3292,2.3628,2.4024,2.4967,2.5519,2.6064,2.6913,2.7872,2.8713,2.8871,2.8799,2.8409,2.7281,2.6539,2.5311,2.2532,2.1022,1.9699,1.7927,1.8037,1.8742,1.9654,2.1564,2.3371,2.4505,2.5417,2.6078,2.6255,2.6015,2.5916,2.6048,2.5635,2.5258,2.5026,2.4363,2.3288,2.1879,2.067,1.9736,1.9105,1.7873,1.6964,1.6417,1.6323,1.6312,1.6312,1.642,1.6484,1.6495,1.618,1.5823,1.5527,0.0,1.6006,1.5896,1.6139,1.6276,1.6241,1.5831,1.5158,1.4309,1.365,1.2887,1.1988,0.0,0.0,0.0,0.0,0.0,0.0,0.0,0.0,0.0,0.0,0.0,0.0,0.0,0.0,0.0,0.0,0.0,0.0,0.0,0.0,1.8631,2.063,1.904,1.8487,1.9279,2.1074,2.1838,2.143,2.3806,2.4865,2.4672,2.4953,2.4602,2.3767,2.3869,2.3479,2.2719,2.2597,2.2424,2.2155,2.1153,2.0845,2.0776,0.0,0.0,1.9308,1.8707,1.9284,2.0464,2.1442,2.2284,2.3165,2.4709,2.4678,2.4536,2.6758,2.6961,2.6755,2.8127,2.8741,2.8984,2.8984,2.8691,2.8152,2.7096,2.5655,2.3893,2.1701,2.0021,1.8551,1.732,1.7579,1.8231,1.9162,2.0965,2.279,2.433,2.5254,2.6066,2.6994,2.6451,2.6221,2.6668,2.5957,2.5532,2.5588,2.5024,2.41,2.2695,2.1486,2.0303,1.9219,1.7622,1.6553,1.6012,1.6188,1.6312,1.6317,1.6522,1.649,1.6258,1.6072,1.5666,1.5069,0.0,0.0,1.553,1.6034,1.6285,1.6199,1.5903,1.5511,1.4993,1.3999,1.3495,1.3154,0.0,0.0,0.0,0.0,0.0,0.0,0.0,0.0,0.0,0.0,0.0,0.0,0.0,0.0,0.0,0.0,0.0,0.0,0.0,0.0,0.0,2.0722,1.9167,1.844,1.8798,1.8608,1.8136,1.7399,1.8784,1.9371,1.919,2.0334,2.0526,1.9978,2.0863,2.0872,2.024,2.0477,2.0245,1.9723,1.9974,1.9516,1.8699,0.0,0.0,0.0,1.8448,1.9093,2.0202,2.1974,2.3712,2.5149,2.567,2.6711,2.7718,2.7977,2.804,2.8146,2.8586,2.884,2.8984,2.8984,2.8691,2.8332,2.8151,2.6231,2.3948,2.1958,1.9641,1.7653,1.6373,1.7033,1.8068,1.9126,2.1285,2.3074,2.368,2.5125,2.6192,2.6383,2.5957,2.597,2.6644,2.5517,2.5008,2.5557,2.5254,2.4671,2.3852,2.31,2.133,1.8498,1.7875,1.7115,1.6007,1.6188,1.6312,1.6312,1.6355,1.6247,1.6066,1.6074,1.59,1.5596,0.0,0.0,1.6113,1.6452,1.6349,1.591,1.5433,1.5191,1.5002,1.4404,1.4252,1.4246,0.0,0.0,0.0,0.0,0.0,0.0,0.0,0.0,0.0,0.0,0.0,0.0,0.0,0.0,0.0,0.0,0.0,0.0,0.0,0.0,0.0,0.0,0.0,0.0,1.787,1.8225,1.7999,1.7142,0.0,1.8771,1.8958,1.9471,1.9598,1.9457,2.0176,2.0098,1.9443,1.9395,1.916,1.8771,1.8659,1.8258,0.0,0.0,0.0,0.0,1.8178,1.8695,1.9531,2.0939,2.2561,2.4325,2.6088,2.7207,2.7884,2.7984,2.8182,2.8456,2.8554,2.879,2.8984,2.8984,2.8165,2.7005,2.5745,2.3583,2.1275,1.9401,1.7434,1.6038,1.5921,1.6156,1.7069,1.9098,2.077,2.2311,2.3862,2.5125,2.589,2.5872,2.571,2.5767,2.6072,2.5196,2.4804,2.5287,2.5206,2.4857,2.4363,2.3208,2.1472,1.9046,1.8233,1.7505,1.6969,1.6496,1.6439,1.6741,1.6621,1.6431,1.6255,1.6139,1.5822,1.5489,1.6029,0.0,1.5612,1.6024,1.5912,1.5446,1.5357,1.5228,1.5059,1.466,1.469,1.4795,0.0,0.0,0.0,0.0,0.0,0.0,0.0,0.0,0.0,0.0,0.0,0.0,0.0,0.0,0.0,0.0,0.0,0.0,0.0,0.0,0.0,0.0,0.0,0.0,1.7452,0.0,0.0,1.7792,1.8634,0.0,0.0,0.0,0.0,0.0,2.0144,1.9992,1.933,1.8834,1.8514,0.0,0.0,1.7388,0.0,0.0,0.0,0.0,0.0,1.8263,1.8688,1.9755,2.0874,2.2308,2.5146,2.6436,2.6995,2.7107,2.7694,2.8153,2.771,2.8074,2.8489,2.831,2.7123,2.5427,2.3283,2.1094,1.9012,1.7376,1.5682,1.4834,1.5838,1.5736,1.6338,1.8864,2.0,2.1394,2.3685,2.4701,2.5281,2.5467,2.5537,2.5587,2.5644,2.4922,2.4687,2.5083,2.5018,0.0,2.4602,2.323,2.1708,2.0076,1.8811,1.8007,1.7715,1.6719,1.6447,1.6939,1.6694,1.6449,1.6226,1.6096,1.5709,1.5169,1.5573,0.0,0.0,1.5501,1.5427,1.5098,1.5259,1.52,1.4992,1.4727,1.4829,1.5077,0.0,0.0,0.0,0.0,0.0,0.0,0.0,0.0,0.0,0.0,0.0,0.0,0.0,0.0,0.0,0.0,0.0,0.0,0.0,0.0,0.0,0.0,0.0,0.0,0.0,0.0,0.0,1.7709,1.8225,0.0,0.0,0.0,0.0,0.0,0.0,2.0029,1.9521,1.8752,0.0,0.0,0.0,0.0,0.0,0.0,0.0,0.0,0.0,1.7832,1.7572,1.9478,1.9739,1.9647,2.1525,2.3931,2.5981,2.5276,2.6421,2.7434,2.5466,2.6071,2.6961,2.612,2.5259,2.4392,2.34,2.14,1.9519,1.8624,1.6396,1.4973,1.6292,1.6505,1.6885,1.8178,1.9388,2.0654,2.2218,2.3364,2.4332,2.5086,2.5431,2.5613,2.5648,2.4781,2.44,2.5031,2.4808,0.0,2.4587,2.3882,2.2698,2.1085,1.9836,1.8642,1.755,1.6511,1.605,1.6132,1.6072,1.5828,1.5322,1.5838,1.5721,1.5055,0.0,0.0,0.0,1.5453,1.5322,1.5092,1.4883,1.4779,1.4721,1.4437,1.4666,1.5107,0.0,0.0,0.0,0.0,0.0,0.0,0.0,0.0,0.0,0.0,0.0,0.0,0.0,0.0,0.0,0.0,0.0,0.0,0.0,0.0,0.0,0.0,0.0,0.0,0.0,0.0,1.7807,1.7279,1.7952,0.0,0.0,0.0,0.0,0.0,0.0,1.9017,1.881,1.7775,0.0,0.0,0.0,0.0,0.0,0.0,0.0,0.0,0.0,0.0,1.6553,1.737,1.7632,1.7731,1.8415,1.9852,2.1552,2.2758,2.438,2.5632,2.4763,2.5507,2.6371,2.6006,2.4627,2.3012,2.1512,1.9772,1.8105,1.6835,1.5888,1.5572,1.6419,1.6198,1.6487,1.8372,1.8667,1.9565,2.2079,2.2869,2.3472,2.433,2.4939,2.5056,2.451,2.4022,2.3748,2.3594,2.3822,0.0,2.3691,2.361,2.3123,2.2307,2.1118,1.9921,1.8808,1.7685,1.6861,1.6469,1.629,1.5964,1.5552,1.5877,1.5576,1.4723,1.5327,0.0,0.0,1.4973,1.4844,1.4416,1.4616,1.4801,1.4902,1.4461,1.4642,1.5107,0.0,0.0,0.0,0.0,0.0,0.0,0.0,0.0,0.0,0.0,0.0,0.0,0.0,0.0,0.0,0.0,0.0,0.0,0.0,0.0,0.0,0.0,0.0,0.0,0.0,0.0,1.7292,1.7103,1.772,1.816,0.0,0.0,1.8753,1.9177,0.0,0.0,0.0,0.0,0.0,0.0,0.0,0.0,0.0,0.0,0.0,0.0,0.0,0.0,0.0,0.0,0.0,1.6196,1.6267,1.6882,1.8004,2.004,2.2205,2.3764,2.3239,2.4303,2.5448,2.5141,2.3474,2.144,1.9868,1.838,1.7005,1.5789,1.5712,1.6088,1.6817,1.6401,1.6524,1.8412,1.8422,1.906,2.1458,2.2114,2.2616,2.3394,2.4071,2.4215,2.3471,2.3363,2.3081,2.2526,2.3026,0.0,2.2944,2.3223,2.3219,2.3022,2.1809,2.0874,2.0154,1.8511,1.7481,1.6996,1.6331,1.5818,1.5552,1.566,1.5192,1.4455,0.0,0.0,0.0,1.4534,1.4475,1.4059,1.4418,1.4682,1.4823,1.4346,1.4496,1.4992,0.0,0.0,0.0,0.0,0.0,0.0,0.0,0.0,0.0,0.0,0.0,0.0,0.0,0.0,0.0,0.0,0.0,0.0,0.0,0.0,0.0,0.0,0.0,0.0,0.0,0.0,1.6587,1.7317,1.7511,1.7741,1.8037,1.8469,1.8627,1.8499,0.0,0.0,0.0,0.0,0.0,0.0,0.0,0.0,0.0,0.0,0.0,0.0,0.0,0.0,0.0,0.0,0.0,0.0,0.0,1.5757,1.6308,1.7257,1.987,2.2035,2.0301,2.1928,2.3891,2.2856,2.1254,1.9754,1.9089,1.7758,1.6627,1.6346,1.6175,1.6409,1.7481,1.742,1.7418,1.8173,1.881,1.9348,1.9878,2.0827,2.1668,2.2175,2.279,2.3174,2.3021,2.2858,2.2557,2.2118,0.0,0.0,2.2593,2.2853,2.3022,2.3014,2.1809,2.1174,2.1181,1.8739,1.7519,1.7461,1.5943,1.5128,1.4885,1.4891,1.4638,0.0,0.0,0.0,0.0,1.4193,1.4213,1.4313,1.4313,1.4301,1.4256,1.3979,1.4248,1.4671,0.0,0.0,0.0,0.0,0.0,0.0,0.0,0.0,0.0,0.0,0.0,0.0,0.0,0.0,0.0,0.0,0.0,0.0,0.0,0.0,0.0,0.0,0.0,0.0,0.0,0.0,1.5162,1.498,1.5484,1.5617,1.5417,1.5719,1.5869,1.5782,1.5092,1.4703,0.0,0.0,0.0,0.0,0.0,0.0,0.0,0.0,0.0,0.0,0.0,0.0,0.0,0.0,0.0,0.0,0.0,0.0,0.0,1.5302,1.7282,1.9137,1.8597,1.9425,2.0421,2.0095,1.9335,1.848,1.7771,1.7476,1.7162,1.6338,1.6757,1.7419,1.7891,1.7837,1.8138,1.9358,1.9333,1.9698,2.1124,2.1487,2.2012,2.3182,2.3403,2.3434,2.3411,2.2511,2.1807,2.1487,0.0,0.0,2.2279,2.2732,2.3014,2.3014,2.2611,2.2036,2.1231,1.9537,1.8223,1.7183,1.5853,1.4955,1.4422,1.474,0.0,0.0,0.0,0.0,0.0,1.4144,1.4105,1.4054,1.4237,1.4394,1.4515,1.4093,1.4096,1.4412,0.0,0.0,0.0,0.0,0.0,0.0,0.0,0.0,0.0,0.0,0.0,0.0,0.0,0.0,0.0,0.0,0.0,0.0,0.0,0.0,0.0,0.0,0.0,0.0,0.0,1.4092,1.4383,1.4121,1.4568,1.464,1.4361,1.4561,1.4656,1.4649,1.378,1.3333,0.0,0.0,0.0,0.0,0.0,0.0,1.5851,0.0,0.0,0.0,0.0,0.0,0.0,0.0,0.0,0.0,0.0,0.0,0.0,0.0,1.5593,1.6878,1.7263,1.815,1.8994,1.892,1.8407,1.7881,1.7669,1.7517,1.7243,1.6915,1.7721,1.8457,1.8455,1.8633,1.902,1.9585,1.973,2.0056,2.0947,2.1267,2.1817,2.3046,2.336,2.3454,2.3375,2.2575,2.1787,2.1218,0.0,0.0,2.2101,2.2675,2.3014,2.3014,2.3014,2.2605,2.1677,2.0459,1.9042,1.7579,1.6193,1.5132,1.4331,1.453,0.0,0.0,0.0,0.0,0.0,1.4174,1.4213,1.4207,1.44,1.4624,1.4779,1.427,1.4227,1.44,0.0,0.0,0.0,0.0,0.0,0.0,0.0,0.0,0.0,0.0,0.0,0.0,0.0,0.0,0.0,0.0,0.0,0.0,0.0,0.0,0.0,0.0,0.0,0.0,1.2607,1.3372,1.3909,1.4196,1.4328,1.4386,1.4358,1.451,1.4597,1.4629,1.396,1.355,1.3271,1.2097,1.2182,1.305,1.299,1.3411,0.0,0.0,0.0,0.0,0.0,0.0,0.0,0.0,0.0,0.0,0.0,0.0,0.0,0.0,0.0,0.0,0.0,1.7789,1.9001,1.8899,1.823,1.7781,1.8394,1.7696,0.0,1.8013,1.8972,1.9516,1.9155,1.9742,1.9988,1.9214,1.9955,2.0466,1.9888,2.0674,2.1509,2.2165,2.293,2.3331,2.3103,2.2866,2.2301,0.0,0.0,0.0,2.2116,2.2675,2.295,2.2982,2.2974,2.2823,2.249,2.1218,1.9848,1.835,1.6862,1.5592,1.44,1.4256,0.0,0.0,0.0,0.0,0.0,1.4279,1.4471,1.4698,1.473,1.4883,1.4996,1.4501,1.4449,1.4556,0.0,0.0,0.0,0.0,0.0,0.0,0.0,0.0,0.0,0.0,0.0,0.0,0.0,0.0,0.0,0.0,0.0,0.0,0.0,0.0,0.0,0.0,0.0,0.0,1.088,1.1302,1.1445,1.1218,1.184,1.2063,1.1953,1.2818,1.2873,1.2241,1.2408,1.1868,1.0873,1.1378,1.1677,1.1842,1.2906,1.3641,0.0,0.0,0.0,0.0,1.4605,1.4605,0.0,0.0,0.0,0.0,0.0,0.0,0.0,0.0,1.4794,1.5126,1.5265,0.0,1.6458,1.6417,1.6632,1.6884,0.0,1.7673,1.8399,1.8931,1.9581,2.003,1.9931,2.0424,2.0615,1.9938,2.0525,2.1226,2.1683,2.3142,2.3965,2.3409,2.4346,2.4721,2.3762,2.3095,2.2624,0.0,0.0,2.1888,2.2116,2.2456,2.267,2.2617,2.2609,2.2569,2.249,2.0986,1.9422,1.7869,1.6736,1.5314,1.3728,1.3852,0.0,0.0,0.0,0.0,1.3993,1.442,1.4631,1.4724,1.4912,1.4932,1.4749,1.4436,1.419,1.4091,0.0,0.0,0.0,0.0,0.0,0.0,0.0,0.0,0.0,0.0,0.0,0.0,0.0,0.0,0.0,0.0,0.0,0.0,0.0,0.0,0.0,0.0,0.0,1.0413,1.0129,1.0668,1.0732,1.0357,1.0811,1.0924,1.0706,1.1345,1.1441,1.1143,1.1249,1.0846,1.0107,1.0509,1.0671,1.0742,1.191,0.0,0.0,0.0,0.0,0.0,1.3542,1.3796,0.0,1.3985,1.4137,1.4425,0.0,0.0,0.0,0.0,1.4735,1.4957,1.481,1.5325,1.591,1.6049,1.6453,1.6935,1.7269,1.798,1.873,1.9377,1.9829,2.0065,2.0032,2.057,2.0837,2.0201,2.0881,2.1774,2.2581,2.3496,2.4031,2.4005,2.4558,2.4775,0.0,2.4111,0.0,0.0,0.0,2.2269,2.2124,2.2245,2.2354,2.2498,2.2172,2.2013,2.2013,2.1102,1.9864,1.8133,1.7278,1.5887,1.4185,1.392,1.3696,0.0,0.0,0.0,1.4132,1.4513,1.4835,1.5089,1.5234,1.5197,1.5026,1.4919,1.4657,1.4438,0.0,0.0,0.0,0.0,0.0,0.0,0.0,0.0,0.0,0.0,0.0,0.0,0.0,0.0,0.0,0.0,0.0,0.0,0.0,0.0,0.0,0.0,0.0,0.9733,0.9733,1.04,1.0539,1.019,1.0335,1.0302,1.0073,1.0269,1.0523,1.0805,1.0361,1.0171,1.0078,0.981,0.9721,0.9879,1.0712,0.0,0.0,0.0,0.0,0.0,0.0,0.0,0.0,1.3119,1.3593,1.4209,1.4245,0.0,0.0,0.0,0.0,0.0,1.475,1.5549,1.6423,1.6606,1.6931,1.74,1.8132,1.8321,1.8647,1.9717,2.0022,2.0082,2.0024,2.0766,2.1092,2.0271,2.1276,2.2391,2.3134,2.3338,2.3619,2.4241,2.4542,0.0,2.4628,0.0,0.0,0.0,0.0,2.258,2.2027,2.1904,2.1939,2.2268,2.1644,2.1312,2.1317,2.1317,2.0452,1.8694,1.8088,1.6885,1.5222,1.4499,1.3961,0.0,0.0,0.0,1.4264,1.4639,1.5044,1.5499,1.5547,1.5535,1.5499,1.5499,1.533,1.502,0.0,0.0,0.0,0.0,0.0,0.0,0.0,0.0,0.0,0.0,0.0,0.0,0.0,0.0,0.0,0.0,0.0,0.0,0.0,0.0,0.0,0.8703,0.8818,0.8889,0.8889,0.9003,0.8965,0.8737,0.9261,0.9483,0.9458,1.0195,1.0656,1.084,0.9701,0.9389,0.969,0.9991,0.9841,0.9523,1.0803,0.0,0.0,0.0,0.0,0.0,0.0,0.0,0.0,1.2452,1.2856,1.3411,1.3579,0.0,0.0,0.0,0.0,0.0,1.5233,1.6226,1.7152,1.7001,1.7051,1.7392,1.8202,1.8238,1.8557,2.0228,2.0695,2.0881,2.1061,2.1961,2.2153,2.0566,2.2171,2.3744,2.4001,2.55,2.6087,2.4713,0.0,2.6511,2.5389,0.0,0.0,0.0,0.0,0.0,0.0,2.1153,2.0993,2.1221,2.1112,2.1029,2.1004,2.1004,2.0279,1.8868,1.8644,1.7806,1.6417,1.6015,1.5313,0.0,0.0,1.4517,1.3996,1.4743,1.5213,1.5523,1.5741,1.5692,1.5499,1.5499,1.533,1.4969,0.0,0.0,0.0,0.0,0.0,0.0,0.0,0.0,0.0,0.0,0.0,0.0,0.0,0.0,0.0,0.0,0.0,0.0,0.0,0.0,0.0,0.7357,0.7783,0.8246,0.8699,0.8703,0.8551,0.825,0.8513,0.8589,0.8518,0.9131,0.9453,0.9521,0.8937,0.8703,0.8784,0.8975,0.8894,0.8742,0.0,0.0,0.0,0.0,0.0,0.0,0.0,0.0,0.0,0.0,1.204,1.2673,1.328,0.0,0.0,0.0,0.0,0.0,1.4827,1.5404,1.6179,1.7282,1.7935,1.8395,1.8681,1.8617,1.8934,2.0348,2.0033,1.9903,2.1316,2.1861,2.2205,2.2579,2.3815,2.4887,2.5255,2.5497,2.5509,0.0,0.0,2.5882,0.0,0.0,0.0,0.0,0.0,0.0,0.0,0.0,2.0917,2.1012,2.0833,2.0679,2.0639,2.0639,2.0255,1.9407,1.8916,1.8088,1.7015,1.6462,1.557,1.4479,0.0,1.457,1.3982,1.4763,1.5269,1.5523,1.579,1.5728,1.5499,1.5499,1.5124,1.4718,0.0,0.0,0.0,0.0,0.0,0.0,0.0,0.0,0.0,0.0,0.0,0.0,0.0,0.0,0.0,0.0,0.0,0.0,0.0,0.0,0.6202,0.6202,0.6822,0.7595,0.8394,0.8585,0.8551,0.825,0.814,0.8013,0.779,0.8162,0.8327,0.8327,0.8277,0.8183,0.8112,0.8036,0.8096,0.8217,0.0,0.0,0.0,0.0,0.0,0.0,0.0,0.0,0.0,0.0,0.0,0.0,0.0,0.0,0.0,1.4165,1.4425,1.4521,1.4491,1.4713,1.5403,1.7054,1.7913,1.8574,1.9447,1.9059,1.8966,2.0613,1.987,1.9491,2.1483,2.1735,2.2151,2.3885,2.4804,2.5503,2.5953,2.5327,2.4986,2.5462,2.5424,0.0,0.0,0.0,0.0,0.0,0.0,0.0,0.0,0.0,2.0746,2.0678,2.0413,2.0272,2.03,2.0313,2.013,1.9868,1.9197,1.848,1.7757,1.7113,1.6156,1.5016,1.5441,1.519,1.4601,1.5327,1.5658,1.576,1.606,1.5921,1.559,1.559,1.5197,1.4757,0.0,0.0,0.0,0.0,0.0,0.0,0.0,0.0,0.0,0.0,0.0,0.0,0.0,0.0,0.0,0.0,0.0,0.0,0.0,0.0,0.6202,0.6202,0.624,0.6707,0.7557,0.8322,0.8699,0.8665,0.8289,0.8005,0.7819,0.8035,0.814,0.8097,0.7908,0.794,0.8097,0.7903,0.8043,0.8403,0.8813,0.0,0.0,0.0,0.0,0.0,0.0,0.0,0.0,0.0,0.0,0.0,0.0,0.0,1.3724,1.3608,1.4201,1.4864,1.478,1.5281,1.583,1.5858,1.5734,1.6656,2.0684,1.9256,1.8,2.1383,2.1511,2.1237,2.1954,2.2332,2.2544,2.2738,2.419,2.528,2.5094,0.0,2.6259,2.5125,2.5505,0.0,0.0,0.0,0.0,0.0,0.0,0.0,0.0,0.0,0.0,1.9813,1.9709,1.9779,2.005,1.9968,1.9941,1.9909,1.9526,1.9304,1.9225,1.8816,1.804,1.7077,1.7368,1.7085,1.6439,1.6941,1.6894,1.6562,1.6801,1.6488,1.5861,1.5861,1.5849,1.5712,0.0,0.0,0.0,0.0,0.0,0.0,0.0,0.0,0.0,0.0,0.0,0.0,0.0,0.0,0.0,0.0,0.0,0.0,0.0,0.4723,0.4527,0.4527,0.5078,0.5534,0.5875,0.6789,0.7153,0.6965,0.7207,0.7323,0.727,0.7824,0.8113,0.8071,0.788,0.7844,0.7927,0.7977,0.8221,0.8627,0.9013,0.9392,0.0,0.0,0.0,0.0,0.0,0.0,0.0,0.0,1.0105,1.0443,1.0925,1.1552,1.2321,1.339,1.3869,1.4152,1.4691,1.4965,1.5381,1.6484,1.589,1.5779,1.8938,1.9326,1.967,2.1777,2.1653,2.1528,2.2621,2.2997,2.3428,2.4553,2.4602,2.4796,2.5434,2.5556,2.5384,2.4829,0.0,0.0,0.0,0.0,0.0,0.0,0.0,0.0,0.0,0.0,0.0,1.9117,1.9047,1.9079,1.9126,1.9277,1.9248,1.9052,1.9281,1.9256,1.9026,1.8891,1.8249,1.7311,1.7559,1.7167,1.6419,1.7105,1.7327,1.7128,1.6922,1.6482,1.5849,1.5523,1.5401,1.5404,0.0,0.0,0.0,0.0,0.0,0.0,0.0,0.0,0.0,0.0,0.0,0.0,0.0,0.0,0.0,0.0,0.0,0.0,0.4645,0.3992,0.3571,0.354,0.4152,0.447,0.4474,0.5198,0.5714,0.6002,0.6665,0.6976,0.6938,0.774,0.8059,0.7996,0.7844,0.7766,0.7742,0.7994,0.8348,0.8742,0.9132,0.9587,0.0,0.0,0.0,0.0,0.0,0.0,0.0,0.0,0.9884,0.9992,1.055,1.0925,1.1477,1.2981,1.3572,1.3946,1.4844,1.4951,1.5211,1.6718,1.6273,1.6152,1.8707,1.988,2.0817,2.2038,2.2094,2.2145,2.2822,2.322,2.3676,2.4377,2.4255,2.4223,2.4914,2.4907,2.4633,0.0,0.0,0.0,0.0,0.0,0.0,0.0,0.0,0.0,0.0,0.0,0.0,0.0,1.8686,1.8529,1.8454,1.8626,1.8644,1.8489,1.891,1.898,1.8781,1.8781,1.8396,1.7785,1.7978,1.764,1.7088,1.7773,1.796,1.776,1.6954,1.6297,1.5805,1.5291,1.5062,1.4993,0.0,0.0,0.0,0.0,0.0,0.0,0.0,0.0,0.0,0.0,0.0,0.0,0.0,0.0,0.0,0.0,0.0,0.0,0.4579,0.4078,0.372,0.3592,0.3588,0.3587,0.3503,0.3711,0.4577,0.6163,0.6853,0.7088,0.6899,0.771,0.7992,0.7803,0.7807,0.7697,0.7553,0.7931,0.8342,0.8742,0.9132,0.9657,1.0218,0.0,0.0,0.0,0.0,0.0,0.0,0.0,0.9922,0.9884,0.9884,1.0594,1.1558,1.2358,1.3393,1.4486,1.5277,1.5465,1.5561,1.623,1.6708,1.7767,2.0732,2.0971,2.1,2.2269,2.3108,2.3317,2.2388,2.2953,2.304,2.1587,2.2703,2.3632,2.3094,2.4013,0.0,0.0,0.0,0.0,0.0,0.0,0.0,0.0,0.0,0.0,0.0,0.0,0.0,0.0,1.8621,1.8222,1.8215,1.8161,1.8234,1.8527,1.8527,1.8612,1.8781,1.8781,1.8781,1.8781,1.8781,1.8781,1.8827,1.9104,1.8933,1.8374,1.6808,1.6029,1.5739,1.5297,1.4943,1.4653,0.0,0.0,0.0,0.0,0.0,0.0,0.0,0.0,0.0,0.0,0.0,0.0,0.0,0.0,0.0,0.0,0.0,0.0,0.4645,0.3988,0.3567,0.3538,0.3558,0.3576,0.3589,0.364,0.3927,0.4499,0.522,0.5554,0.5516,0.6164,0.6813,0.7368,0.7322,0.7604,0.8171,0.867,0.8955,0.9165,0.9544,0.9922,1.0218,0.0,0.0,0.0,0.0,0.0,0.0,0.0,0.0,0.0,0.9884,1.0231,1.1014,1.2986,1.354,1.3895,1.5591,1.5909,1.5864,1.6308,1.704,1.8242,2.0367,2.1117,2.2013,2.4202,2.4836,2.5011,2.5208,2.4675,2.443,2.5117,2.384,2.3151,2.4254,2.3593,0.0,0.0,0.0,0.0,0.0,0.0,0.0,0.0,0.0,0.0,0.0,0.0,0.0,0.0,1.9058,1.8713,1.8613,1.8474,1.8604,1.8966,1.9196,1.9104,1.8781,1.8781,1.8781,1.8781,1.8781,1.8781,1.8851,1.9199,1.9018,1.8514,1.7838,1.6765,1.5665,1.6194,1.5741,1.4966,0.0,0.0,0.0,0.0,0.0,0.0,0.0,0.0,0.0,0.0,0.5335,0.5174,0.0,0.0,0.0,0.0,0.0,0.0,0.0,0.3957,0.3552,0.3444,0.3452,0.344,0.3364,0.333,0.343,0.3596,0.4438,0.4847,0.4897,0.5525,0.6296,0.7164,0.7021,0.7509,0.8443,0.8925,0.9208,0.9322,0.9809,1.0143,1.0331,0.0,0.0,0.0,0.0,0.0,0.0,0.0,0.0,0.0,0.9963,1.0193,1.0926,1.2896,1.35,1.3958,1.6008,1.6437,1.6487,1.7199,1.7905,1.8939,2.1055,2.224,2.3685,2.6218,2.6234,2.5771,2.5903,2.526,2.4875,2.5418,2.4259,2.3644,2.4605,0.0,0.0,0.0,0.0,0.0,0.0,0.0,0.0,0.0,0.0,0.0,0.0,0.0,0.0,0.0,1.9495,1.9073,1.8781,1.8874,1.9012,1.9188,1.9397,1.9294,1.8894,1.9039,1.8932,1.8613,1.8613,1.8613,1.8629,1.87,1.8652,1.8453,1.7973,1.7091,1.6069,1.6402,1.5884,1.5046,0.0,0.0,0.0,0.0,0.0,0.0,0.0,0.0,0.0,0.0,0.545,0.5204,0.0,0.0,0.0,0.0,0.0,0.0,0.0,0.0,0.3651,0.3345,0.3305,0.319,0.2999,0.292,0.3025,0.3294,0.4145,0.4619,0.4785,0.5336,0.609,0.7012,0.6835,0.743,0.8514,0.8916,0.9204,0.9504,1.0003,1.0342,1.0585,1.0749,0.0,0.0,0.0,0.0,0.0,0.0,0.0,0.0,1.0042,1.0368,1.1158,1.2395,1.3377,1.4468,1.6399,1.6956,1.7258,1.845,1.9052,1.9998,2.2505,2.407,2.5638,2.7866,2.7127,2.5905,2.5306,2.5146,2.4854,2.3879,2.4318,2.4675,2.4407,0.0,0.0,0.0,0.0,0.0,0.0,0.0,0.0,0.0,0.0,0.0,0.0,0.0,0.0,0.0,2.0044,1.9433,1.9012,1.9355,1.9492,0.0,1.9362,1.9276,1.9079,1.9401,1.9097,1.8295,1.8295,1.8279,1.8224,1.795,1.7962,1.8203,1.7537,1.7018,1.6664,1.633,1.5756,1.5014,0.0,0.0,0.0,0.0,0.0,0.0,0.0,0.0,0.0,0.0,0.0,0.0,0.0,0.0,0.0,0.0,0.0,0.0,0.0,0.0,0.3519,0.3463,0.327,0.3117,0.3078,0.2945,0.3025,0.3294,0.3397,0.3613,0.3885,0.3962,0.4854,0.6418,0.6498,0.7593,0.9369,0.9562,0.9986,1.0539,1.0485,1.0676,1.1035,1.0857,1.0925,0.0,0.0,0.0,0.0,0.0,0.0,0.0,1.0194,1.0505,1.1201,1.2664,1.3702,1.4678,1.6082,1.7005,1.7644,1.7679,1.9845,2.2359,2.4092,2.5597,2.6714,2.6816,2.6456,2.6153,2.6383,2.6415,2.6348,2.6089,2.507,2.4476,2.5064,0.0,0.0,0.0,0.0,0.0,0.0,0.0,0.0,0.0,0.0,0.0,0.0,0.0,0.0,2.1605,2.109,2.0721,2.0546,2.0283,2.0275,0.0,2.0173,1.9815,1.9638,1.9279,1.8824,1.8295,1.8295,1.8144,1.7918,1.7846,1.7854,1.7882,1.7707,1.7011,1.6249,1.7306,1.671,1.529,0.0,0.0,0.0,0.0,0.0,0.0,0.0,0.0,0.0,0.0,0.0,0.0,0.0,0.0,0.0,0.0,0.0,0.0,0.0,0.0,0.3409,0.3176,0.2942,0.2826,0.2826,0.2799,0.293,0.3198,0.3076,0.3169,0.344,0.3436,0.4149,0.545,0.6189,0.7363,0.8827,0.9552,1.006,1.0353,1.0374,1.0561,1.086,1.0834,1.07,1.0588,1.0962,0.0,0.0,0.0,0.0,0.0,0.0,0.0,1.139,1.2474,1.3233,1.4117,1.5676,1.6425,1.7003,1.7972,1.9733,2.1714,2.3693,2.4587,2.5196,2.5684,2.6133,2.6487,2.6576,2.6271,2.5985,2.5985,2.5025,2.445,0.0,0.0,0.0,0.0,0.0,0.0,0.0,0.0,0.0,0.0,0.0,0.0,0.0,2.2005,2.1722,2.1644,2.1316,2.1028,2.0871,2.0835,2.088,2.0988,2.0517,1.9919,1.923,1.8671,1.827,1.8041,1.7882,1.7707,1.7568,1.735,1.7382,1.7575,1.7575,1.7165,1.6684,1.7477,1.703,1.588,0.0,0.0,0.0,0.0,0.0,0.0,0.0,0.0,0.0,0.0,0.0,0.0,0.0,0.0,0.0,0.0,0.0,0.0,0.0,0.0,0.0,0.0,0.2589,0.2511,0.255,0.2644,0.2833,0.3102,0.3038,0.3074,0.3281,0.3279,0.3765,0.4689,0.5907,0.7019,0.8069,0.9288,0.9906,1.0045,1.0202,1.0404,1.0619,1.0728,1.0384,0.9873,1.0535,0.9889,0.8874,1.0183,0.0,0.0,0.0,0.0,1.1427,1.2,1.2647,1.3506,1.522,1.587,1.6559,1.8512,1.9326,2.0176,2.2276,2.2637,2.2856,2.4212,2.5518,2.633,2.6094,2.5449,2.4998,2.4998,2.4648,2.4441,0.0,0.0,0.0,0.0,0.0,0.0,0.0,0.0,0.0,0.0,0.0,0.0,2.2857,2.1963,2.1437,2.1437,2.1239,2.1006,2.0835,2.1212,2.1293,2.1087,2.0741,1.9891,1.8513,1.812,1.7826,1.7719,1.744,1.7247,1.7159,1.6857,1.6913,1.7191,1.7254,1.7247,1.7191,1.7254,1.7048,1.6443,0.0,0.0,0.0,0.0,0.0,0.0,0.0,0.0,0.0,0.0,0.5196,0.5162,0.0,0.0,0.0,0.0,0.0,0.0,0.0,0.0,0.0,0.2787,0.2589,0.2589,0.2746,0.272,0.2833,0.3102,0.3246,0.3304,0.32,0.3232,0.3796,0.4919,0.5907,0.7033,0.8295,0.9175,1.0064,1.0896,1.0602,1.0692,1.1013,1.0785,1.0169,0.9379,0.9515,0.9109,0.8572,0.8793,0.8926,0.0,0.0,0.0,1.0761,1.1473,1.2628,1.3886,1.472,1.6248,1.7796,1.8468,1.917,1.9879,2.0571,2.1156,2.1673,2.1933,2.3439,2.4724,2.4678,2.458,2.4502,2.4502,2.4453,0.0,0.0,0.0,0.0,0.0,0.0,0.0,0.0,0.0,0.0,0.0,0.0,0.0,2.3062,2.2157,2.1651,2.1651,2.1651,2.1517,2.1302,2.1347,2.1392,2.1347,2.1078,2.0027,1.8322,1.8394,1.8051,1.7342,1.7337,1.7096,1.6761,1.6713,1.6721,1.68,1.7159,1.7088,1.68,1.7159,1.7048,1.6443,0.0,0.0,0.0,0.0,0.0,0.0,0.0,0.0,0.0,0.0,0.0,0.518,0.0,0.0,0.0,0.0,0.0,0.0,0.0,0.0,0.0,0.2826,0.2707,0.2707,0.2787,0.2874,0.3066,0.3333,0.3333,0.3364,0.3419,0.3243,0.3521,0.4253,0.5854,0.6919,0.7532,0.8869,0.9838,1.0461,1.025,1.0498,1.0962,1.0663,0.9827,0.8905,0.9197,0.831,0.7142,0.8162,0.824,0.8217,0.9864,0.0,0.0,0.0,1.2267,1.3126,1.4588,1.585,1.7092,1.8284,1.8652,1.8985,2.0038,2.0323,2.0508,2.1062,2.1618,2.2346,2.3429,2.3842,2.4062,2.4062,2.3857,0.0,0.0,0.0,0.0,0.0,0.0,0.0,0.0,0.0,0.0,0.0,0.0,2.3743,2.364,2.2751,2.2089,2.1699,2.1425,2.1329,2.1392,2.1392,2.1319,2.1216,2.1119,2.0129,1.8472,1.8507,1.7969,1.6976,1.6976,1.684,1.6689,1.6689,1.6689,1.6713,1.6913,1.7,1.7032,1.6984,1.7,1.6841,0.0,0.0,0.0,0.0,0.0,0.0,0.0,0.0,0.0,0.0,0.0,0.0,0.0,0.0,0.0,0.0,0.0,0.0,0.0,0.0,0.0,0.2981,0.2863,0.2863,0.2981,0.3061,0.3217,0.3487,0.339,0.3399,0.3514,0.334,0.3425,0.381,0.5663,0.6728,0.7227,0.8696,0.9725,1.0351,1.029,1.0517,1.0929,1.076,0.9958,0.8906,0.9047,0.7865,0.6371,0.7434,0.738,0.7229,0.9203,0.9956,0.0,0.0,0.0,1.275,1.4261,1.514,1.598,1.7322,1.7424,1.75,1.8981,1.9007,1.8948,1.9803,1.9912,2.0275,2.1678,2.2675,2.3345,2.3578,2.3305,0.0,0.0,0.0,0.0,0.0,0.0,0.0,0.0,0.0,0.0,0.0,0.0,2.4376,2.4209,2.331,2.2491,2.1816,2.1445,2.131,2.1392,2.1392,2.1328,2.1186,2.122,2.0361,1.8767,1.8767,1.8071,1.6865,1.6737,1.6689,1.6689,1.6689,1.6689,1.6713,1.6929,1.7111,1.7254,1.7072,1.7119,1.7138,0.0,0.0,0.0,0.0,0.0,0.0,0.0,0.0,0.0,0.0,0.0,0.0,0.5018,0.4818,0.4621,0.4423,0.4194,0.0,0.0,0.0,0.0,0.3448,0.302,0.0,0.3448,0.3217,0.3217,0.3487,0.3483,0.3449,0.333,0.3629,0.3868,0.4111,0.5145,0.6469,0.808,0.8797,1.0013,1.1392,1.1295,1.1181,1.1122,1.1363,1.0833,0.9873,0.8891,0.8034,0.7196,0.6252,0.5963,0.6163,0.7146,0.8399,0.9582,0.0,0.0,0.0,1.3571,1.4266,1.5,1.5156,1.5099,1.5329,1.6382,1.6573,1.6736,1.7296,1.8171,1.8896,1.902,2.0555,2.2087,2.2989,2.311,0.0,0.0,0.0,0.0,0.0,0.0,0.0,0.0,0.0,0.0,0.0,0.0,2.4302,2.4468,2.3596,2.2774,2.2116,2.205,2.1826,2.1392,2.1392,2.1383,2.141,2.1579,2.0782,1.9187,1.9187,1.8489,1.7231,1.6881,1.6689,1.6689,1.6689,1.6689,1.6761,1.7461,1.7583,1.736,1.7612,1.7568,1.7138,0.0,0.0,0.0,0.0,0.0,0.0,0.0,0.0,0.0,0.0,0.0,0.0,0.0,0.4818,0.4621,0.4423,0.4114,0.0,0.0,0.0,0.0,0.3487,0.3176,0.3061,0.3256,0.3141,0.3195,0.3373,0.3471,0.3439,0.3306,0.3333,0.3599,0.4103,0.5237,0.6426,0.7662,0.8574,0.9666,1.0831,1.1175,1.1272,1.1206,1.1423,1.0941,1.0119,0.9672,0.8538,0.7173,0.6855,0.6245,0.5781,0.6824,0.7597,0.8459,1.027,1.1725,1.2946,1.3519,1.3785,1.4021,1.4631,1.4775,1.4909,1.5402,1.5835,1.6145,1.6208,1.6564,1.7029,1.7438,1.9809,2.1745,2.1802,2.2337,0.0,0.0,0.0,0.0,0.0,0.0,0.0,0.0,0.0,0.0,0.0,0.0,0.0,2.3575,2.3549,2.3125,2.232,2.2456,2.2246,2.1607,2.1607,2.1607,2.1607,2.1121,2.0271,1.8973,1.8481,1.776,1.6879,1.6621,1.6859,1.7397,1.7397,1.7397,1.7421,1.7719,1.7743,1.7623,1.7528,1.7382,1.7181,0.0,0.0,0.0,0.0,0.0,0.0,0.0,0.0,0.0,0.5018,0.0,0.0,0.0,0.0,0.474,0.4501,0.4114,0.3921,0.3921,0.3763,0.3643,0.3487,0.3176,0.3023,0.3102,0.3102,0.3195,0.337,0.3401,0.3427,0.3363,0.3217,0.3464,0.399,0.4994,0.6376,0.8008,0.8896,0.9992,1.1209,1.1539,1.1666,1.175,1.2003,1.1649,1.101,1.0898,0.9488,0.769,0.7597,0.661,0.5582,0.6323,0.7128,0.8176,1.0198,1.1528,1.2395,1.2801,1.2918,1.3007,1.3649,1.3824,1.4042,1.4532,1.5157,1.5688,1.5884,1.6007,1.6214,1.6647,1.8779,2.0465,2.0685,2.1367,0.0,0.0,0.0,0.0,0.0,0.0,0.0,0.0,0.0,0.0,0.0,0.0,0.0,2.3349,2.3884,2.3726,2.2683,2.2721,2.2441,2.1696,2.1696,2.1578,2.1397,2.0738,1.9765,1.8582,1.8083,1.75,1.6929,1.6983,1.7225,1.7557,1.7599,1.7647,1.7671,1.7902,1.7918,1.779,1.7568,1.7416,1.7223,0.0,0.0,0.0,0.0,0.0,0.0,0.0,0.0,0.5018,0.5018,0.0,0.0,0.0,0.0,0.0,0.4701,0.435,0.4118,0.4118,0.3724,0.3526,0.3526,0.0,0.0,0.3102,0.3102,0.3215,0.3483,0.3368,0.3372,0.3485,0.3357,0.3516,0.3929,0.4336,0.621,0.9144,0.9738,1.0971,1.2557,1.2463,1.249,1.2718,1.305,1.2966,1.2642,1.2406,1.0853,0.8818,0.8299,0.6968,0.5479,0.5477,0.686,0.8709,0.9963,1.1269,1.2116,0.0,0.0,0.0,1.1964,1.2123,1.2568,1.3688,1.4459,1.5198,1.6064,1.6398,1.6528,1.6545,1.7244,1.8229,1.957,2.0186,0.0,0.0,0.0,0.0,0.0,0.0,0.0,0.0,0.0,0.0,0.0,0.0,2.3772,2.3775,2.4649,2.455,2.3145,2.293,2.2441,2.1678,2.1678,2.1379,2.0761,2.0342,1.9368,1.8004,1.8079,1.7798,1.7329,1.7962,1.7805,1.7131,1.7285,1.731,1.7366,1.8049,1.8089,1.7798,1.7806,1.7599,1.7215,0.0,0.0,0.0,0.0,0.0,0.0,0.5018,0.5018,0.5018,0.0,0.0,0.0,0.5018,0.4859,0.4779,0.4701,0.4465,0.427,0.4118,0.3999,0.3882,0.3724,0.3256,0.3062,0.3102,0.2943,0.2957,0.3133,0.3266,0.3317,0.3359,0.3188,0.3376,0.3903,0.4353,0.5586,0.7409,0.8775,0.9601,1.0182,1.1986,1.227,1.1784,1.2604,1.2592,1.223,1.2501,1.0968,0.8841,0.8897,0.7347,0.5429,0.5297,0.6192,0.7524,0.8756,1.0115,1.1241,1.1398,0.0,0.0,0.0,0.0,0.0,1.2199,1.3268,1.4261,1.4386,1.4866,1.5173,1.5047,1.5326,1.5922,1.6943,1.8271,0.0,0.0,0.0,0.0,0.0,0.0,0.0,0.0,0.0,0.0,0.0,2.1409,2.1865,2.2812,2.3838,2.4169,2.3609,2.3076,2.2255,2.1082,2.1195,2.0907,2.0123,1.9169,1.8292,1.7606,1.7033,1.6758,1.6734,1.6885,1.7076,1.736,1.8069,1.8097,1.7743,1.8406,1.816,1.7488,1.7727,1.739,1.6873,0.0,0.0,0.0,0.0,0.0,0.5018,0.5018,0.5018,0.5018,0.0,0.0,0.0,0.5018,0.4898,0.4818,0.4818,0.4659,0.4465,0.435,0.4116,0.3882,0.3684,0.3215,0.2943,0.2865,0.2826,0.2845,0.2919,0.3082,0.3233,0.3379,0.3305,0.3497,0.3997,0.4402,0.4983,0.5832,0.7786,0.8998,0.9833,1.1579,1.2185,1.213,1.2716,1.2692,1.2381,1.2985,1.1364,0.9017,0.9418,0.7743,0.5499,0.5377,0.5984,0.6892,0.7675,0.887,1.0066,1.0627,1.0953,1.1142,1.1094,0.0,0.0,1.1444,1.2408,1.3437,0.0,1.4426,1.4821,1.4902,1.5026,1.5233,1.5491,1.6696,0.0,0.0,0.0,0.0,0.0,0.0,0.0,0.0,0.0,0.0,2.0947,2.1033,2.1729,2.3307,2.3986,2.4148,2.3823,2.342,2.2442,2.0822,2.09,2.0533,1.9638,1.8428,1.7651,1.7277,1.6677,1.6388,1.6347,1.6786,1.6992,1.7023,1.7798,1.7966,1.7854,1.8224,1.8017,1.7536,1.7591,1.7215,1.6689,0.0,0.0,0.0,0.5015,0.5018,0.5018,0.5018,0.5018,0.5018,0.0,0.5018,0.5018,0.5018,0.5018,0.5018,0.5018,0.482,0.474,0.4701,0.4192,0.3802,0.3604,0.3176,0.2824,0.2588,0.2746,0.2826,0.2826,0.2956,0.3187,0.3563,0.3603,0.3796,0.4135,0.4374,0.4465,0.4646,0.6851,0.8769,1.0411,1.1288,1.2163,1.2988,1.3125,1.2955,1.27,1.3508,1.1788,0.9191,0.9424,0.7811,0.5661,0.5516,0.5936,0.6568,0.6828,0.7707,0.8713,0.9398,1.0009,1.059,1.0979,1.1253,0.0,1.1152,1.1782,1.2768,0.0,1.4438,1.479,1.5262,1.5457,1.5375,1.4948,1.5546,0.0,0.0,0.0,0.0,0.0,0.0,0.0,0.0,2.1372,2.1135,2.0635,2.143,2.2622,2.4276,2.4507,2.4336,2.3768,2.37,2.276,2.073,2.0687,2.0189,1.9197,1.8019,1.7308,1.7098,1.679,1.652,1.6312,1.7331,1.726,1.6523,1.6885,1.7262,1.766,1.7739,1.7723,1.7671,1.7374,1.7048,1.6689,0.0,0.544,0.5243,0.5015,0.5018,0.5018,0.5018,0.5018,0.5018,0.5018,0.5018,0.5018,0.5018,0.5018,0.5018,0.5018,0.4976,0.4859,0.4701,0.4582,0.4426,0.4229,0.3839,0.3489,0.3212,0.2942,0.2865,0.3023,0.3086,0.3398,0.396,0.3824,0.4013,0.4407,0.4188,0.4236,0.461,0.6421,0.774,0.8851,1.1025,1.2048,1.2286,1.2877,1.2696,1.2195,1.281,1.1195,0.8557,0.7066,0.6166,0.5634,0.5358,0.5387,0.5669,0.6498,0.7002,0.7479,0.8405,0.9141,0.9682,0.9806,1.0146,0.0,1.0629,1.127,1.1928,0.0,1.2733,1.3246,1.3293,1.3898,1.4471,1.4721,1.5274,0.0,0.0,0.0,0.0,0.0,0.0,0.0,0.0,1.9848,1.9978,2.0576,2.143,2.2187,2.2877,2.3972,2.4258,2.3504,2.3222,2.2185,2.0333,2.0012,1.9415,1.8539,1.7566,1.7308,1.7622,1.6779,1.6696,1.7248,1.7408,1.7269,1.6943,1.6666,1.6589,1.6734,1.7349,1.7266,1.6969,1.7191,1.7048,1.6689,0.5637,0.5365,0.5132,0.5015,0.5018,0.5018,0.5018,0.5018,0.5018,0.5018,0.5018,0.5018,0.5018,0.5018,0.5018,0.5018,0.5018,0.4937,0.4859,0.474,0.4621,0.4423,0.4114,0.3841,0.3604,0.3411,0.3335,0.3452,0.3452,0.3686,0.4118,0.4114,0.4281,0.4612,0.452,0.4549,0.467,0.6012,0.7118,0.8212,1.0616,1.1767,1.2106,1.2592,1.2453,1.2104,1.2332,1.0932,0.8628,0.6753,0.5985,0.5776,0.5534,0.5417,0.5438,0.5908,0.6087,0.6366,0.7373,0.7938,0.8444,0.9266,0.9704,0.0,0.0,1.0843,1.1391,1.1832,1.2203,1.2586,1.2815,1.3227,1.363,1.3878,1.4638,1.5335,0.0,0.0,0.0,0.0,0.0,0.0,0.0,1.9826,2.015,2.0576,2.0997,2.1519,2.2174,2.3283,2.3781,2.3443,2.3374,2.25,2.0718,2.0159,1.9506,1.8674,1.7731,1.7497,1.789,1.7083,1.689,1.7079,1.7066,1.6861,1.6566,1.6079,1.5948,1.6095,1.6699,1.6899,1.6826,1.6959,1.6848,1.6689,0.5598,0.5287,0.5018,0.5018,0.0,0.0,0.5018,0.5018,0.5018,0.5018,0.5034,0.5059,0.5083,0.5064,0.5078,0.5108,0.5113,0.5086,0.5086,0.4923,0.4744,0.4543,0.4311,0.4116,0.3919,0.388,0.3843,0.3843,0.3843,0.3999,0.4235,0.4365,0.452,0.4779,0.4928,0.4914,0.487,0.5829,0.6858,0.8103,1.0171,1.1386,1.1997,1.2337,1.2256,1.1914,1.1727,1.0534,0.8768,0.7178,0.6289,0.582,0.5683,0.5556,0.5429,0.542,0.5339,0.5455,0.6354,0.6804,0.7292,0.8545,0.9242,0.9725,0.0,0.0,0.0,1.1744,0.0,1.2049,1.2442,0.0,0.0,0.0,0.0,0.0,0.0,0.0,0.0,0.0,0.0,0.0,0.0,2.0031,2.0568,2.043,2.0683,2.1075,2.157,2.2441,2.3011,2.3156,2.3257,2.2601,2.1144,2.0398,1.9632,1.8873,1.7961,1.7782,1.8184,1.7536,1.7133,1.6943,1.6861,1.6574,1.6087,1.568,1.559,1.5699,1.6154,1.6524,1.6775,1.671,1.6689,1.6689,0.5598,0.5287,0.5018,0.5018,0.0,0.0,0.0,0.5018,0.5018,0.5018,0.5105,0.5208,0.5358,0.5233,0.5298,0.558,0.5455,0.5372,0.5372,0.533,0.5195,0.4945,0.474,0.4543,0.4345,0.4155,0.4079,0.4079,0.4079,0.4272,0.4621,0.4518,0.4642,0.4968,0.4981,0.5046,0.5206,0.6208,0.7303,0.8426,0.9731,1.0686,1.1505,1.2398,1.2188,1.1299,1.0455,0.9486,0.8392,0.0,0.634,0.5545,0.5532,0.537,0.5268,0.5429,0.5189,0.4936,0.5291,0.6021,0.6669,0.6802,0.8199,0.9496,0.9428,0.0,1.0784,1.0709,0.0,1.0923,1.0818,0.0,0.0,0.0,0.0,0.0,1.5091,0.0,0.0,0.0,0.0,0.0,0.0,0.0,2.0358,1.9754,2.0967,2.1352,2.0449,2.1451,2.2014,2.1907,2.1635,2.1279,2.0839,1.99,1.9076,1.8474,1.7992,1.8166,1.8865,1.7883,1.7601,1.7838,1.7473,1.6861,1.6087,1.6046,1.5797,1.5465,1.5963,1.6268,1.649,1.6623,1.6689,1.6689,0.5598,0.5287,0.5018,0.5018,0.0,0.0,0.0,0.5072,0.5116,0.5116,0.5156,0.5287,0.5551,0.5472,0.5545,0.5907,0.5844,0.5754,0.5684,0.5551,0.5389,0.5289,0.5007,0.4888,0.4872,0.4695,0.4626,0.4626,0.456,0.4604,0.4754,0.4673,0.4755,0.5012,0.4988,0.5452,0.6194,0.607,0.6923,0.8424,0.8942,0.9598,1.0343,1.1645,1.182,1.1225,1.0563,0.9866,0.9226,0.0,0.7539,0.0,0.0,0.0,0.5593,0.6181,0.58,0.5252,0.5537,0.635,0.7056,0.0,0.0,0.0,0.856,0.0,1.0088,0.0,0.0,0.0,0.0,0.0,0.0,0.0,1.2035,0.0,0.0,0.0,1.3975,0.0,0.0,0.0,0.0,0.0,0.0,0.0,0.0,1.985,1.9418,2.0288,2.1121,2.18,2.1524,2.1345,2.1249,2.042,1.9615,1.8904,1.8514,1.8483,1.8803,1.8117,1.7886,1.7959,1.731,1.6779,1.6409,1.588,1.5722,1.5839,1.6162,1.6154,1.6023,1.6394,1.6525,1.6517,0.5521,0.5249,0.5018,0.5018,0.5018,0.0,0.0,0.5143,0.5238,0.5238,0.5265,0.5412,0.5699,0.5687,0.5764,0.6143,0.625,0.6192,0.6007,0.5779,0.5588,0.5559,0.5187,0.5086,0.5233,0.5091,0.4999,0.4928,0.4839,0.4795,0.4793,0.4712,0.4769,0.4966,0.5002,0.5705,0.6826,0.6257,0.7127,0.8862,0.8911,0.9335,1.0046,1.1093,1.144,1.1262,1.0914,1.0415,0.9823,0.9478,0.8658,0.0,0.8215,0.0,0.6536,0.0,0.6816,0.6152,0.6107,0.0,0.0,0.0,0.0,0.0,0.0,0.0,0.0,0.0,0.0,0.0,0.0,0.0,1.08,1.0743,0.0,1.1759,0.0,1.2112,0.0,0.0,0.0,0.0,0.0,0.0,0.0,0.0,1.8569,0.0,1.8006,1.903,2.0049,2.0926,2.1142,2.1283,2.1383,2.0708,1.9956,1.9195,1.8816,1.8612,1.8612,1.8241,1.804,1.787,1.7057,1.6656,1.6492,1.5839,1.5797,1.6128,1.636,1.6196,1.5865,1.6394,1.6517,1.6435,0.5359,0.5129,0.5018,0.5018,0.5018,0.5018,0.5018,0.5214,0.5405,0.5405,0.5466,0.5586,0.5871,0.5907,0.6006,0.6374,0.6568,0.6549,0.6306,0.6029,0.5841,0.5688,0.523,0.5127,0.5399,0.5135,0.492,0.4801,0.4798,0.4795,0.479,0.4588,0.4605,0.4801,0.502,0.573,0.683,0.7173,0.8404,1.0041,1.0046,1.0514,1.1225,0.0,1.1149,1.1305,1.1289,0.0,0.0,0.9818,0.917,0.0,0.0,0.0,0.0,0.0,0.0,0.0,0.0,0.0,0.0,0.5398,0.0,0.0,0.0,0.0,0.8874,0.0,0.0,0.0,0.0,1.12,1.1035,1.0596,1.093,0.0,0.0,0.0,0.0,0.0,0.0,0.0,0.0,0.0,0.0,1.7173,1.8727,0.0,1.6045,1.7756,1.8724,1.8513,1.9816,2.062,2.0799,2.0227,1.9598,1.9011,1.8586,1.8402,1.8402,1.8393,1.8152,1.7659,1.6976,1.6492,1.6128,1.6087,1.6095,1.6128,1.6533,1.6451,1.617,1.6812,1.6804,1.6435,0.5895,0.5502,0.5105,0.5029,0.5018,0.5018,0.5018,0.5148,0.5363,0.5681,0.5941,0.6312,0.6978,0.6923,0.6973,0.7416,0.7197,0.6998,0.6884,0.6567,0.6323,0.6155,0.5817,0.5567,0.5448,0.5333,0.5154,0.4917,0.4836,0.4839,0.4909,0.4624,0.4643,0.4911,0.4906,0.5649,0.6874,0.7097,0.8019,0.9332,0.9739,1.0445,1.13,0.0,0.0,1.1284,1.1165,1.089,0.0,1.0411,0.9777,0.9176,0.9722,0.8991,0.8094,0.8849,0.8697,0.0,0.0,0.0,0.8953,0.7098,0.0,0.0,0.0,0.0,0.0,0.0,0.0,0.0,0.0,1.0456,1.0628,1.1094,1.1307,1.1474,0.0,0.0,0.0,0.0,0.0,0.0,0.0,0.0,0.0,1.6063,1.6681,1.6619,0.0,1.6872,1.797,1.8649,1.9605,2.0152,2.0201,2.0111,1.9734,1.9008,1.8584,1.8482,1.8571,1.8282,1.8152,1.8112,1.7139,1.682,1.6902,1.6335,1.6458,1.6984,1.7106,1.7066,1.6943,1.6722,1.6443,1.6245,0.6437,0.6311,0.608,0.553,0.521,0.5045,0.5129,0.5311,0.5643,0.6178,0.6373,0.6732,0.7402,0.7334,0.7343,0.7663,0.7408,0.7177,0.7176,0.672,0.6431,0.6387,0.5966,0.5765,0.5696,0.5496,0.5314,0.5165,0.496,0.4982,0.5135,0.477,0.4724,0.4911,0.4876,0.5541,0.6678,0.731,0.8205,0.9266,0.9971,1.0661,0.0,0.0,1.116,1.1278,0.0,1.0934,1.0816,1.0674,1.0242,0.9934,1.0429,0.9782,0.8932,0.9608,0.9509,0.9147,0.9046,0.9614,0.0,0.821,0.8228,0.0,0.6566,0.0,0.0,0.0,0.0,0.0,0.0,1.0056,1.0096,1.113,1.1177,1.1235,0.0,1.2332,0.0,0.0,0.0,1.5612,0.0,1.6405,1.6207,1.5487,1.5725,1.563,0.0,0.0,1.7217,1.8131,1.9153,1.9766,1.9893,2.0078,1.9826,1.9089,1.8846,1.8614,1.8451,1.8241,1.8201,1.8193,1.7343,1.7106,1.7351,1.6779,1.6902,1.7392,1.7554,1.7514,1.7351,1.6845,1.6443,1.6245,0.6963,0.7565,0.7799,0.6532,0.5688,0.5266,0.5416,0.5764,0.6225,0.6796,0.676,0.684,0.7287,0.7197,0.7116,0.7217,0.7226,0.7223,0.7211,0.6517,0.6217,0.6387,0.5858,0.571,0.6078,0.5684,0.5455,0.5516,0.5173,0.5156,0.5413,0.5012,0.4804,0.4812,0.492,0.5399,0.6245,0.7755,0.8945,0.9929,1.0674,1.1112,1.1241,1.0769,0.0,1.1241,1.1036,1.0805,1.0576,1.0565,1.056,1.056,1.056,1.056,1.056,1.056,1.0571,1.0462,0.9795,0.9648,0.9452,0.8653,0.0,0.0,0.0,0.0,0.817,0.0,0.0,0.0,0.0,0.9985,0.9566,1.0689,1.0641,1.0829,1.1778,1.2361,1.2584,0.0,0.0,1.524,1.5767,1.6407,1.6379,1.5342,1.5893,1.5708,0.0,0.0,0.0,1.6965,1.8461,1.9429,1.9857,2.0051,1.9892,1.9309,1.9309,1.8868,1.8106,1.8331,1.8282,1.804,1.7595,1.7432,1.7432,1.7392,1.7392,1.7473,1.7838,1.7757,1.7351,1.718,1.6812,1.6394,0.7511,0.8475,0.9063,0.8341,0.8019,0.7525,0.6465,0.6979,0.7354,0.6904,0.7067,0.7453,0.7902,0.7955,0.7923,0.7753,0.7469,0.7284,0.7044,0.6792,0.6603,0.6575,0.6376,0.6263,0.6089,0.5964,0.5831,0.5642,0.5459,0.5402,0.5454,0.5098,0.4933,0.493,0.4868,0.4976,0.5306,0.7383,0.9192,1.0674,1.0712,1.0864,0.0,0.0,1.0672,1.0748,1.0557,1.0433,1.0353,1.0164,1.0066,1.0066,1.0066,1.0066,1.0066,1.0066,1.0234,1.0356,1.0171,1.0392,1.0433,0.9498,0.9498,0.94,0.0,0.0,0.0,0.0,0.0,0.0,0.0,0.0,0.9406,1.0421,1.1101,1.1664,1.2145,1.2161,1.2158,1.2355,0.0,1.3222,1.4352,1.4956,1.5118,1.4714,1.5316,0.0,0.0,0.0,0.0,1.6924,1.7935,1.8669,1.9004,1.9502,1.9687,1.9497,1.9383,1.9256,1.9172,1.8784,1.8692,1.8723,1.7951,1.7829,1.8121,1.7595,1.7595,1.7878,1.7959,1.7757,1.7351,1.6943,1.6533,1.6286,0.8619,0.9538,1.0064,0.9543,0.9608,0.9178,0.7469,0.7636,0.7751,0.7223,0.7257,0.7497,0.7921,0.7876,0.7826,0.7786,0.7451,0.7235,0.7153,0.6853,0.6628,0.6616,0.6521,0.6372,0.617,0.6113,0.6045,0.5966,0.5642,0.5559,0.565,0.5284,0.5064,0.5015,0.4906,0.5106,0.5635,0.7896,0.9683,1.0966,1.0729,0.0,0.0,1.0453,1.0351,1.0455,1.0218,1.0132,1.011,0.997,0.9884,0.9884,0.9884,0.9884,0.9884,0.9884,1.0019,1.0153,1.0266,1.0482,1.058,1.0135,1.0161,1.0119,0.928,0.9228,0.9339,0.0,0.0,0.0,0.0,0.0,0.0,1.0425,1.1531,1.2276,1.2312,1.2391,1.2427,1.2361,1.2314,0.0,0.0,1.3636,1.3921,1.4265,1.4691,0.0,0.0,0.0,0.0,1.6551,1.7265,1.7735,1.7943,1.855,1.8945,1.9083,1.922,1.9357,1.9415,1.9076,1.894,1.8931,1.8391,1.8282,1.85,1.8301,1.8267,1.8282,1.8201,1.7878,1.7392,1.7221,1.6935,1.6746,1.0033,1.0599,1.0849,1.06,1.0645,1.0236,0.8575,0.8276,0.0,0.8053,0.0,0.7554,0.7747,0.7522,0.7373,0.7459,0.7199,0.7087,0.7271,0.6714,0.646,0.6581,0.6399,0.629,0.629,0.6187,0.6176,0.6317,0.5817,0.5642,0.5847,0.5396,0.5127,0.5018,0.5018,0.5621,0.6764,0.8815,1.0198,1.0966,1.0729,1.074,1.0826,1.0207,1.0083,1.0218,0.9997,0.9884,0.9884,0.9884,0.9884,0.9884,0.9884,0.9884,0.9884,0.9884,0.9884,0.997,1.0186,1.0266,1.0342,1.0501,1.0571,1.0471,0.9852,0.9836,0.9932,0.9974,0.9726,0.0,0.0,0.0,0.0,1.0527,1.1715,1.247,1.2164,1.2619,1.2793,1.229,1.2521,0.0,0.0,0.0,0.0,0.0,0.0,0.0,0.0,0.0,0.0,0.0,1.6571,0.0,1.7047,0.0,1.8219,1.8629,1.9071,1.9305,1.929,1.9228,1.9059,1.8891,1.8774,1.8731,1.8767,1.9147,1.9035,1.8642,1.842,1.7991,1.7514,1.7659,1.7668,1.7514,1.1227,1.1402,1.1439,1.2149,1.1354,1.0505,1.0184,1.0371,1.0494,1.0469,0.9493,0.8778,0.8811,0.8051,0.7381,0.6992,0.7068,0.0,0.6594,0.6481,0.6401,0.6416,0.6379,0.6407,0.6407,0.6336,0.6339,0.6317,0.5983,0.5763,0.5561,0.532,0.5127,0.5018,0.5018,0.6093,0.7938,0.9002,0.0,1.0966,1.0729,1.0546,1.0401,1.0277,1.0126,0.9981,0.9933,0.9884,0.9884,0.9884,0.9884,0.9884,0.9884,0.9884,0.9884,0.9884,0.9884,0.9927,0.9976,1.0137,1.0304,1.0342,1.0498,1.0557,1.0471,1.0462,1.0447,1.0453,1.0622,1.0573,1.0159,0.0,0.0,0.0,0.0,0.0,0.0,1.1934,1.2322,1.185,1.198,1.2223,0.0,0.0,0.0,0.0,0.0,0.0,0.0,0.0,0.0,0.0,0.0,0.0,0.0,0.0,0.0,1.9722,1.9408,1.943,1.9674,1.9353,1.9041,1.8735,1.8819,1.8883,1.8868,1.9133,1.8971,1.8592,1.82,1.8,1.7919,1.791,1.8072,1.8241,1.165,1.143,1.1035,1.0927,1.0205,0.0,0.0,1.0731,1.0548,1.0057,0.8808,0.8199,0.8856,0.7963,0.7242,0.7119,0.7553,0.769,0.7443,0.7885,0.7924,0.738,0.7269,0.6953,0.635,0.6407,0.635,0.6173,0.0,0.568,0.5499,0.5241,0.5069,0.506,0.6286,0.7218,0.0,0.0,0.0,1.0794,1.064,1.0498,1.0277,1.0153,1.0024,0.9884,0.9884,0.9884,0.9884,0.9884,0.9884,0.9884,0.9884,0.9884,0.9884,0.9884,0.9884,0.9884,0.9884,1.0008,1.01,1.01,1.0186,1.0222,1.0222,1.0222,1.0297,1.0544,1.0683,1.0755,1.0663,1.0831,0.0,0.0,0.0,0.0,0.0,0.0,1.1763,1.1519,1.1502,1.1588,0.0,0.0,0.0,0.0,0.0,0.0,0.0,0.0,0.0,0.0,0.0,0.0,0.0,0.0,0.0,1.9435,1.9321,1.9539,2.0052,1.979,1.9561,1.9437,1.9368,1.9368,1.936,1.9258,1.9165,1.8987,1.8417,1.8121,1.8,1.8,1.8161,1.8402,1.1642,1.1132,1.0454,0.9484,0.891,0.9009,1.0289,1.007,0.9764,0.9701,0.8491,0.8038,0.8947,0.8081,0.754,0.7824,0.8367,0.8643,0.8535,0.9292,0.9352,0.8445,0.8368,0.7822,0.6695,0.6735,0.6516,0.0,0.0,0.0,0.0,0.5197,0.5129,0.0,0.0,0.0,0.0,0.0,1.1205,1.0662,1.0613,1.0498,1.0266,1.0013,0.9884,0.9884,0.9884,0.9884,0.9884,0.9884,0.9884,0.9884,0.9884,0.9884,0.9884,0.9884,0.9884,0.9884,0.9884,0.9884,0.9884,0.9884,0.9884,0.9884,0.9884,0.9884,0.9986,1.0367,1.0522,1.0765,1.1297,1.1628,0.0,0.0,0.0,0.0,0.0,0.0,1.141,1.1175,1.1219,1.1334,1.1495,0.0,0.0,0.0,0.0,0.0,0.0,0.0,0.0,0.0,0.0,0.0,1.7021,0.0,1.8129,0.0,1.9151,1.9531,2.0253,2.0094,1.9965,1.9913,1.9825,1.9772,1.9737,1.9375,1.9256,1.9219,1.8583,1.8201,1.8,1.8,1.8112,1.8313,1.1153,1.07,1.0232,0.0,0.0,0.0,0.8715,0.8365,0.8969,1.1542,1.1039,1.0322,1.0,0.9299,0.8902,0.9168,0.9485,0.9413,0.8871,0.9332,0.947,0.9143,0.9327,0.8958,0.7855,0.7865,0.7296,0.0,0.0,0.0,0.0,0.0,0.0,0.0,0.0,0.0,0.0,1.082,1.118,1.0934,1.0719,1.0498,1.0266,1.0013,0.9884,0.9884,0.9884,0.9884,0.9884,0.9884,0.9884,0.9884,0.9884,0.9884,0.9884,0.9884,0.9884,0.9884,0.9884,0.9884,0.9884,0.9884,0.9884,0.9884,0.9884,0.9884,0.9895,0.9938,1.0292,1.0813,1.1512,1.133,1.1317,0.0,0.0,0.0,0.0,0.0,1.1408,1.0746,1.1617,1.2022,0.0,1.1887,0.0,0.0,0.0,0.0,0.0,0.0,0.0,0.0,0.0,1.6966,1.7103,1.7722,0.0,1.9869,1.9219,1.9357,2.0096,1.9841,1.9555,1.929,1.9599,1.9692,1.9658,1.9316,1.9015,1.8638,1.8194,1.804,1.8,1.8,1.804,1.804,0.0,0.0,0.0,0.0,0.0,0.0,0.0,0.8539,0.9304,1.05,1.0382,1.0424,1.1059,1.0149,0.9595,0.9837,1.0332,1.0458,1.0056,1.0971,1.1085,1.0201,1.0431,1.0043,0.8962,0.8962,0.8317,0.0,0.0,0.0,0.0,0.0,0.0,0.0,0.0,0.9478,0.9744,1.0835,1.1109,1.0756,1.0525,1.0283,1.0056,0.996,0.9884,0.9884,0.9884,0.9884,0.9884,0.9884,0.9884,0.9884,0.9884,0.9884,0.9884,0.9884,0.9884,0.9884,0.9884,0.9884,0.9884,0.9884,0.9884,0.9884,0.9884,0.9884,0.9965,1.0116,1.0406,1.0692,1.1004,1.1033,1.105,0.0,0.0,0.0,0.0,0.0,0.0,1.0215,1.0362,1.0515,1.0596,0.0,0.0,0.0,0.0,0.0,0.0,0.0,0.0,1.5327,0.0,1.7852,1.8377,1.8807,1.9365,2.0127,2.0026,2.0131,2.0472,2.0159,1.9984,1.9838,1.9725,1.97,1.9648,1.9076,1.8767,1.8554,1.8145,1.8,1.8,1.8,1.8,1.8,1.0218,0.0,0.9251,0.0,0.8202,0.8236,0.8115,0.9207,1.0009,0.9902,1.0349,1.0852,1.1247,1.0751,1.0368,1.0399,1.1088,1.1383,1.0993,1.2,1.2157,1.1118,1.1315,0.0,0.9885,0.989,0.9255,0.798,0.7795,0.0,0.0,0.0,0.0,0.0,0.9601,1.0026,1.008,1.0866,1.0933,1.0479,1.0358,1.0143,0.9884,0.9884,0.9884,0.9884,0.9884,0.9884,0.9884,0.9884,0.9884,0.9884,0.9884,0.9884,0.9884,0.9884,0.9884,0.9884,0.9884,0.9884,0.9884,0.9884,0.9884,0.9884,0.9884,0.9884,0.997,1.0148,1.0369,1.0495,1.0495,1.0724,1.0867,0.0,0.0,0.0,0.0,1.0106,0.0,1.0079,1.0071,1.0148,1.0426,1.0677,0.0,0.0,0.0,0.0,0.0,0.0,0.0,0.0,0.0,0.0,0.0,0.0,1.9716,2.0458,2.0571,2.0675,2.0781,2.0473,2.0292,2.0275,1.9853,1.964,1.9477,1.8862,1.8519,1.84,1.8094,1.8,1.8,1.8,1.8,1.8,1.1544,1.1377,1.102,0.9969,0.977,0.959,0.8965,1.0188,1.1028,1.0534,1.1798,1.2073,1.0199,1.1065,1.1541,1.0957,1.1807,1.2072,1.1321,1.1795,1.1997,0.0,0.0,1.1594,1.0528,1.0482,0.9911,0.8709,0.0,0.0,0.8357,0.0,0.0,0.9761,0.9847,1.03,1.0977,1.0982,1.0719,1.0299,1.0293,1.0143,0.9884,0.9884,0.9884,0.9884,0.9884,0.9884,0.9884,0.9884,0.9884,0.9884,0.9884,0.9884,0.9884,0.9884,0.9884,0.9884,0.9884,0.9884,0.9884,0.9884,0.9884,0.9884,0.9884,0.9884,0.9922,0.9922,1.0126,1.0299,1.0299,1.0487,1.0678,1.0961,0.0,0.0,0.0,0.0,0.0,1.0573,1.1404,1.1739,1.1152,1.183,0.0,0.0,0.0,0.0,0.0,0.0,0.0,1.7099,1.6634,0.0,1.8993,1.8809,1.9522,2.1099,2.0639,2.0633,2.0997,2.051,2.0292,2.0275,1.9853,1.953,1.9144,1.8751,1.8374,1.8,1.8,1.8,1.8,1.8,1.8,1.8,0.9317,0.9736,0.9957,0.932,0.9433,0.9587,0.9413,1.0405,1.1127,1.0995,1.2029,1.2302,1.0981,1.1794,1.2323,0.0,1.2076,1.2,0.0,1.1731,1.1779,1.1704,1.1774,1.1716,1.1531,1.1401,1.0791,0.9724,0.0,0.0,0.0,0.9188,0.9612,1.0601,1.0434,1.0527,1.0735,1.0579,1.0428,1.0277,1.0105,0.9992,0.9884,0.9884,0.9884,0.9884,0.9884,0.9884,0.9884,0.9884,0.9884,0.9884,0.9884,0.9884,0.9884,0.9884,0.9884,0.9884,0.9884,0.9884,0.9884,0.9884,0.9884,0.9884,0.9884,0.9884,0.9884,0.9884,0.9981,1.004,1.004,1.01,1.0148,1.0225,0.0,0.0,0.0,0.0,0.997,1.0122,1.0099,1.0256,0.0,1.0921,0.0,0.0,0.0,0.0,0.0,0.0,0.0,0.0,1.8038,0.0,1.9555,1.9811,2.02,2.0714,2.0976,2.0989,2.0781,2.0645,2.0473,2.0275,1.9853,1.9521,1.9187,1.8793,1.8374,1.8,1.8,1.8,1.8,1.8,1.8,1.8,0.9948,1.0394,1.071,1.0407,1.0619,1.071,1.0439,1.1111,1.1557,1.1261,1.2,1.2289,1.1614,1.2162,0.0,1.1744,1.1868,1.1817,1.1585,1.1569,1.1569,1.1569,1.1569,1.1613,1.174,0.0,0.0,1.0598,1.0512,1.0314,1.0098,0.9912,1.0208,1.0848,1.0656,1.0549,1.0498,1.0353,1.0239,1.0137,0.9981,0.9884,0.9884,0.9884,0.9884,0.9884,0.9884,0.9884,0.9884,0.9884,0.9846,0.9771,0.9771,0.9771,0.9809,0.9884,0.9884,0.9884,0.9884,0.9884,0.9884,0.9884,0.9884,0.9884,0.9884,0.9884,0.9884,0.9884,0.9884,0.9954,1.0105,0.9997,0.9997,1.0293,0.0,1.018,1.0331,0.0,0.0,0.0,0.0,0.0,0.0,1.1479,0.0,0.0,0.0,0.0,0.0,0.0,0.0,1.7897,1.882,0.0,2.0056,2.0352,2.0594,2.075,2.1165,2.1167,2.0699,2.0699,2.0564,2.0266,1.9752,1.9393,1.9179,1.8596,1.8245,1.8,1.8,1.8,1.8,1.8,1.8,1.8,1.2405,1.2657,0.0,0.0,1.278,0.0,1.1828,1.2118,1.212,1.1445,1.1774,1.2083,1.2073,1.2073,1.1652,1.0617,0.0,0.0,0.0,1.1289,1.1289,1.1305,1.1278,0.0,1.1257,1.1241,1.1241,1.1214,1.1074,1.0848,1.0597,1.0576,1.0571,1.0571,1.0554,1.0466,1.0266,1.0266,1.0132,0.9884,0.9884,0.9884,0.9884,0.9884,0.9884,0.9884,0.9884,0.9884,0.9884,0.9884,0.9771,0.962,0.962,0.962,0.9657,0.9846,0.9879,0.9884,0.9884,0.9884,0.9884,0.9884,0.9884,0.9884,0.9884,0.9884,0.9922,0.9922,0.997,1.0095,1.0504,1.0278,1.024,1.1023,1.0787,1.0663,1.1037,0.0,0.0,0.0,0.0,0.0,0.0,1.3071,1.3113,0.0,0.0,0.0,0.0,0.0,1.6058,1.8747,1.9219,1.9778,2.047,2.0576,2.0787,2.1154,2.1336,2.1159,2.0699,2.0699,2.0564,2.0249,1.953,1.9239,1.9162,1.8382,1.8025,1.8,1.8,1.8,1.8,1.8,1.8,1.8,0.0,0.0,1.1659,1.1905,1.2451,1.2629,1.2094,1.2081,1.2103,1.193,1.1842,1.1796,1.1801,1.1779,1.1599,1.1146,1.1299,1.1364,1.1311,1.1176,1.1155,1.13,1.0957,1.0764,1.0764,1.046,1.0374,1.0522,1.0623,1.0651,1.0592,1.0455,1.0374,1.0369,1.0175,1.0024,1.0008,1.0008,0.9976,0.9884,0.9884,0.9884,0.9884,0.9884,0.9884,0.9884,0.9884,0.9884,0.9884,0.9884,0.9884,0.9846,0.9846,0.9846,0.9809,0.9695,0.9771,0.9884,0.9884,0.9884,0.9884,0.9884,0.9884,0.9884,0.9884,0.9884,0.9992,1.0293,1.0558,1.0843,1.1266,1.1266,1.1266,1.1457,1.1206,1.0999,1.1074,1.0925,0.0,0.0,1.1455,1.1675,1.256,1.2543,1.2791,0.0,0.0,0.0,0.0,0.0,1.7853,2.0021,2.0475,2.0631,2.0521,2.1092,2.1449,2.1549,2.1606,2.1374,2.0907,2.0907,2.069,2.0266,1.9804,1.9444,1.9179,1.8656,1.8288,1.8,1.8,1.8,1.8,1.8,1.8,1.8,1.0033,1.0944,1.1687,1.1834,1.2224,1.2359,1.1991,1.1909,1.1868,1.1763,1.1591,1.1504,1.1509,1.1353,1.1192,1.1027,1.1017,1.1017,1.1017,1.0932,1.0921,1.1006,1.0958,1.0829,1.0635,1.0426,1.0276,1.0152,1.0357,1.0383,1.0265,1.018,1.0126,1.0121,0.9981,0.9884,0.9884,0.9884,0.9884,0.9884,0.9884,0.9884,0.9884,0.9884,0.9884,0.9884,0.9884,0.9884,0.9884,0.9884,0.9846,0.9733,0.9657,0.9695,0.9733,0.9511,0.9657,0.9884,0.9884,0.9884,0.996,1.0143,1.018,1.0218,1.0406,1.0443,1.0519,1.0738,1.1024,1.14,1.1818,1.1703,1.1703,1.2094,1.1596,1.126,1.1443,1.1352,0.0,1.2063,1.2228,1.26,1.3376,1.3682,1.4033,1.4538,0.0,0.0,1.7497,1.8406,1.9416,2.0461,2.0906,2.1007,2.0796,2.1227,2.1504,2.1696,2.1696,2.1463,2.0997,2.0997,2.0736,2.0266,1.9718,1.9367,1.9127,1.8571,1.822,1.8,1.8,1.8,1.8,1.8,1.8102,1.8263,1.0247,1.1052,1.1711,1.1812,1.1976,1.2002,1.1688,1.1632,1.1529,1.1294,1.1219,1.1219,1.1267,1.0921,1.0695,1.0695,1.059,1.0523,1.0601,1.0601,1.0601,1.0601,1.0884,1.0879,1.0512,1.0476,1.0263,0.9946,1.0117,1.0088,0.9884,0.9884,0.9884,0.9884,0.9884,0.9884,0.9884,0.9884,0.9884,0.9884,0.9884,0.9884,0.9884,0.9884,0.9884,0.9884,0.9884,0.9884,0.9884,0.9884,0.9771,0.962,0.9435,0.9511,0.9625,0.9435,0.962,0.9922,0.996,1.003,1.0143,1.0519,1.0588,1.0663,1.1037,1.1111,1.1111,1.1186,1.1473,1.1887,1.2273,1.208,1.208,1.2736,1.2059,1.1572,1.1901,0.0,1.2308,1.2857,1.3414,1.3933,1.4426,1.524,1.5701,1.5683,1.7131,0.0,0.0,1.9796,2.0549,2.0604,2.0998,2.12,2.12,2.1135,2.1319,2.1696,2.1696,2.1463,2.1042,2.1042,2.0781,2.0294,1.9651,1.9264,1.9119,1.8417,1.8042,1.8,1.8,1.8,1.8,1.8059,1.8314,1.8545,0.832,0.9092,0.9767,1.0464,1.1409,1.1948,1.1429,1.1222,1.1086,1.1039,1.0911,1.0862,1.1051,1.0842,1.0695,1.0695,1.0014,0.9762,1.0075,1.0126,1.0126,1.0126,1.0013,0.9831,0.9597,0.9379,0.9404,0.9677,0.9677,0.977,0.9884,0.9884,0.9884,0.9884,0.9884,0.9884,0.9884,0.9884,0.9884,0.9884,0.9884,0.9884,0.9884,0.9884,0.9884,0.9884,0.9884,0.9884,0.9884,0.9884,0.9884,0.9846,0.9809,0.9846,0.9846,0.9809,0.9846,0.996,1.0331,1.0663,1.0925,1.0999,1.0999,1.1037,1.1074,1.1111,1.1186,1.1558,1.2056,1.258,1.2975,1.2982,1.2982,1.31,1.2594,1.2164,0.0,0.0,1.3126,1.3427,1.3979,1.4422,1.4466,1.5085,1.5883,1.6944,1.772,1.8737,2.0083,2.0364,2.0677,2.1007,2.142,2.1595,2.1595,2.1282,2.1319,2.1696,2.1696,2.1562,2.1347,2.1347,2.1069,2.0628,2.0148,1.9687,1.9136,1.8691,1.8314,1.8,1.8,1.8,1.8034,1.8382,1.8537,1.8664,0.7969,0.8534,0.9118,0.9478,1.0297,1.0834,1.0589,1.0786,1.1035,1.1148,1.1003,1.0864,1.083,1.0528,1.0259,1.0014,0.938,0.9087,0.9306,0.9543,0.9732,0.9847,0.9867,0.9697,0.9424,0.913,0.9137,0.9435,0.9549,0.9695,0.9884,0.9884,0.9884,0.9884,0.9884,0.9884,0.9884,0.9884,0.9884,0.9884,0.9884,0.9884,0.9884,0.9884,0.9884,0.9884,0.9884,0.9884,0.9884,0.9884,0.9884,0.9884,0.9771,0.9809,0.9884,0.9771,0.9809,0.9992,1.0406,1.0625,1.0887,1.1298,1.1409,1.1484,1.1706,1.1744,1.1863,1.2205,1.2628,1.3021,1.3333,1.3313,1.326,1.338,1.2806,0.0,0.0,1.3166,1.3573,1.4019,1.4636,1.523,1.5931,1.6536,1.7361,1.8508,1.9304,2.0051,2.0772,2.1053,2.1211,2.1403,2.1595,2.1696,2.1696,2.1504,2.1504,2.1696,2.1696,2.1607,2.1392,2.1392,2.1159,2.0664,2.0027,1.9549,1.9127,1.8537,1.8153,1.8,1.8,1.8,1.8057,1.8391,1.8678,1.8913,0.7717,0.8127,0.8496,0.8496,0.9288,0.9903,0.9903,1.0521,1.1051,1.1224,1.1004,1.0771,1.0632,1.0157,0.9727,0.9434,0.8981,0.8703,0.8703,0.9053,0.9301,0.9452,0.9622,0.9597,0.9384,0.9144,0.9137,0.9435,0.9549,0.9669,0.9761,0.9761,0.9697,0.9612,0.9734,0.9761,0.9761,0.9857,0.9884,0.9884,0.9884,0.9884,0.9884,0.9884,0.9884,0.9884,0.9884,0.9884,0.9884,0.9884,0.9884,0.9884,0.9733,0.9846,0.9992,0.9846,0.9992,1.0255,1.0663,1.085,1.1074,1.1706,1.1855,1.1929,1.2224,1.2305,1.2385,1.2723,1.2993,1.326,1.3547,1.342,1.3407,1.366,0.0,0.0,0.0,1.3721,1.4053,1.4432,1.5097,1.5896,1.6999,1.7758,1.8637,1.9657,2.0577,2.1145,2.1245,2.1513,2.1696,2.1696,2.1696,2.1696,2.1696,2.1696,2.1696,2.1607,2.1607,2.1571,2.1392,2.1392,2.1159,2.0754,2.0105,1.9627,1.9264,1.8632,1.8282,1.8119,1.8209,1.8209,1.8267,1.8597,1.9059,1.9436,0.6748,0.702,0.7228,0.7228,0.8719,0.9903,0.9903,1.0521,1.1008,1.1008,1.0645,1.0333,1.0317,0.9812,0.9434,0.9419,0.8981,0.8703,0.8703,0.8718,0.8765,0.8761,0.878,0.8975,0.9309,0.9108,0.9289,0.9841,0.9695,0.9505,0.9327,0.9327,0.9145,0.8821,0.9166,0.9327,0.938,0.975,0.9884,0.9884,0.9884,0.9884,0.9884,0.9884,0.9884,0.9884,0.9884,0.9884,0.9884,0.9884,0.9884,0.9884,0.9884,1.0143,1.0443,1.0443,1.07,1.1111,1.1484,1.1892,1.2187,1.2224,1.2261,1.2261,1.2298,1.2305,1.2385,1.2723,1.2993,1.326,1.3547,1.3586,1.3666,1.4008,0.0,0.0,1.3975,1.4509,1.4783,1.4543,1.5232,1.5951,1.6418,1.7518,1.8629,1.9728,2.0612,2.1282,2.1623,2.1678,2.1696,2.1696,2.1696,2.1696,2.1696,2.1696,2.1607,2.1446,2.1446,2.1392,2.1392,2.1392,2.1248,2.0988,2.0935,2.0402,1.9648,1.9597,1.9153,1.8587,1.8761,1.8861,1.8996,1.9514,1.9996,2.0438,0.6729,0.6605,0.6479,0.6479,0.7404,0.8368,0.8938,0.9531,1.0136,1.0911,1.046,1.01,1.0115,0.9677,0.9326,0.9154,0.887,0.8703,0.8703,0.8703,0.8703,0.8703,0.8937,0.9094,0.9099,0.8778,0.8854,0.9326,0.9014,0.8867,0.8924,0.8924,0.8842,0.8695,0.8847,0.9067,0.9306,0.9474,0.967,0.9884,0.9884,0.9884,0.9884,0.9884,0.9884,0.9884,0.9884,0.9809,0.9733,0.9733,0.962,0.9582,0.996,1.018,1.0443,1.1074,1.1335,1.1558,1.1966,1.2003,1.2003,1.2224,1.2305,1.2305,1.2305,1.2305,1.2438,1.2933,1.3126,1.3353,1.3828,1.3726,1.37,1.4041,0.0,1.3773,1.4289,1.4549,1.4783,1.5037,1.5357,1.6181,1.7765,1.829,1.9233,2.0864,2.1272,2.1522,2.1678,2.1696,2.1696,2.1696,2.1696,2.1696,2.1696,2.1562,2.1482,2.1392,2.1239,2.1141,2.115,2.1302,2.1203,2.0817,2.0882,2.043,1.9727,1.9783,1.9547,1.9193,1.9454,1.9397,1.9238,1.9838,2.0036,2.0039,0.6659,0.6305,0.5997,0.5997,0.6577,0.7287,0.7937,0.8513,0.9275,1.0367,0.9973,0.9702,0.998,0.9628,0.9295,0.9113,0.8975,0.8894,0.8894,0.8831,0.8784,0.878,0.8987,0.9138,0.917,0.8807,0.8763,0.9087,0.8694,0.8483,0.8513,0.8513,0.8443,0.8344,0.8448,0.8664,0.8949,0.9129,0.9363,0.9622,0.9659,0.9696,0.967,0.9707,0.9691,0.968,0.9718,0.9615,0.9493,0.9523,0.9397,0.9397,0.9992,1.0406,1.0812,1.1632,1.1892,1.1966,1.2224,1.2114,1.1966,1.2224,1.2305,1.2305,1.2305,1.2305,1.2478,1.3086,1.3213,1.3387,1.3975,1.3921,1.3881,1.4175,1.4048,1.4053,1.4589,1.4736,1.491,1.5224,1.5695,1.6671,1.8476,1.8999,1.994,2.1597,2.1696,2.1696,2.1696,2.1696,2.1696,2.1696,2.1651,2.1607,2.1607,2.1517,2.1437,2.1293,2.115,2.1141,2.1141,2.1239,2.1159,2.0916,2.0864,2.0563,2.0111,2.0227,2.0085,1.9841,1.9931,1.9882,1.9817,2.0181,2.0265,2.0182,0.6384,0.6035,0.5686,0.5686,0.6409,0.6997,0.6997,0.7659,0.8487,0.9263,0.8969,0.9045,0.9875,0.9568,0.9284,0.9284,0.9284,0.9284,0.9284,0.9104,0.901,0.9013,0.8807,0.8973,0.9576,0.92,0.9082,0.9296,0.8898,0.8503,0.8112,0.8112,0.7894,0.7536,0.7913,0.8112,0.8132,0.8732,0.9006,0.9001,0.9141,0.9206,0.9198,0.9269,0.9247,0.9205,0.9272,0.9297,0.9291,0.9288,0.9322,0.9397,1.003,1.0887,1.1781,1.2187,1.2305,1.2305,1.2305,1.2305,1.2305,1.2305,1.2305,1.2305,1.2305,1.2305,1.2478,1.3086,1.3213,1.3394,1.3975,1.4088,1.4182,1.4469,1.4516,1.4616,1.4961,1.5256,1.533,1.5042,1.6388,1.7557,1.8258,1.9532,2.0664,2.1642,2.1696,2.1696,2.1696,2.1696,2.1696,2.1696,2.1526,2.1392,2.1392,2.1607,2.1454,2.0997,2.1293,2.1392,2.1392,2.1141,2.1141,2.1392,2.1141,2.0997,2.0997,2.0997,2.082,2.049,2.0278,2.0436,2.0768,2.0592,2.0769,2.1044,0.634,0.5881,0.5477,0.5477,0.5698,0.6089,0.6756,0.6914,0.7254,0.8173,0.8413,0.8644,0.9024,0.9204,0.9284,0.9284,0.9284,0.9246,0.9099,0.8886,0.8793,0.8788,0.8587,0.8647,0.8959,0.8524,0.8478,0.88,0.8267,0.7921,0.7824,0.772,0.7698,0.7717,0.7688,0.7923,0.8319,0.8493,0.873,0.9022,0.9185,0.9253,0.9259,0.9301,0.9269,0.9288,0.9276,0.9465,0.9718,0.9712,0.9922,1.0255,1.085,1.1558,1.215,1.2261,1.2305,1.2305,1.2305,1.2305,1.2305,1.2305,1.2305,1.2358,1.2603,1.265,1.2824,1.3353,1.3473,1.3593,1.4015,1.4461,1.4825,1.4916,1.5337,1.5661,1.5757,1.6215,1.6556,1.6683,1.7475,1.8433,1.9611,2.0045,2.0664,2.1642,2.1696,2.1696,2.1696,2.1696,2.1696,2.1696,2.1651,2.1517,2.1392,2.1284,2.1132,2.0997,2.1096,2.1141,2.1141,2.1239,2.1239,2.1141,2.1365,2.132,2.1042,2.1365,2.1184,2.0753,2.1091,2.0969,2.0674,2.1165,2.1046,2.0677,0.6162,0.5704,0.5297,0.5129,0.5245,0.5501,0.599,0.5919,0.6143,0.6963,0.7614,0.8161,0.8432,0.9122,0.9511,0.9435,0.9473,0.9435,0.9251,0.8992,0.8779,0.8707,0.8419,0.8408,0.8795,0.8432,0.8354,0.8596,0.7999,0.7738,0.7821,0.7597,0.7607,0.7811,0.7679,0.7832,0.8185,0.8308,0.8518,0.8735,0.8949,0.9006,0.9016,0.9067,0.9055,0.9042,0.9331,0.9562,0.9824,1.0072,1.0475,1.0925,1.1298,1.1818,1.2305,1.2305,1.2305,1.2305,1.2305,1.2305,1.2331,1.2452,1.2516,1.2563,1.2744,1.2878,1.3066,1.3507,1.36,1.3693,1.4035,1.4419,1.4797,1.5048,1.545,1.5903,1.6399,1.6877,1.7298,1.7686,1.8568,1.9417,2.0232,2.0628,2.1087,2.1651,2.1696,2.1696,2.1696,2.1696,2.1696,2.1696,2.1607,2.1526,2.1392,2.1248,2.115,2.115,2.123,2.1275,2.1275,2.1338,2.1338,2.1275,2.1472,2.1472,2.1311,2.1415,2.1259,2.0953,2.1131,2.1053,2.0796,2.1083,2.09,2.0493,0.5852,0.5467,0.5039,0.4733,0.4918,0.505,0.4894,0.4888,0.5165,0.5809,0.6808,0.7617,0.8042,0.9155,0.9809,0.9582,0.9771,0.9809,0.9625,0.9243,0.8932,0.872,0.8288,0.8343,0.8929,0.868,0.8565,0.8599,0.8022,0.7839,0.804,0.7707,0.7674,0.7903,0.7884,0.7854,0.7917,0.8178,0.8321,0.8342,0.8568,0.868,0.87,0.8834,0.883,0.8832,0.9468,0.9702,0.9834,1.0476,1.1037,1.1484,1.1484,1.1874,1.2338,1.2311,1.2318,1.2338,1.2311,1.2305,1.2365,1.2677,1.279,1.2837,1.2857,1.3046,1.3293,1.358,1.3681,1.385,1.4119,1.4292,1.4538,1.5166,1.5362,1.5848,1.7022,1.747,1.7906,1.8447,1.9659,2.0439,2.0439,2.1186,2.1696,2.1696,2.1696,2.1696,2.1696,2.1696,2.1678,2.1641,2.1472,2.1364,2.1337,2.1364,2.1356,2.1392,2.1607,2.1696,2.1687,2.1526,2.1526,2.1696,2.1526,2.1499,2.1604,2.1264,2.1062,2.097,2.0649,2.0741,2.1007,2.0649,2.0521,2.0457,0.5325,0.4885,0.4559,0.4495,0.4513,0.4575,0.4499,0.4518,0.4813,0.5583,0.6472,0.7318,0.8003,0.9041,0.9587,0.9397,0.9549,0.9657,0.962,0.9364,0.9067,0.8731,0.8557,0.8469,0.8465,0.834,0.8353,0.8527,0.8235,0.823,0.8456,0.8226,0.8344,0.8723,0.8417,0.8366,0.8481,0.8425,0.8349,0.8351,0.9088,0.9372,0.945,0.9908,1.0087,1.0111,1.0254,1.0628,1.1107,1.1724,1.2003,1.2114,1.2114,1.2384,1.2643,1.2371,1.2509,1.2636,1.2365,1.2305,1.2318,1.2385,1.2759,1.3166,1.3394,1.346,1.3593,1.3928,1.4406,1.4803,1.4866,1.5692,1.6419,1.655,1.7458,1.8271,1.8513,1.9427,2.0097,2.0228,2.0944,2.141,2.141,2.1597,2.1696,2.1696,2.1696,2.1696,2.1696,2.1696,2.154,2.1255,2.1202,2.1012,2.0702,2.1003,2.1244,2.1392,2.1607,2.1696,2.1696,2.1651,2.1651,2.1696,2.1651,2.1459,2.1236,2.1145,2.0741,2.0168,2.0387,2.0525,2.064,2.0549,2.0521,2.0411,0.4943,0.4575,0.4301,0.413,0.4268,0.4384,0.427,0.4345,0.4501,0.4851,0.5702,0.6511,0.7122,0.8199,0.9008,0.9284,0.9473,0.9544,0.9473,0.9342,0.9166,0.8826,0.8676,0.8544,0.8407,0.8375,0.8409,0.8517,0.8422,0.8529,0.8753,0.8581,0.8689,0.9009,0.8789,0.8835,0.9129,0.9131,0.9221,0.9374,0.9864,1.0018,1.0061,1.0398,1.0516,1.0556,1.0812,1.1335,1.1892,1.2194,1.2305,1.2325,1.2509,1.275,1.2988,1.293,1.2937,1.2954,1.2795,1.2526,1.2371,1.2665,1.2973,1.3213,1.3213,1.3547,1.3854,1.3874,1.4281,1.4713,1.5048,1.5658,1.6407,1.7309,1.8054,1.8859,1.9731,2.0388,2.0894,2.1216,2.1523,2.1696,2.1696,2.1513,2.1394,2.1394,2.122,2.111,2.111,2.111,2.101,2.0833,2.1007,2.1007,2.0805,2.1209,2.1332,2.1271,2.135,2.1293,2.1119,2.1312,2.1293,2.1129,2.1522,2.1449,2.1089,2.0906,2.0585,2.0177,2.0186,2.0314,2.0493,2.0259,2.0108,1.9879,0.4596,0.4353,0.414,0.3868,0.4073,0.4231,0.4077,0.4192,0.4268,0.4272,0.5082,0.5893,0.6356,0.751,0.8546,0.9246,0.9435,0.9473,0.9322,0.9263,0.9145,0.8913,0.8726,0.8565,0.8509,0.8532,0.8522,0.8517,0.8611,0.8717,0.8838,0.888,0.902,0.9166,0.9238,0.9474,0.9809,0.9942,1.0218,1.0519,1.0625,1.0663,1.0663,1.0775,1.0812,1.085,1.1372,1.1892,1.2305,1.2305,1.2305,1.2345,1.263,1.2914,1.3218,1.3504,1.3515,1.3387,1.3505,1.3165,1.291,1.3432,1.3596,1.3548,1.3271,1.3675,1.4015,1.3726,1.4074,1.4636,1.5322,1.5622,1.6312,1.8037,1.8406,1.8999,2.0593,2.0876,2.1136,2.165,2.1696,2.1668,2.1595,2.131,2.108,2.1007,2.0704,2.0521,2.0521,2.0585,2.0558,2.0378,2.0869,2.1044,2.0906,2.1348,2.142,2.1007,2.1071,2.0934,2.0631,2.0961,2.097,2.0717,2.1394,2.1449,2.1071,2.0677,2.0484,2.0383,1.9939,2.0108,2.0484,2.0113,1.9683,1.9301,0.4108,0.3924,0.387,0.3806,0.3841,0.388,0.3843,0.388,0.4114,0.4771,0.5583,0.6437,0.7249,0.825,0.898,0.9284,0.9322,0.9322,0.9284,0.9146,0.9022,0.9,0.8723,0.8594,0.8598,0.8581,0.855,0.8517,0.8798,0.8838,0.8643,0.9466,0.9807,0.9801,1.0148,1.0424,1.0616,1.0464,1.0443,1.055,1.1074,1.1298,1.1335,1.1855,1.2077,1.2077,1.215,1.2224,1.2305,1.2305,1.2305,1.2311,1.2351,1.2587,1.2958,1.3516,1.3885,1.4188,1.4766,1.4881,1.4827,1.4918,1.5113,1.5195,1.4941,1.4467,1.4075,1.4035,1.5005,1.6024,1.6641,1.7679,1.874,1.9534,2.0091,2.0522,2.0761,2.1253,2.1632,2.1687,2.1696,2.1549,2.1227,2.1135,2.097,2.0622,2.0549,2.0521,2.0521,2.0842,2.0714,1.9994,2.0723,2.0778,2.0058,2.0824,2.0998,2.0604,2.0943,2.108,2.1025,2.108,2.1282,2.1531,2.1641,2.1449,2.1071,2.0677,2.0319,1.993,1.9549,1.9852,2.047,2.0457,1.9952,1.9301,0.3989,0.3867,0.3864,0.381,0.3802,0.3802,0.3802,0.3802,0.3919,0.4268,0.504,0.5854,0.6668,0.8016,0.8861,0.8975,0.9056,0.9094,0.8975,0.9,0.8936,0.8842,0.8574,0.8423,0.8443,0.8624,0.8652,0.8517,0.8673,0.8826,0.89,0.9489,0.9865,1.0019,1.0479,1.085,1.1149,1.1149,1.1298,1.1521,1.1781,1.1892,1.1929,1.2187,1.2305,1.2305,1.2305,1.2305,1.2305,1.2305,1.2305,1.2331,1.2536,1.313,1.3876,1.4363,1.482,1.5273,1.5581,1.5435,1.525,1.5404,1.5518,1.5633,1.5679,1.5442,1.5276,1.5394,1.6077,1.6902,1.7896,1.8566,1.9254,2.023,2.0618,2.0904,2.1262,2.1533,2.1696,2.1696,2.1485,2.1357,2.1412,2.0851,2.0466,2.0512,2.009,1.9842,1.9842,1.9998,1.9934,1.9595,2.0365,2.0512,1.9893,2.0714,2.0796,2.0149,2.0585,2.0778,2.0778,2.0778,2.0879,2.1028,2.1291,2.1282,2.1071,2.0677,2.042,2.0149,1.9549,1.9668,2.0149,2.0149,1.9962,1.9622]}]]